GEFSCGP_500_meanwind_000.txt.gz
Wind_Speed
5 7 8 9 9 11 13 15 15 16 20 23 27 30 34 39 43 47 53 59 64 70 74 76 78 80 82 82 83 79 71 60 58 60 59 57 49 45 43 44 47 48 52 60
7 9 11 13 14 14 16 18 18 20 23 27 32 34 38 42 47 53 58 63 69 74 75 76 78 82 84 83 79 70 58 55 57 56 55 51 45 43 43 43 45 47 49 51
7 9 12 13 13 14 17 20 22 25 28 31 36 38 42 47 51 57 62 68 72 75 77 78 79 82 81 77 70 58 52 54 57 58 58 55 51 49 48 46 45 46 47 49
9 11 13 14 15 17 20 23 26 28 30 32 37 44 44 49 54 60 65 70 73 75 76 79 81 81 77 74 63 53 53 57 61 63 63 61 57 56 55 52 48 45 45 47
11 12 14 16 18 20 23 26 28 30 31 35 40 44 48 53 59 65 70 73 76 79 79 82 80 77 73 67 56 52 56 61 65 67 66 64 60 60 61 58 52 46 44 44
12 13 15 17 19 22 24 26 29 32 35 39 43 48 53 58 65 70 73 76 78 80 82 81 77 71 65 58 53 55 60 65 67 68 66 62 58 56 57 56 52 46 42 40
15 15 17 17 19 21 23 27 32 36 41 43 46 51 56 63 68 72 76 77 79 82 82 77 71 64 58 55 56 61 65 67 67 66 64 61 56 53 52 51 50 47 42 38
17 17 17 17 19 21 23 27 32 37 42 46 49 55 59 66 71 75 77 78 80 82 78 73 65 59 57 58 62 65 66 66 64 59 56 53 50 49 48 47 47 45 43 40
17 18 18 18 19 22 26 30 33 39 45 51 54 57 63 69 74 75 75 77 80 80 74 66 61 61 62 65 66 65 63 59 55 51 49 49 48 46 45 44 44 42 41 40
17 18 18 19 20 23 27 32 36 41 47 52 57 62 69 74 76 75 75 78 83 77 68 62 62 65 67 67 64 61 56 52 50 50 50 49 48 46 44 44 44 43 41 39
18 18 20 21 23 27 30 33 37 43 47 53 61 65 71 76 77 75 77 79 79 71 64 63 66 68 68 65 61 55 52 49 48 48 48 48 50 50 48 47 46 45 44 41
18 19 22 23 25 27 30 35 41 46 50 55 63 67 74 76 75 76 77 77 72 66 64 66 68 68 64 59 55 52 49 49 51 51 50 50 51 52 52 50 48 45 44 43
20 22 24 24 26 29 33 39 44 48 51 58 65 68 75 75 74 75 76 75 71 66 66 69 69 65 59 54 52 49 49 52 55 55 54 54 54 54 52 49 47 45 43 41
23 24 25 27 29 31 37 41 45 49 54 60 66 70 74 74 73 75 75 74 69 64 67 69 66 60 55 52 51 50 52 55 58 57 56 56 53 51 50 48 46 44 42 38
25 24 24 26 28 32 38 42 46 51 55 61 68 72 74 74 74 76 76 72 66 65 68 68 62 55 52 51 51 52 54 58 59 57 57 53 50 51 51 48 45 41 38 35
27 27 26 27 30 33 38 43 48 52 56 63 70 74 74 73 74 75 73 69 65 66 68 64 56 52 50 51 52 54 56 59 58 58 55 51 53 53 53 50 46 42 38 34
28 29 30 31 34 37 41 45 49 53 58 66 72 74 75 72 73 73 71 67 64 67 66 58 52 50 50 52 53 55 58 60 60 58 53 54 56 56 55 52 49 47 43 37
29 31 33 35 37 39 43 46 51 55 61 67 72 76 73 71 72 71 67 63 64 67 61 54 50 50 52 54 54 56 61 61 61 56 53 57 57 56 56 53 51 51 50 42
29 32 35 37 39 41 44 48 53 57 62 68 73 75 72 71 71 69 65 63 64 63 57 52 51 52 54 55 55 57 62 63 61 55 55 58 57 55 55 54 54 56 54 44
29 32 35 37 40 44 46 49 53 59 64 69 73 73 70 71 70 67 64 63 64 59 53 51 52 54 55 55 56 59 63 63 60 54 57 59 58 57 58 58 60 61 55 41
31 33 36 38 41 43 46 50 54 59 66 70 71 70 69 69 68 65 63 63 62 55 51 52 53 55 56 55 56 59 62 62 58 56 58 60 59 60 61 62 66 64 50 34
33 35 38 40 44 46 47 51 54 59 65 68 69 68 67 68 67 63 62 62 59 52 50 51 53 55 56 55 56 59 61 61 58 57 57 59 60 62 63 65 68 63 43 29
33 35 38 40 42 44 46 50 54 59 63 66 67 66 66 67 66 62 61 61 56 50 49 51 53 55 56 55 56 59 60 59 58 56 56 58 61 63 66 68 70 62 43 30
35 37 38 39 41 43 46 50 54 57 61 65 66 65 65 67 64 61 60 59 53 48 48 50 52 54 54 54 56 59 59 58 57 56 56 58 61 62 66 70 72 65 46 33
38 38 38 38 40 42 44 50 54 55 60 65 65 64 65 66 63 60 59 57 51 47 47 49 51 52 53 53 55 57 58 57 57 56 56 58 60 62 65 69 72 69 53 39
40 38 38 38 39 41 45 50 53 55 60 64 65 63 64 64 61 59 58 55 49 45 46 48 51 51 51 52 54 57 57 58 57 56 56 59 60 60 62 66 70 70 62 45

GEFSCGP_500_meanwind_006.txt.gz
Wind_Speed
10 11 12 13 14 14 14 16 17 20 23 25 26 28 32 38 42 45 50 55 60 65 70 73 76 79 82 85 87 87 86 82 76 72 68 66 64 64 64 65 65 65 65 64
9 10 11 12 13 14 15 17 18 17 21 26 28 29 32 39 43 48 53 59 64 70 74 76 79 81 84 85 86 85 81 77 75 73 72 70 68 66 65 64 63 63 63 63
10 11 13 15 15 16 18 20 21 22 23 27 33 32 35 41 46 52 57 63 69 74 77 78 81 83 84 84 83 81 79 78 75 70 65 60 55 52 51 50 50 50 50 51
11 12 14 16 17 18 19 19 20 24 27 28 31 38 40 45 51 57 62 67 74 78 78 80 83 85 85 84 82 81 79 74 66 60 56 53 51 50 49 48 48 47 46 45
12 13 14 16 17 18 19 20 23 26 28 29 33 41 46 51 56 61 66 72 77 79 80 82 84 86 85 82 81 79 72 64 59 56 54 53 53 55 55 53 51 48 47 45
14 15 16 17 18 20 20 21 23 28 32 37 42 45 49 53 59 65 71 76 78 80 81 83 85 84 82 82 80 72 65 60 57 56 55 56 57 58 57 55 52 49 47 46
15 16 17 18 19 21 22 25 29 33 37 40 43 45 50 57 63 68 72 76 79 81 82 84 84 82 81 81 74 66 62 60 58 57 57 58 59 60 58 55 51 48 46 45
16 16 17 19 20 22 23 25 28 33 36 38 44 49 54 59 63 68 72 77 79 81 82 84 83 81 81 76 68 64 62 61 60 59 58 60 61 59 55 51 48 46 45 44
18 18 19 20 21 22 24 26 28 33 38 44 47 51 55 60 65 69 74 78 79 81 83 83 81 81 78 70 65 64 63 61 60 59 59 61 61 56 51 48 48 47 46 46
18 18 19 20 20 22 25 28 32 35 41 46 49 52 57 61 66 72 76 77 80 81 82 80 80 80 73 66 64 64 63 62 60 59 61 61 57 52 50 50 50 48 46 45
19 19 19 19 20 23 26 29 33 37 41 46 51 54 58 62 67 73 77 78 80 80 80 79 80 76 68 64 63 63 63 62 61 61 60 58 55 52 51 51 50 49 47 45
20 19 19 19 21 24 27 32 35 38 41 44 49 55 59 63 68 74 77 77 78 79 79 80 78 71 65 63 63 63 63 63 62 61 58 56 54 53 52 52 51 51 49 47
21 21 21 21 22 24 28 31 35 39 41 45 50 55 59 64 69 73 75 76 78 78 79 78 73 67 63 63 63 63 63 63 62 59 57 56 54 53 54 55 55 54 53 52
20 21 23 26 27 29 32 33 36 39 43 47 51 55 59 63 69 73 76 77 78 78 78 75 70 64 62 62 63 63 63 63 60 58 57 56 56 56 57 57 58 58 58 56
21 21 23 25 27 28 31 34 37 39 43 47 52 56 59 64 69 74 76 76 77 77 76 72 66 62 61 61 62 63 63 61 58 57 56 57 58 59 60 60 61 62 63 61
25 24 24 24 25 27 30 34 37 40 44 48 53 57 61 66 70 73 74 75 76 76 75 70 63 60 60 61 62 63 63 60 57 56 57 59 61 61 61 62 63 66 66 61
30 31 30 28 28 30 34 39 41 42 45 50 54 58 62 67 71 73 74 74 75 76 73 66 60 58 60 62 63 63 62 58 55 55 58 61 63 63 63 64 67 69 67 57
37 37 36 35 36 35 38 41 43 44 46 51 55 59 63 67 72 73 73 74 75 74 70 64 58 57 60 62 62 62 61 57 55 56 60 63 65 65 65 67 70 70 64 51
40 41 40 41 43 41 40 42 44 47 47 52 56 61 64 67 72 72 72 73 74 73 69 63 57 56 60 62 62 61 60 57 55 56 60 64 66 66 67 69 72 71 60 46
37 42 43 45 46 47 46 45 45 47 49 53 57 61 64 67 70 70 71 72 73 72 68 62 56 55 59 62 61 61 60 57 55 56 61 65 67 67 68 71 74 72 60 44
38 41 45 49 49 50 52 48 46 47 50 54 57 60 63 66 69 69 70 71 72 71 68 61 56 55 59 61 61 60 60 58 56 57 61 64 67 68 69 71 75 74 62 46
40 43 47 53 57 56 56 51 46 46 49 53 56 59 61 65 68 68 69 70 71 70 67 61 56 55 57 60 60 59 60 58 56 57 60 63 66 68 69 71 73 75 67 50
41 44 47 51 55 58 57 51 46 46 48 52 56 57 60 64 67 67 68 69 70 69 66 61 55 54 56 58 59 58 59 58 56 57 59 61 64 68 69 69 71 74 72 59
41 44 46 50 55 58 58 53 47 46 48 53 56 57 60 64 66 66 67 68 68 68 65 60 55 53 54 57 58 57 57 58 57 57 57 59 62 66 68 69 70 72 74 69
43 45 47 50 54 58 59 55 49 47 50 53 55 57 61 64 65 66 67 67 67 67 64 60 55 52 53 55 56 56 56 57 57 56 56 57 60 63 67 69 70 71 73 74
43 45 47 49 53 58 60 58 52 50 51 54 55 58 61 64 65 66 66 66 65 66 64 60 55 51 51 53 54 54 54 56 56 56 56 56 57 60 63 67 69 69 69 70

GEFSCGP_500_meanwind_012.txt.gz
Wind_Speed
12 13 13 13 13 12 13 14 14 15 16 18 21 24 28 33 36 38 42 46 51 55 60 66 72 76 78 81 85 88 90 90 87 79 72 68 67 68 67 66 64 62 60 59
10 10 11 12 13 14 14 14 14 14 16 18 21 24 29 32 35 39 44 48 53 58 63 69 74 76 79 83 86 88 89 86 80 74 71 70 70 68 65 62 59 57 55 54
9 10 11 11 12 13 13 13 13 13 16 20 22 22 28 33 38 43 47 50 54 60 66 71 74 77 80 83 86 87 86 81 75 71 70 70 69 64 58 53 51 51 49 48
9 10 11 11 11 12 12 13 13 14 18 23 25 27 32 37 42 46 49 52 57 62 68 72 74 77 81 84 86 86 82 76 72 71 72 71 65 58 52 49 48 49 49 48
10 11 12 11 11 12 12 14 15 18 21 24 27 32 36 40 45 48 50 54 59 64 69 71 74 78 82 85 85 83 77 72 71 72 72 69 61 53 49 49 50 51 51 51
11 12 12 11 12 13 15 16 18 21 23 26 30 34 37 42 46 49 52 56 61 65 69 71 75 79 83 84 83 78 73 71 72 72 71 66 56 50 49 51 52 53 53 53
12 12 12 12 14 16 18 20 22 24 26 29 32 35 38 42 47 50 54 57 62 66 69 73 77 80 82 83 80 75 71 71 72 71 69 62 54 50 52 55 56 56 55 55
13 13 13 14 16 18 20 22 25 28 30 30 33 36 39 44 48 52 55 58 63 67 71 74 77 80 82 81 78 73 70 71 72 70 67 59 53 53 56 59 60 60 59 58
15 14 15 16 18 21 23 24 27 30 33 34 36 38 42 46 50 53 56 60 65 69 72 74 77 80 81 80 75 71 70 72 71 70 65 58 54 56 59 62 64 64 64 62
15 15 16 18 21 24 26 28 31 34 38 41 41 41 43 47 51 54 58 62 66 70 72 74 77 79 80 77 73 70 71 72 71 69 65 59 56 59 62 65 66 67 67 67
15 16 18 20 23 26 29 31 33 36 38 42 45 43 44 47 51 55 59 63 67 70 72 74 77 79 79 75 70 68 70 70 69 68 64 59 59 61 64 67 69 70 72 71
15 16 18 21 23 26 29 32 35 37 40 41 44 44 44 47 52 55 59 63 66 69 71 74 77 78 77 73 69 68 69 69 68 67 63 60 60 62 65 69 71 74 74 70
17 18 19 21 24 27 30 33 35 38 39 40 41 42 44 47 51 55 59 63 66 69 71 73 76 77 75 71 68 67 68 67 67 67 64 61 61 63 67 70 73 76 73 63
18 20 23 26 28 32 35 37 38 39 39 39 38 40 43 47 51 54 58 62 66 68 70 72 74 76 73 70 67 67 67 66 66 67 65 62 62 64 68 71 75 77 70 57
18 21 24 28 31 35 38 40 41 40 39 38 37 38 42 47 50 54 58 63 66 68 69 71 73 74 72 69 66 66 66 65 66 66 65 64 64 66 69 72 76 77 68 53
16 20 24 27 31 35 40 43 44 43 41 39 38 38 42 46 49 53 58 63 66 67 68 70 73 73 71 68 66 65 65 64 65 66 66 65 65 66 69 72 76 77 67 51
15 19 23 26 31 35 41 45 46 45 44 43 41 42 44 46 49 53 58 62 65 66 67 69 72 72 70 67 65 65 64 63 64 65 66 66 66 67 70 72 76 77 69 53
16 20 24 28 33 38 42 46 49 48 48 48 45 45 46 47 50 53 58 62 65 66 67 68 70 71 69 66 65 64 63 62 63 64 66 66 66 67 69 71 74 77 71 57
17 22 26 31 35 38 43 47 51 52 51 53 51 49 48 49 50 53 57 62 65 66 66 67 69 70 69 66 64 63 62 61 62 63 65 66 65 66 68 70 73 75 74 63
17 21 26 31 35 40 44 47 50 53 55 57 55 53 51 50 50 53 57 62 65 65 66 66 68 69 68 65 62 61 61 60 61 62 64 64 64 65 66 69 71 74 75 70
17 20 25 30 34 38 43 47 50 52 55 58 58 55 53 51 51 52 56 61 65 65 66 65 66 67 66 64 61 60 60 59 60 61 63 63 62 63 64 67 70 72 73 72
19 22 27 32 36 40 43 47 50 52 54 57 59 57 55 53 52 53 56 61 65 66 65 65 65 65 65 63 60 59 58 58 58 60 61 61 60 61 62 64 67 69 70 70
21 23 26 31 34 38 42 46 49 52 54 56 59 59 57 54 53 53 56 60 64 66 65 63 63 64 64 62 59 57 57 56 57 58 58 58 59 59 59 61 63 66 67 68
23 24 26 30 35 39 43 46 49 52 53 56 59 60 59 55 53 53 55 59 63 65 64 62 62 63 62 61 58 56 55 54 55 55 55 56 56 57 58 59 60 62 64 66
26 26 28 31 36 39 42 46 49 52 54 56 59 61 60 56 53 53 54 58 62 64 63 62 61 61 61 60 58 55 53 52 53 53 53 53 54 55 57 58 58 59 61 63
29 29 31 34 38 42 45 48 50 52 54 56 59 62 60 56 53 52 53 57 61 63 63 61 59 60 60 59 57 54 51 50 50 50 51 50 51 52 54 56 57 58 58 59

GEFSCGP_500_meanwind_018.txt.gz
Wind_Speed
9 9 11 13 13 14 16 17 17 17 17 17 18 21 24 26 30 33 37 40 44 48 51 53 56 59 64 68 71 73 77 81 84 86 88 87 83 79 78 77 76 73 67 61
9 10 12 12 13 14 15 16 16 15 16 18 20 22 27 29 32 36 39 43 46 50 52 55 58 62 66 69 72 74 78 81 85 88 89 86 80 78 77 75 74 71 65 60
10 11 12 12 12 13 14 15 17 17 19 22 23 24 29 32 35 39 42 45 48 51 54 56 59 63 67 69 72 75 79 83 87 88 87 82 78 76 75 73 71 67 63 60
10 11 11 11 12 14 15 17 19 21 23 25 28 28 30 34 38 41 43 46 49 52 55 57 61 64 67 70 73 77 81 85 88 87 84 81 78 76 75 74 70 65 61 61
9 10 11 12 13 16 18 20 22 24 25 27 30 32 33 37 39 42 43 46 49 53 55 57 61 65 68 71 75 78 82 86 87 86 83 79 78 77 76 73 68 62 60 62
7 8 10 12 15 18 20 22 23 25 27 29 31 33 35 38 39 41 43 46 50 53 55 58 62 66 69 72 76 79 83 86 86 84 81 78 77 76 75 71 65 62 63 67
6 7 10 13 16 20 22 25 27 28 29 31 32 33 35 36 38 41 44 47 51 53 54 58 63 67 70 73 76 79 83 85 84 82 79 77 77 76 74 70 66 66 69 75
5 7 11 14 17 19 23 26 29 31 32 31 31 32 34 36 39 42 44 47 50 52 54 59 63 67 71 73 76 79 83 84 83 80 77 76 76 75 73 70 69 72 77 81
5 7 10 14 16 19 22 26 29 32 34 34 34 35 35 39 41 43 45 47 49 51 54 59 64 68 71 74 76 80 83 83 81 78 75 74 75 74 71 69 71 75 81 82
5 7 10 13 16 20 24 27 30 34 37 39 37 38 40 41 42 44 45 47 49 51 54 59 64 68 71 74 76 80 82 81 79 76 74 74 74 73 71 70 72 77 81 79
4 6 9 12 16 19 23 27 30 32 36 39 41 41 44 44 44 45 46 48 49 51 55 60 65 68 71 73 76 79 81 80 76 74 72 72 72 72 71 71 73 78 80 76
3 5 8 12 16 20 24 27 29 32 35 38 41 44 47 48 48 47 47 48 50 52 55 60 65 68 71 73 76 78 79 78 74 72 71 71 71 71 70 71 73 78 79 73
1 4 7 10 15 19 22 25 28 32 36 39 43 45 50 52 52 51 49 50 51 53 56 60 65 69 71 73 75 77 78 76 72 70 69 69 69 70 70 71 73 76 78 72
2 3 6 9 13 17 21 26 29 33 37 40 44 47 51 55 56 54 52 52 52 53 56 60 65 69 71 72 75 76 76 74 71 68 68 67 68 69 70 71 72 75 77 73
5 5 7 9 12 16 21 25 29 33 37 41 45 49 53 56 58 57 55 54 53 54 56 60 65 69 71 72 74 75 75 73 70 68 67 66 66 67 69 70 71 73 76 75
9 9 10 11 14 16 19 24 28 33 37 41 46 49 54 57 59 59 57 56 55 55 56 60 65 69 70 71 73 74 73 72 69 67 65 64 64 66 68 70 70 71 73 75
12 12 12 13 15 17 19 23 28 32 36 41 46 50 55 58 61 61 60 58 57 56 57 60 65 68 70 70 71 72 72 71 69 66 64 63 63 64 67 68 69 69 71 73
17 16 16 16 17 19 22 25 29 32 36 41 45 49 54 58 62 64 63 61 60 58 57 60 64 68 69 69 70 70 71 70 68 65 63 62 62 63 64 66 67 67 68 70
21 20 20 20 21 20 23 27 31 34 36 41 45 49 54 58 62 65 66 64 62 60 58 60 64 67 68 68 68 69 70 69 67 64 62 61 61 61 62 64 65 65 66 67
24 23 23 24 25 25 27 29 32 36 40 43 47 51 54 58 62 65 67 67 64 62 59 60 63 66 67 67 67 68 69 68 66 63 60 60 59 60 60 61 63 64 64 65
28 27 26 26 27 28 29 32 34 37 40 44 47 51 54 58 61 65 68 68 67 64 61 60 63 66 67 67 66 67 68 67 66 63 59 58 58 58 59 59 61 62 63 63
32 31 30 29 29 31 31 33 36 37 40 43 46 50 54 57 61 65 68 70 69 66 62 61 62 65 66 66 65 66 66 66 65 62 59 57 57 57 57 57 58 59 60 61
35 34 33 31 30 34 34 35 37 39 40 43 46 50 54 57 61 64 68 70 70 68 64 61 61 64 65 65 64 64 65 65 63 62 59 57 56 55 55 55 56 56 58 58
38 38 36 34 32 36 37 37 39 41 42 44 47 50 54 57 61 64 67 70 71 70 66 61 61 63 64 64 63 63 63 63 62 60 58 56 55 54 54 54 54 54 55 56
42 40 38 36 35 39 37 39 41 43 45 46 47 50 53 57 60 63 66 69 71 70 67 62 60 61 63 63 62 61 62 62 61 59 58 56 54 53 53 53 53 53 54 55
44 41 41 39 40 42 40 41 43 45 47 48 49 51 53 57 60 63 66 68 70 70 68 62 59 60 62 62 61 60 60 60 60 58 57 55 53 51 50 51 52 53 53 53

GEFSCGP_500_meanwind_024.txt.gz
Wind_Speed
9 9 9 9 10 11 13 15 17 18 19 20 22 25 28 30 31 31 32 33 34 36 38 41 43 46 49 52 56 59 63 67 70 73 77 82 86 90 93 90 85 80 78 78
9 8 8 8 9 11 14 15 17 18 21 22 23 25 28 28 28 29 29 31 33 36 39 42 45 47 51 54 57 61 64 68 71 75 79 82 87 90 90 86 81 78 78 78
8 7 6 7 9 11 13 15 17 19 20 21 23 23 25 26 26 27 29 32 35 38 40 43 45 48 52 55 58 62 66 69 72 76 80 83 88 90 87 82 78 77 78 79
7 6 5 5 8 10 12 15 17 19 20 22 23 23 25 27 28 30 31 34 36 39 41 43 46 49 53 55 59 63 67 70 73 76 80 84 87 87 84 79 77 77 78 77
7 5 3 4 6 9 11 14 16 17 19 21 23 24 27 29 31 32 33 35 38 39 41 44 47 50 53 56 59 64 68 70 73 77 80 84 86 85 81 77 76 76 77 75
7 5 3 3 5 7 10 13 14 16 19 21 24 26 29 32 33 35 37 38 40 41 42 45 48 51 53 56 60 64 68 71 73 77 81 84 85 82 79 76 75 75 75 73
8 6 4 3 4 6 9 11 13 17 20 22 24 28 31 33 36 39 41 42 43 44 45 47 49 51 53 56 60 65 68 70 73 77 81 84 83 80 77 74 74 74 73 72
9 7 5 4 4 6 8 11 14 17 19 21 25 29 32 35 39 41 43 45 47 48 49 50 51 53 54 57 61 65 68 70 73 77 80 83 82 79 75 73 73 73 72 71
11 9 7 5 4 6 8 10 13 14 17 20 24 28 32 36 39 42 44 47 50 53 54 55 55 55 55 58 61 65 68 70 73 76 80 82 80 77 74 72 72 72 71 70
12 10 8 7 6 6 7 10 12 15 19 22 25 28 32 36 39 42 46 49 53 56 58 59 58 57 57 59 62 66 68 69 72 76 79 81 79 75 72 71 71 71 70 69
13 11 10 8 7 8 9 11 13 16 20 24 27 29 31 35 38 42 47 51 54 58 60 62 62 61 59 60 63 66 68 69 72 76 79 79 78 74 71 70 69 69 69 68
14 13 12 11 10 10 11 13 14 17 19 22 25 29 32 35 39 43 47 51 55 59 62 64 66 65 63 62 64 66 68 69 72 75 78 78 77 73 70 68 68 68 68 67
16 15 14 14 13 13 14 15 16 18 20 22 25 28 33 36 39 44 48 52 56 60 64 66 68 68 66 64 65 67 68 69 72 75 77 78 76 72 69 67 67 67 67 66
18 17 17 17 16 16 16 17 19 21 22 24 26 28 31 36 40 44 48 53 57 60 64 68 70 71 69 66 66 67 68 69 71 74 77 77 75 71 68 66 66 66 66 65
19 19 20 19 19 18 18 20 21 23 25 27 29 31 33 36 40 44 48 53 57 61 64 68 71 73 72 69 67 68 68 68 70 73 76 76 75 71 67 65 64 64 65 65
22 22 22 22 22 22 21 22 23 25 27 29 31 32 35 37 41 44 48 53 57 61 65 69 72 73 74 72 68 68 68 68 69 72 75 75 74 71 67 64 63 63 64 64
25 25 26 25 25 26 24 24 25 26 28 31 32 34 37 39 42 45 48 52 57 62 66 69 72 74 76 74 70 68 68 68 69 71 73 74 74 71 66 63 62 62 62 63
28 29 30 29 28 29 26 27 28 29 30 32 33 35 38 41 43 47 49 52 56 61 65 68 71 74 76 76 72 69 68 68 68 70 72 73 73 70 66 63 61 61 61 61
31 32 33 33 33 31 29 30 31 33 32 33 35 37 40 42 44 47 50 52 56 60 64 68 71 73 76 77 75 70 68 68 68 69 71 72 72 69 66 62 60 60 60 60
33 35 36 37 37 36 31 32 35 37 36 36 38 39 41 44 47 49 51 53 56 59 63 67 70 73 75 77 76 71 68 67 67 68 69 71 71 69 65 62 60 59 59 59
36 38 39 39 41 39 35 36 39 40 41 41 42 43 44 45 48 50 53 54 56 58 62 66 70 71 74 76 76 72 68 67 66 66 68 70 69 68 65 62 60 58 57 58
39 41 41 42 42 40 38 39 41 43 44 44 46 47 47 48 49 51 53 55 56 57 60 64 68 70 73 75 75 72 68 66 65 65 66 68 69 67 65 61 59 57 56 55
42 42 44 44 43 40 39 40 43 46 47 47 49 49 50 50 51 52 54 55 55 56 58 62 67 69 71 73 74 72 69 66 64 64 64 66 68 67 65 61 58 56 54 53
45 44 46 46 42 38 39 41 44 48 50 50 52 52 52 52 52 52 53 55 55 55 56 60 65 67 69 71 72 72 69 65 63 62 63 64 66 67 65 61 58 55 53 51
50 48 46 45 39 36 37 40 43 46 50 52 53 53 53 54 53 52 53 54 54 53 54 58 63 66 67 69 70 71 69 65 62 61 61 62 64 65 65 63 58 55 53 51
57 53 50 47 41 41 40 38 39 43 48 51 53 53 53 54 54 52 52 53 53 52 53 56 61 64 65 67 68 69 68 64 62 60 59 60 62 63 64 63 60 55 52 51

GEFSCGP_500_meanwind_030.txt.gz
Wind_Speed
8 7 6 5 6 7 7 8 8 8 8 10 12 13 15 18 20 22 24 25 27 29 31 33 36 39 41 43 45 47 49 50 51 54 57 61 64 68 71 77 82 89 94 96
9 7 6 5 5 6 7 7 6 7 8 10 12 13 15 18 20 22 24 26 28 31 34 36 39 41 44 46 48 49 50 51 52 54 58 62 65 69 73 78 84 91 94 93
10 8 6 6 6 7 7 7 6 6 7 8 11 12 14 17 19 22 24 27 30 34 37 39 42 44 46 49 51 53 54 55 55 57 60 63 67 70 75 80 86 91 93 89
11 9 8 7 7 7 8 7 6 6 6 7 8 10 13 17 19 22 25 28 31 35 39 42 44 46 49 51 54 57 59 60 60 60 62 65 69 72 76 81 87 91 90 85
12 11 10 9 9 9 8 8 7 7 7 8 10 11 14 16 18 21 25 28 31 35 39 43 46 49 51 53 56 59 63 64 64 63 64 67 70 73 77 83 87 89 87 82
14 13 12 11 11 10 10 9 9 9 9 9 11 13 15 17 20 22 25 28 32 35 39 44 47 50 53 56 59 62 65 68 69 67 67 69 72 74 78 83 87 88 84 79
16 15 14 13 13 12 12 11 11 11 11 12 12 14 16 18 21 23 26 29 32 36 40 44 48 52 55 58 61 64 66 70 72 71 70 71 73 75 79 83 87 86 82 77
18 16 16 15 15 14 14 14 14 14 15 14 14 15 17 19 21 24 27 31 34 37 41 45 49 53 56 60 62 65 68 71 74 74 73 73 74 76 79 83 86 85 81 75
21 18 17 17 17 16 16 16 17 17 17 17 18 19 19 20 22 25 28 32 35 38 41 45 49 53 57 61 64 66 69 72 75 76 75 74 75 77 80 83 86 84 80 74
22 21 18 19 19 19 19 19 19 19 20 21 21 22 23 24 26 28 31 33 36 39 43 46 50 54 58 61 65 67 70 72 75 78 77 76 76 77 79 83 85 83 79 73
23 23 20 21 20 21 22 21 22 22 23 25 25 24 26 27 29 32 34 37 39 42 45 48 51 54 58 61 65 68 70 73 76 78 79 77 76 77 79 82 84 82 78 72
24 25 23 22 23 24 24 24 24 26 26 27 29 26 28 30 31 32 35 38 41 44 47 50 52 55 58 61 65 68 70 73 75 78 80 78 77 76 78 81 83 81 76 72
25 26 25 25 25 26 26 26 27 29 30 30 30 28 30 33 33 35 36 38 41 45 48 51 53 55 58 61 64 67 70 72 75 78 80 79 77 76 78 81 82 80 75 71
27 26 26 27 28 27 28 28 31 33 33 33 32 30 28 34 37 38 40 42 44 46 49 52 55 56 58 61 63 66 69 72 74 77 79 79 78 76 77 80 81 79 75 70
29 28 28 28 30 32 31 30 32 35 35 36 34 34 31 35 37 39 42 44 46 49 51 54 56 57 58 61 63 65 68 71 73 76 78 79 78 77 76 78 80 78 74 69
31 31 30 30 32 36 35 31 33 35 35 36 37 37 34 40 40 41 44 46 48 50 53 55 57 58 59 60 62 64 67 70 72 74 77 79 78 77 76 77 78 78 74 68
33 34 34 33 34 38 36 32 34 37 37 37 39 39 39 43 43 43 46 48 49 51 53 56 58 59 60 60 61 62 65 69 71 73 76 78 78 76 75 75 77 77 74 69
35 35 38 38 38 40 34 34 35 38 39 40 41 42 44 46 46 46 48 50 51 53 54 57 59 60 60 60 59 61 64 67 70 72 74 76 77 76 74 74 75 76 74 69
37 38 39 41 42 43 36 35 37 40 41 41 44 45 47 48 49 48 50 52 53 54 56 57 59 60 59 59 58 59 62 65 69 70 72 74 75 75 74 73 74 75 73 69
39 40 42 43 45 46 40 38 39 41 41 42 45 47 49 51 52 52 53 54 55 56 56 57 58 59 59 58 57 58 61 64 67 69 70 72 74 74 73 72 72 73 73 70
43 43 43 44 47 48 42 41 41 40 41 43 46 49 51 53 55 56 56 56 57 58 57 57 57 57 57 57 56 56 59 62 66 68 69 70 72 73 72 71 70 71 72 69
48 47 47 46 49 48 43 42 41 41 42 44 48 51 53 55 56 57 57 58 58 58 58 56 56 56 55 56 55 55 57 61 64 67 68 68 70 71 71 69 69 69 70 69
54 52 51 53 53 49 48 45 44 44 46 48 51 53 55 56 57 57 57 59 59 59 58 57 56 55 54 55 55 55 56 60 63 66 66 66 67 69 69 68 67 67 68 67
58 57 59 59 57 54 53 52 50 51 53 53 54 55 56 57 58 58 58 60 60 60 60 59 58 56 55 55 55 55 56 59 61 64 65 65 65 67 67 66 65 64 66 66
62 63 64 64 62 61 59 58 58 59 59 58 58 59 60 61 60 60 61 61 62 62 62 61 60 59 57 56 56 56 57 59 61 63 64 63 62 64 65 64 63 62 63 65
62 64 67 67 64 67 65 63 63 64 63 63 63 63 62 63 63 63 63 63 63 63 63 62 62 61 59 57 57 57 57 59 60 62 62 61 60 61 62 62 61 60 61 63

GEFSCGP_500_meanwind_036.txt.gz
Wind_Speed
9 10 10 10 11 11 11 11 11 11 10 9 8 8 7 7 7 7 7 8 10 10 12 15 18 21 24 27 30 34 37 40 42 45 46 48 49 52 54 57 60 62 63 65
10 10 11 12 12 14 14 14 14 13 12 12 11 10 10 10 9 10 10 10 11 13 15 18 21 24 26 29 32 35 38 42 45 47 49 51 53 54 57 59 62 64 66 67
11 11 12 13 14 16 17 16 15 15 15 15 15 14 13 13 13 13 14 14 14 15 18 20 23 26 28 31 34 37 40 43 46 49 52 54 55 57 59 62 65 67 69 70
12 13 14 15 16 17 18 18 18 18 18 18 18 17 16 16 16 17 17 18 18 18 20 23 25 28 30 33 36 39 41 45 48 51 53 56 58 59 61 64 67 69 71 72
13 14 15 16 17 19 20 21 21 21 21 21 21 21 18 19 19 20 22 22 22 22 24 26 28 30 33 36 38 41 43 46 49 52 55 57 59 61 63 65 68 71 72 74
15 16 17 18 19 20 21 23 24 24 24 23 23 24 20 21 22 23 25 25 26 27 27 29 31 33 36 38 41 43 45 48 50 53 55 58 60 63 65 67 69 72 74 75
17 18 19 20 21 22 23 24 27 28 28 26 26 28 21 23 25 26 27 28 29 30 31 32 34 36 38 41 43 45 47 49 51 54 56 58 60 63 66 68 70 73 74 76
19 19 21 22 23 24 24 26 28 32 32 30 30 31 24 26 27 28 29 30 32 33 34 34 36 38 40 43 45 47 49 51 53 55 57 58 61 63 66 69 71 73 75 76
22 21 22 24 25 26 27 28 30 34 35 36 34 33 28 27 29 31 32 33 35 36 36 37 38 40 42 45 47 49 51 53 54 55 57 59 61 63 66 69 71 73 75 77
25 24 23 24 26 27 29 30 32 35 38 39 38 34 30 29 31 33 34 35 37 38 39 40 41 42 45 47 50 51 53 55 56 56 57 59 61 63 65 69 72 73 75 77
27 26 24 25 26 28 30 31 33 36 39 42 43 37 30 31 34 36 37 39 41 42 41 42 44 45 47 49 52 54 56 57 58 57 58 59 60 62 65 68 72 73 75 76
29 29 27 26 27 29 30 31 33 37 39 42 46 38 29 32 35 38 40 43 45 45 44 45 47 48 50 52 54 56 58 59 59 58 58 59 60 62 64 67 71 73 74 75
31 31 31 29 29 31 32 32 34 37 40 42 45 41 32 33 36 41 45 47 49 48 47 48 49 51 52 54 55 58 59 60 59 58 58 58 60 61 64 66 70 73 74 75
35 34 33 33 32 35 35 33 34 37 40 42 43 42 36 35 39 44 47 50 50 49 49 51 52 53 54 55 57 59 60 59 59 58 58 58 60 61 63 66 69 72 73 74
37 36 35 34 34 38 40 37 35 37 39 43 42 42 38 38 42 44 46 48 49 50 51 52 53 54 55 56 57 59 59 59 58 58 58 58 59 61 63 66 69 71 72 73
39 40 39 38 36 40 42 38 37 38 40 42 43 42 39 41 43 45 46 48 49 50 51 53 54 55 55 57 58 59 59 58 58 59 59 59 60 61 63 65 68 70 71 72
40 42 43 43 41 43 42 38 38 39 40 41 43 42 42 43 44 45 46 47 49 50 52 53 54 55 56 57 58 59 58 59 59 59 60 59 61 62 64 65 67 69 69 70
42 42 45 47 46 48 43 40 40 41 40 41 43 43 43 45 45 46 47 49 49 51 53 54 56 57 58 58 59 59 59 60 61 61 61 61 62 63 64 66 67 68 68 69
44 45 47 49 51 52 46 42 43 45 44 42 45 45 46 47 47 47 49 51 52 54 56 58 59 60 60 60 60 61 61 62 63 63 62 62 64 65 65 66 66 67 67 67
47 48 50 52 55 55 49 47 47 48 48 45 48 48 49 51 52 52 53 55 57 58 60 61 61 62 62 63 63 63 63 63 65 64 64 64 64 66 66 66 65 65 66 66
51 52 53 54 57 56 50 50 51 52 51 51 52 53 55 56 57 58 58 60 61 62 63 64 64 65 65 65 65 65 65 65 65 65 64 64 64 65 65 64 64 64 64 64
54 55 56 56 59 57 53 54 54 55 56 57 58 59 61 61 62 62 63 64 65 66 66 67 67 67 66 66 66 66 66 66 66 65 64 64 64 63 63 62 62 63 62 61
56 56 57 59 59 57 56 57 58 59 61 62 63 64 64 65 64 64 64 65 65 66 66 67 67 66 65 64 64 64 64 65 64 63 63 63 62 61 61 60 60 61 59 58
56 56 59 60 58 57 57 59 60 62 64 65 65 65 65 65 65 64 64 64 64 63 63 63 62 60 60 60 60 59 60 61 61 60 60 59 59 58 58 57 58 59 57 56
52 53 55 56 53 55 55 57 59 60 62 62 63 63 63 62 61 60 59 59 58 57 56 56 57 57 56 57 56 56 56 56 56 55 55 55 55 55 55 54 54 55 55 53
44 46 49 50 47 52 52 52 54 56 57 57 57 57 56 56 56 55 54 52 51 51 52 53 53 53 52 52 52 51 51 51 51 51 51 51 52 52 51 50 49 50 51 50

GEFSCGP_500_meanwind_042.txt.gz
Wind_Speed
18 17 17 17 18 19 20 20 21 23 23 22 21 20 21 23 22 21 21 21 21 21 22 22 23 24 26 28 30 31 32 33 34 35 37 38 41 43 45 48 50 52 53 54
18 18 18 18 19 20 21 21 22 23 25 25 24 22 24 26 25 25 24 24 23 24 24 25 26 27 29 31 33 34 35 36 38 39 40 41 43 46 48 51 53 54 56 57
18 19 19 19 20 21 22 23 23 25 26 27 28 24 24 28 27 27 26 26 26 26 27 27 28 30 32 34 36 37 38 40 41 42 43 45 47 49 51 54 56 57 58 59
18 19 19 19 21 22 23 25 27 27 28 28 29 29 20 28 28 27 27 28 28 29 29 30 31 33 35 37 38 40 41 42 44 45 47 48 50 52 54 56 58 60 60 61
18 19 20 21 23 25 26 27 29 29 30 30 29 32 23 25 28 28 29 30 30 31 31 32 34 36 38 40 41 43 44 45 46 48 49 51 53 55 57 59 60 62 62 62
19 20 21 22 24 26 28 30 31 31 31 31 30 32 27 24 27 28 30 31 31 33 33 34 37 39 40 43 44 45 47 47 49 50 52 54 56 57 59 61 63 63 63 63
21 22 24 25 27 28 30 32 35 35 33 31 31 30 26 25 27 29 30 32 34 35 36 38 40 42 43 45 47 48 49 50 52 53 55 56 58 60 61 63 64 64 64 64
24 25 26 27 29 30 31 33 35 38 37 34 33 32 28 27 28 29 30 33 36 38 40 42 44 46 47 48 49 50 51 53 54 55 57 59 60 62 63 65 65 65 65 65
28 28 28 29 30 31 33 33 35 39 41 39 36 33 29 24 25 27 30 33 36 39 43 46 48 50 51 52 52 52 54 55 56 57 59 60 61 63 64 65 65 65 66 66
31 30 28 30 31 32 34 35 36 38 43 44 41 36 31 29 29 29 31 35 38 42 45 48 51 53 54 54 55 55 56 57 58 59 60 61 62 64 65 66 66 66 66 66
34 33 31 31 32 34 35 35 37 40 42 45 47 41 33 33 33 34 35 37 41 44 47 49 51 53 55 55 56 56 57 57 58 59 61 62 63 64 66 66 67 67 67 67
35 36 34 33 33 35 36 37 38 40 42 44 48 46 35 37 38 40 41 42 43 45 47 48 49 50 52 53 54 55 56 57 58 59 61 62 64 65 66 67 67 68 68 67
37 38 38 36 35 37 39 38 39 41 43 45 47 47 41 43 44 45 46 46 47 48 49 49 50 51 51 52 53 54 55 56 58 59 61 63 65 66 67 67 67 68 68 67
40 41 41 41 39 40 42 41 40 42 44 47 47 48 44 45 49 49 49 50 50 51 51 51 52 52 53 53 54 54 55 57 58 60 62 64 66 67 67 67 67 67 66 66
43 44 44 44 43 44 46 44 42 43 44 48 49 50 49 51 53 53 53 53 54 54 54 54 53 53 54 54 54 55 56 58 60 62 63 65 66 67 68 67 66 65 64 64
45 48 48 48 46 48 50 46 44 45 46 48 51 51 50 54 54 55 56 57 57 57 56 56 55 55 55 56 57 58 59 61 62 63 64 66 67 67 67 66 64 64 63 62
48 49 51 53 51 53 51 46 46 47 48 49 51 53 55 56 56 57 58 59 59 59 58 57 57 58 58 59 60 61 62 63 63 64 65 65 65 65 64 63 62 61 61 59
50 51 53 56 56 57 53 51 51 52 51 51 53 55 58 59 58 59 60 60 60 60 60 61 61 61 61 62 63 63 63 63 63 63 63 63 63 61 61 60 59 58 57 55
47 50 53 56 57 57 53 51 54 55 54 53 56 58 60 61 60 59 60 61 62 62 63 64 65 64 63 63 63 62 62 61 62 61 60 60 59 58 57 56 54 53 52 52
42 44 47 50 53 54 51 51 53 54 56 56 58 59 60 61 62 61 60 61 62 63 64 64 63 62 62 61 61 60 59 59 58 57 55 55 54 54 52 51 49 49 49 50
40 42 43 46 49 50 49 51 52 54 56 56 58 59 61 62 63 62 61 61 61 61 60 60 60 59 59 58 57 55 54 54 53 51 51 50 50 49 48 47 46 46 47 47
40 42 43 45 47 48 49 50 51 52 54 55 57 59 61 61 60 60 60 60 59 58 57 56 55 54 53 53 52 50 50 50 49 49 49 49 48 47 45 44 44 45 44 44
42 42 44 46 47 47 49 50 50 52 54 55 57 58 59 59 58 58 57 56 55 54 51 50 50 49 48 48 48 48 48 49 47 47 48 47 45 45 44 43 43 43 43 44
44 42 44 48 48 49 50 50 51 53 55 56 57 58 58 59 58 57 54 52 50 49 48 48 47 46 45 45 46 47 47 47 47 46 45 45 45 45 45 44 44 44 43 44
48 45 48 51 51 51 51 51 53 54 55 56 56 58 58 58 56 55 53 51 50 48 47 47 45 44 45 45 46 48 48 48 47 47 47 47 46 46 47 47 46 45 45 45
48 47 51 54 54 57 55 55 56 57 57 57 57 57 56 55 54 54 52 50 48 47 47 46 46 46 47 48 49 50 49 49 49 49 49 49 49 49 50 49 48 47 47 46

GEFSCGP_500_meanwind_048.txt.gz
Wind_Speed
25 25 24 23 22 22 21 20 20 21 21 20 18 18 20 24 27 27 27 28 28 28 30 29 29 29 29 30 31 32 33 34 35 35 37 38 39 41 42 44 46 47 48 49
24 24 24 23 22 22 22 21 21 21 22 21 19 18 22 24 27 28 28 30 30 30 32 32 31 32 32 32 33 35 36 37 38 39 41 41 43 44 45 47 49 51 51 52
21 22 22 22 22 22 22 23 22 23 23 23 22 16 22 25 27 29 29 30 30 31 32 33 34 34 35 35 37 39 40 41 42 43 45 45 46 47 48 51 53 54 55 56
18 18 19 20 21 22 22 24 24 25 25 24 24 21 22 25 26 28 29 30 30 31 33 34 35 36 37 39 41 43 44 45 46 48 48 49 50 51 52 54 55 57 58 59
15 16 17 19 21 22 23 25 26 27 27 26 26 25 23 25 25 28 30 30 31 32 33 34 36 38 40 42 44 46 48 49 50 51 52 53 53 54 56 57 58 59 60 61
16 16 17 19 22 24 26 28 29 29 28 27 26 25 25 27 27 28 30 31 31 32 32 34 36 39 41 44 46 48 50 51 52 53 54 55 56 57 58 59 60 61 62 63
17 19 21 22 24 26 28 30 32 32 30 29 28 27 26 31 32 32 32 32 32 32 33 34 36 38 40 43 45 47 49 51 52 54 55 56 57 58 59 60 61 62 62 62
20 21 23 24 26 28 29 31 33 35 35 33 30 28 26 31 34 35 36 36 35 34 34 35 36 38 40 42 44 46 48 50 52 53 54 56 57 58 59 60 62 62 62 62
23 23 23 25 27 29 30 31 34 36 38 37 35 32 26 31 36 39 40 39 38 37 37 38 39 40 41 42 43 45 47 49 50 52 53 54 56 57 58 60 60 61 61 62
26 26 25 26 28 30 32 33 35 37 40 43 42 37 33 36 37 39 40 40 39 40 40 41 41 42 42 43 44 45 46 48 49 51 53 54 55 56 58 59 60 60 62 63
28 28 27 28 29 31 33 34 36 39 41 44 47 45 37 38 39 44 45 44 44 43 43 43 43 43 43 44 45 46 47 48 49 51 52 52 54 55 57 58 60 62 63 63
31 32 31 31 32 34 35 36 37 40 42 44 48 48 38 41 46 50 50 48 48 47 47 47 46 46 46 46 47 48 48 49 49 50 51 52 53 55 57 59 62 63 63 64
35 35 36 36 35 37 38 38 39 41 44 46 49 49 44 46 50 52 52 51 51 51 51 51 50 50 49 49 49 49 49 49 49 50 50 51 53 56 58 60 62 63 63 63
38 38 38 39 38 40 41 40 40 42 44 47 48 48 45 48 52 52 51 52 52 52 53 53 52 52 51 51 50 50 50 50 50 51 52 53 55 57 59 60 61 62 62 62
40 40 40 40 39 40 41 39 39 41 43 46 45 46 47 49 50 50 50 50 51 51 52 52 52 51 51 50 50 50 51 51 52 52 53 55 56 58 59 60 60 60 60 59
39 39 38 36 35 37 37 34 36 38 39 40 41 42 43 45 47 47 48 49 49 49 49 49 49 50 50 51 51 51 52 53 53 54 55 56 57 57 57 57 56 55 55 54
32 33 34 32 32 32 30 31 33 34 35 37 39 41 43 43 43 44 45 46 47 46 46 47 48 49 50 51 52 52 53 53 54 55 55 55 55 54 53 52 51 51 51 49
27 28 31 32 32 31 30 31 33 35 35 36 38 40 41 42 42 43 44 45 46 47 47 48 49 50 51 52 53 53 52 52 52 52 52 51 50 49 49 48 48 48 48 48
27 29 32 33 34 33 30 34 36 37 37 39 41 42 42 43 44 46 47 48 49 50 51 51 52 52 53 53 53 52 51 51 51 50 49 49 48 47 47 47 47 47 47 48
27 29 31 33 36 37 36 38 40 41 43 44 45 45 46 48 49 49 50 51 51 52 53 53 53 54 54 54 53 52 51 51 51 50 50 49 48 48 48 48 48 48 48 48
30 31 33 35 38 39 40 42 45 47 49 50 51 51 52 53 54 55 56 56 56 56 56 56 56 56 56 56 55 54 52 52 51 50 50 49 49 49 49 49 50 50 50 50
33 35 37 39 41 42 44 47 49 51 53 54 55 56 57 58 59 59 60 61 61 61 60 60 59 58 58 57 56 54 53 52 51 50 50 50 50 51 51 51 51 51 51 51
37 38 41 44 45 47 50 52 53 55 57 58 59 60 62 63 64 64 64 65 65 64 64 63 61 60 58 58 57 55 53 52 51 51 51 52 52 52 52 53 53 53 53 54
41 43 47 50 49 52 54 56 57 59 60 62 63 65 66 67 67 68 68 68 68 67 66 64 62 60 58 57 56 56 54 53 52 53 53 53 53 53 54 54 54 54 55 55
46 50 54 55 55 57 59 60 62 63 65 66 67 68 69 70 70 70 70 70 69 67 65 63 61 59 57 57 56 55 55 54 54 54 53 53 53 54 54 54 54 55 55 55
50 56 59 60 60 62 63 65 67 68 69 70 70 71 71 71 71 71 71 70 68 66 63 61 59 58 57 56 56 56 56 55 54 53 53 53 53 53 53 53 53 54 54 54

GEFSCGP_500_meanwind_054.txt.gz
Wind_Speed
22 22 23 23 23 23 22 21 21 21 20 19 20 22 23 23 23 24 24 25 25 25 26 27 27 28 30 31 33 34 35 37 39 40 40 41 42 44 44 45 45 47 48 51
19 19 20 20 20 19 19 19 19 19 19 19 19 23 25 24 24 25 25 26 25 25 26 26 27 27 28 30 32 34 35 37 39 41 42 43 44 45 46 46 48 50 52 54
17 17 17 17 17 17 18 18 18 18 18 19 20 23 27 26 26 26 26 26 25 26 26 26 26 27 28 30 31 33 35 36 38 41 43 44 46 47 48 49 51 53 55 55
14 14 14 15 16 16 16 18 19 19 20 19 21 21 27 30 28 26 26 26 26 26 26 27 28 28 28 30 31 33 35 37 39 41 43 45 47 48 49 51 53 54 56 57
12 12 14 15 16 17 18 19 20 21 22 21 22 22 23 30 30 29 28 27 27 27 28 29 29 30 30 31 32 34 36 38 40 41 44 46 47 49 51 53 54 56 57 58
12 13 14 16 17 19 20 21 22 23 23 23 21 22 23 28 30 33 33 31 31 31 31 32 32 32 32 33 34 35 37 39 41 42 44 46 48 50 52 54 55 57 58 58
14 14 16 17 18 19 21 23 25 26 26 26 24 24 24 28 31 34 36 36 36 34 33 33 33 33 34 35 36 38 39 41 43 44 46 48 49 51 53 55 56 58 59 59
16 15 16 18 20 21 22 24 26 28 29 29 28 26 26 30 33 36 38 39 38 35 34 34 35 37 38 39 40 41 42 44 45 46 47 49 51 53 54 56 57 59 60 61
18 18 17 20 21 23 25 25 27 30 32 33 32 29 28 28 33 38 39 40 39 37 36 36 38 39 40 41 42 43 44 45 46 48 49 51 53 54 56 57 59 61 62 63
20 20 19 21 24 26 28 29 31 32 35 37 36 35 33 32 34 36 38 38 37 36 36 37 38 38 39 40 41 42 44 45 47 49 51 53 55 56 58 59 60 61 62 63
22 24 24 24 26 29 29 30 32 34 35 37 38 33 32 34 34 35 35 34 33 33 34 35 36 37 39 40 41 43 44 46 48 49 51 53 55 57 59 60 61 62 63 64
26 27 27 28 29 31 32 31 32 33 34 35 37 35 32 33 35 35 33 32 32 33 34 36 37 38 40 41 42 43 45 46 48 49 51 52 54 56 57 59 60 61 62 64
29 30 31 31 33 34 33 32 31 32 33 32 33 32 30 33 35 35 34 35 35 36 37 38 39 40 42 43 44 45 46 48 49 50 51 52 54 55 56 57 58 60 61 62
33 32 32 32 33 35 34 32 30 30 30 29 28 29 28 31 33 34 35 37 38 39 40 41 42 44 45 47 48 49 49 50 51 52 53 54 56 56 57 58 59 60 60 61
34 33 32 31 30 30 28 27 28 29 29 31 29 30 30 32 32 34 36 38 40 41 43 45 46 48 49 51 52 53 54 55 56 56 57 58 58 59 59 59 59 59 60 60
33 32 31 29 27 27 25 25 27 28 29 30 31 31 33 34 35 36 39 42 44 45 47 49 51 53 54 55 57 58 58 59 60 60 60 61 61 61 61 61 60 60 61 61
31 32 31 27 26 27 26 26 27 27 28 30 32 34 35 37 39 41 43 46 48 50 52 54 56 58 59 61 62 62 62 63 63 64 64 64 64 64 63 63 62 62 62 62
31 30 30 29 28 27 26 27 28 29 30 33 34 37 39 41 43 45 48 51 53 55 58 60 62 63 64 65 66 66 66 66 66 66 66 66 66 65 65 64 64 63 62 61
29 29 30 30 30 28 27 28 31 33 34 35 38 40 43 45 47 49 52 55 58 61 63 65 66 67 68 69 69 69 69 69 69 69 68 67 67 66 65 65 64 63 61 60
28 29 31 32 33 31 31 33 35 38 40 41 43 46 48 50 53 54 58 60 62 65 67 68 70 71 71 71 72 71 70 70 70 69 68 67 67 66 65 64 63 62 60 59
28 30 31 34 36 35 36 38 40 42 45 47 49 51 54 57 60 62 64 65 67 69 71 73 73 74 74 74 74 72 71 70 70 69 67 66 66 65 64 62 61 59 58 57
29 31 34 37 38 39 41 42 44 47 49 51 54 56 59 61 64 66 68 70 72 73 75 75 76 76 75 75 74 73 71 70 69 67 66 64 63 62 61 59 58 57 55 54
31 33 38 41 41 42 45 48 50 53 54 56 59 61 63 65 67 69 71 73 75 76 77 78 78 77 75 74 73 72 70 68 67 65 63 62 60 59 58 56 54 52 51 49
34 37 42 44 44 45 48 50 53 56 58 60 63 65 67 69 71 73 75 76 78 78 79 79 78 77 74 72 71 69 68 66 64 62 61 60 58 56 54 52 51 49 48 46
37 43 46 48 48 51 52 55 58 60 62 64 66 68 71 73 74 76 77 78 79 79 78 77 76 75 72 71 69 67 66 64 62 60 58 56 54 52 49 48 47 46 44 44
40 47 50 51 52 56 57 60 62 64 65 67 69 71 73 75 76 77 78 78 78 77 76 75 73 71 69 68 66 64 63 61 59 56 54 52 49 47 45 44 43 43 42 42

GEFSCGP_500_meanwind_060.txt.gz
Wind_Speed
17 18 18 18 18 18 18 17 17 18 16 16 17 17 17 17 17 18 18 18 18 18 18 19 19 21 22 24 25 26 28 30 32 34 35 36 37 38 39 40 42 44 46 49
16 16 16 16 16 16 16 16 16 16 15 14 15 17 16 16 17 18 18 19 19 19 19 20 21 22 23 25 26 27 29 30 32 34 35 36 37 38 39 41 42 44 47 49
14 15 14 14 14 14 14 14 13 13 14 15 15 17 17 16 17 17 18 19 20 20 21 22 23 25 26 27 28 29 30 32 33 34 36 37 38 39 41 43 45 46 48 50
13 13 12 12 12 12 12 13 12 11 12 14 16 19 19 17 17 17 18 20 20 21 23 24 26 28 29 30 31 31 32 33 34 35 37 38 39 41 43 45 46 48 50 52
13 12 12 12 12 12 12 13 12 11 12 14 16 19 21 20 19 19 20 21 22 23 25 27 28 29 30 31 32 32 33 34 35 36 38 39 41 42 44 46 48 51 53 55
13 12 12 12 12 12 13 14 14 13 14 15 16 19 22 23 23 23 23 24 24 24 25 27 28 29 30 31 32 33 34 34 36 37 38 40 42 43 45 47 49 51 53 56
13 13 13 13 13 14 14 15 16 16 16 17 19 20 23 25 26 26 26 26 25 25 25 26 28 29 29 30 31 31 32 33 34 35 36 38 40 41 43 45 47 49 51 54
14 14 14 14 15 15 16 17 19 20 20 20 22 23 25 25 26 27 26 25 25 25 25 25 26 27 28 28 29 29 30 31 33 34 36 37 39 40 42 44 46 48 50 52
16 15 16 16 17 17 18 19 21 24 25 25 24 24 26 27 27 25 24 24 23 23 23 24 26 27 27 28 29 30 31 33 35 37 38 40 42 44 45 47 49 51 53 54
18 17 17 18 19 20 21 22 24 26 28 28 26 25 27 26 25 24 23 22 22 22 23 25 26 27 28 29 31 32 34 36 38 40 42 44 46 48 50 52 54 56 57 58
20 19 18 20 21 22 24 25 26 28 29 31 29 25 25 25 24 23 22 22 22 23 25 26 27 29 31 33 35 36 38 40 42 44 47 49 51 53 55 57 59 60 62 63
22 22 20 22 23 25 26 27 28 30 31 30 29 24 24 24 24 23 23 23 24 26 27 29 30 32 35 37 39 41 43 45 47 50 52 54 57 59 60 62 63 65 66 66
24 24 23 24 26 28 28 29 30 30 30 28 26 22 25 25 25 24 24 25 27 29 30 32 34 37 39 41 43 46 48 51 53 56 58 60 62 64 65 67 68 69 69 70
26 25 25 26 29 30 30 29 29 31 30 27 24 23 24 26 25 26 27 28 30 33 34 37 39 41 44 46 49 51 54 56 59 61 64 66 68 69 70 71 72 73 74 74
28 28 28 28 30 32 30 29 30 31 30 29 25 25 23 25 26 28 30 32 34 36 39 41 44 46 48 51 54 57 59 61 64 66 69 70 72 74 75 76 77 77 78 77
31 31 31 30 31 33 31 30 31 31 31 30 27 25 25 26 28 31 33 35 38 40 43 46 48 51 54 57 59 62 64 67 70 72 74 75 77 78 79 79 80 79 78 77
32 34 34 33 31 33 31 31 31 31 30 29 27 27 28 29 32 34 37 39 42 45 48 50 53 56 59 62 65 67 70 72 74 77 78 80 81 81 82 82 80 79 78 76
33 34 36 35 33 32 31 30 30 29 28 28 28 29 31 33 36 38 41 44 47 50 52 56 59 61 64 67 70 72 74 76 78 80 82 83 83 83 82 81 79 77 75 73
34 35 36 36 35 31 29 30 29 29 29 29 31 32 34 37 40 42 46 48 51 54 57 60 63 66 68 71 73 75 77 79 82 83 84 84 83 82 80 78 76 74 72 69
34 35 37 37 35 32 30 30 30 32 32 31 33 36 38 41 44 46 49 52 55 58 61 64 67 70 72 74 77 79 81 83 84 84 84 83 81 80 77 75 72 69 67 65
34 36 36 36 37 34 32 32 32 33 35 35 37 39 42 45 48 51 54 57 60 63 65 68 71 73 75 78 80 82 83 85 85 84 82 80 77 75 73 69 66 64 62 60
34 35 35 36 37 36 35 34 35 36 38 39 41 44 46 49 52 55 58 61 64 67 69 72 74 76 78 80 82 84 84 84 83 81 78 75 72 69 66 63 60 59 57 55
34 34 35 35 36 38 37 37 38 39 42 43 45 48 51 54 57 60 62 65 68 70 72 74 76 78 79 81 83 84 83 82 79 76 72 68 65 62 60 59 56 54 53 52
33 33 35 36 36 39 40 40 41 43 45 47 50 52 55 58 61 64 67 69 71 73 75 77 79 80 80 81 82 81 80 77 74 70 66 62 60 57 55 54 53 51 50 48
32 34 37 38 38 41 42 43 45 47 49 51 54 57 60 63 66 68 70 72 73 75 77 78 80 81 81 81 79 77 74 71 67 63 60 57 56 54 52 50 49 48 46 46
32 37 39 39 39 42 43 45 48 50 52 55 58 61 64 67 69 71 72 73 75 76 78 79 80 79 79 77 74 70 67 65 62 59 56 54 52 51 49 47 45 44 44 44

GEFSCGP_500_meanwind_066.txt.gz
Wind_Speed
22 23 24 24 24 24 23 23 23 23 21 20 20 19 19 19 18 18 19 20 22 23 23 24 25 26 27 27 28 29 29 29 30 31 32 32 33 35 36 38 39 41 42 44
23 23 23 23 23 22 22 21 21 21 19 18 18 18 17 18 18 19 20 22 23 24 25 26 27 28 29 29 30 31 31 32 32 32 33 33 34 35 36 38 39 40 42 43
23 23 22 22 22 21 21 20 19 19 18 17 17 16 16 17 18 20 21 23 24 25 25 27 28 30 31 31 32 33 33 33 34 34 34 34 35 35 36 37 38 40 41 43
23 23 22 21 21 20 19 18 17 17 18 17 16 15 15 17 19 21 23 24 26 26 27 29 30 32 32 33 33 33 33 33 33 33 33 34 34 35 36 37 38 39 40 41
23 23 22 21 20 19 18 18 17 17 17 17 17 17 16 17 19 22 24 26 27 29 30 31 32 33 33 33 32 32 32 31 31 31 31 32 32 33 34 35 36 38 40 42
24 23 22 21 20 19 18 18 17 17 18 17 17 18 18 19 21 23 25 27 29 30 31 32 32 32 32 32 32 30 29 29 29 29 29 30 31 33 34 36 38 40 42 44
24 22 21 21 20 20 19 19 19 19 18 17 18 20 20 21 24 25 27 29 30 31 32 32 32 32 32 31 30 28 28 28 29 29 31 32 33 35 37 39 41 43 45 48
23 22 22 21 21 21 21 20 21 20 19 18 20 21 23 25 27 28 29 30 31 31 31 32 32 32 31 30 29 29 29 29 30 31 33 35 37 39 41 43 45 48 50 52
23 23 23 22 22 22 22 22 22 23 22 21 22 23 25 27 29 30 31 31 31 31 31 32 32 31 31 30 30 30 31 32 33 35 37 39 41 44 46 49 51 54 56 58
24 24 23 24 24 24 24 23 24 24 26 25 24 25 27 29 30 31 31 31 31 31 31 32 32 32 31 32 32 33 34 36 38 40 42 44 47 49 52 54 57 60 62 65
26 25 24 25 25 25 25 25 26 27 28 29 28 26 28 31 32 32 32 32 32 32 32 33 33 33 33 34 35 36 38 40 42 45 47 49 52 55 57 60 63 66 68 71
27 27 26 26 27 27 27 27 28 29 30 31 31 30 29 32 33 34 34 33 33 34 34 34 34 35 35 37 38 40 42 44 47 50 52 55 58 60 63 66 69 72 74 76
29 29 28 28 28 29 29 29 30 32 32 32 32 31 32 33 35 36 35 34 35 35 36 36 36 37 38 40 41 44 46 49 52 55 58 61 63 66 69 72 74 77 79 81
31 31 30 29 30 31 31 31 31 33 34 35 33 32 32 35 37 37 36 36 37 37 37 37 38 40 42 43 46 48 51 54 57 60 63 66 69 72 74 77 79 81 83 85
33 33 32 32 34 34 34 32 33 35 36 38 35 34 33 36 38 37 37 38 38 38 38 39 41 43 45 47 50 53 56 59 62 65 68 71 74 76 79 81 83 85 87 89
35 35 34 34 35 37 36 33 35 36 38 39 39 37 36 36 37 38 38 39 39 39 41 42 44 46 49 52 54 57 60 64 67 70 72 75 78 80 82 84 86 88 90 92
36 36 37 36 36 38 37 34 36 38 39 40 40 39 37 36 37 38 38 39 41 42 44 45 47 50 53 56 58 61 65 68 71 74 77 79 81 83 85 87 89 91 92 92
37 37 39 40 39 40 38 37 37 39 39 39 39 39 38 37 38 39 40 41 43 45 46 48 51 53 56 59 63 66 69 72 75 78 80 82 84 86 88 89 91 91 91 89
39 39 41 43 43 43 39 39 39 40 39 38 39 39 39 39 40 41 42 43 45 47 49 51 54 57 60 63 66 69 72 75 78 80 82 84 86 88 89 90 90 89 87 83
40 41 43 44 45 45 40 39 40 40 40 37 38 39 40 40 41 42 43 45 47 50 52 54 57 60 64 67 70 73 76 78 80 82 84 86 88 90 90 89 87 84 80 75
41 42 43 44 46 45 42 41 41 41 40 39 39 39 39 41 42 43 45 48 50 52 55 58 61 64 67 71 73 76 78 80 82 84 86 87 89 89 88 86 82 77 72 68
42 43 44 44 45 45 44 43 43 42 42 41 40 40 41 42 44 46 48 50 53 55 58 61 64 67 70 73 76 78 80 82 83 85 87 87 87 86 83 79 74 69 65 61
44 44 45 44 45 45 45 45 44 43 42 41 42 42 43 44 46 48 50 53 55 58 61 64 67 70 73 76 78 80 82 83 85 86 87 86 85 81 77 72 67 63 60 57
45 45 45 45 44 45 45 45 44 43 42 42 43 44 45 47 49 50 53 56 58 62 65 68 70 73 75 77 79 82 83 85 86 86 86 84 81 75 70 65 62 59 56 54
46 45 44 44 44 45 44 44 43 43 43 44 45 46 48 49 51 53 56 59 62 65 68 70 73 75 77 79 81 82 84 86 86 85 83 79 74 69 63 59 56 55 53 52
43 44 44 44 43 43 43 43 43 43 44 45 47 48 50 52 54 57 60 63 66 68 71 73 75 77 78 80 82 83 85 86 86 83 78 73 68 63 58 55 51 50 50 49

GEFSCGP_500_meanwind_072.txt.gz
Wind_Speed
25 23 23 22 21 22 21 22 22 22 21 21 21 21 21 20 19 19 19 19 19 19 19 19 20 21 22 23 24 25 26 27 28 29 30 31 31 32 33 33 34 34 34 35
25 24 23 23 22 22 22 22 22 22 21 20 20 20 20 19 19 18 18 18 19 19 20 21 22 23 24 26 27 28 29 29 30 31 31 32 32 32 32 32 32 33 33 34
26 25 24 23 23 22 22 22 21 21 20 19 19 19 19 19 19 18 18 19 19 20 21 22 24 25 26 28 29 30 30 30 31 31 31 31 30 30 30 30 31 31 32 33
26 25 24 24 23 23 22 21 21 21 20 18 18 18 19 19 19 19 19 19 20 21 23 24 26 27 28 30 30 31 30 30 31 31 30 29 29 29 29 29 30 30 31 33
26 25 24 23 23 23 22 21 21 20 19 18 18 19 17 19 19 19 20 20 21 23 25 26 28 29 30 31 31 31 31 30 30 30 29 28 28 28 29 30 31 32 34 36
27 26 25 24 23 22 21 21 21 20 19 18 18 19 18 18 19 20 21 22 23 24 26 28 29 30 31 32 31 31 30 30 29 29 28 29 29 30 31 32 34 35 37 40
27 26 25 24 23 22 21 21 20 20 19 19 19 19 19 19 20 21 22 23 24 26 28 29 30 31 32 31 31 30 30 29 29 29 29 30 31 32 34 36 37 40 42 45
26 25 24 23 23 22 21 21 21 21 20 19 19 20 20 20 21 22 24 25 26 28 29 31 31 32 31 31 31 30 30 29 30 31 32 33 34 36 37 40 42 44 47 50
26 26 24 23 22 22 21 21 21 22 21 21 20 20 20 21 23 24 25 26 28 29 31 32 32 32 32 32 32 31 31 31 32 34 35 36 37 39 42 44 46 49 52 54
26 25 24 23 22 22 22 21 21 22 23 22 21 21 22 23 25 26 27 28 29 31 32 33 34 34 34 34 33 33 33 33 35 36 37 39 41 43 46 48 51 54 56 59
24 24 23 22 22 22 22 22 23 24 24 24 24 22 23 25 26 28 29 30 31 33 34 35 36 36 35 35 35 35 35 36 37 39 41 43 45 48 50 53 56 58 61 64
23 23 23 22 23 23 23 23 24 25 25 26 26 24 25 27 29 30 31 32 34 35 37 37 38 37 36 36 37 37 37 38 39 41 44 46 49 51 54 57 60 63 66 69
24 24 23 24 24 24 24 24 25 26 27 27 27 26 27 29 32 33 34 35 36 37 38 39 39 38 38 38 38 39 39 41 43 45 48 50 53 55 58 61 64 67 70 73
26 25 25 25 26 25 25 25 26 28 29 30 29 28 29 33 35 36 37 38 39 40 40 40 40 40 39 40 40 41 42 44 46 49 51 54 56 59 62 65 68 71 74 77
28 27 26 27 27 27 27 27 28 29 30 32 31 31 32 36 37 38 39 39 40 41 41 41 41 41 41 41 42 44 45 47 49 52 54 57 60 63 66 69 72 75 78 80
30 29 29 29 29 30 30 28 30 31 32 34 35 34 35 37 38 39 40 40 41 41 42 42 42 42 43 43 45 46 48 50 53 55 57 60 63 66 69 72 75 78 80 83
31 31 31 31 31 34 33 30 32 34 34 36 37 37 38 39 39 39 40 41 41 42 42 43 43 44 44 45 46 48 51 53 55 58 61 64 67 70 73 76 78 81 83 85
32 32 34 34 34 37 35 33 34 36 36 37 39 40 40 41 41 40 40 41 42 42 43 43 44 45 46 47 49 51 53 55 58 61 64 67 70 73 76 78 81 83 85 87
33 34 35 37 38 39 36 35 36 38 38 38 40 41 41 41 41 41 41 41 42 43 43 44 44 46 47 49 51 53 55 58 61 64 67 70 73 76 78 80 83 85 87 88
34 35 37 39 41 42 38 37 38 39 39 38 39 40 40 40 41 41 42 42 43 43 43 44 45 47 49 51 53 55 58 61 64 67 70 73 76 78 80 83 85 86 88 88
36 37 39 40 42 42 40 39 39 40 41 39 39 39 39 40 41 42 42 43 43 43 44 45 47 49 51 53 55 58 60 64 67 69 72 75 77 80 82 84 86 87 88 87
37 39 40 41 42 43 42 42 42 42 41 40 40 40 40 41 41 42 43 43 44 44 45 46 48 50 53 55 58 60 63 67 69 72 74 76 79 81 83 85 85 86 86 84
39 39 40 41 42 42 43 43 43 42 43 42 42 42 41 42 42 42 42 43 44 45 46 48 50 52 55 58 61 64 66 69 71 73 76 78 80 82 83 84 85 84 82 79
40 40 41 41 41 42 43 43 43 43 43 43 43 43 43 42 42 42 42 43 45 46 48 50 52 54 57 60 63 66 69 71 73 75 78 80 81 82 83 83 83 81 77 72
39 39 40 40 41 42 42 43 44 45 44 44 43 43 43 42 42 43 44 45 46 48 50 52 55 58 60 63 65 68 71 73 76 78 80 81 82 82 82 81 79 76 70 66
38 39 40 40 41 43 44 45 45 45 44 43 43 43 43 43 43 44 45 47 49 50 53 55 58 61 63 66 68 70 73 76 78 80 81 82 82 82 81 78 74 68 63 58

GEFSCGP_500_meanwind_078.txt.gz
Wind_Speed
30 29 28 28 27 26 26 25 24 25 23 23 23 23 22 21 22 22 22 22 21 21 21 20 20 20 20 21 21 22 24 25 27 28 29 30 30 31 31 32 33 33 33 33
32 30 30 29 27 26 25 25 24 25 24 24 24 23 22 21 21 21 21 21 20 21 20 20 20 20 21 21 23 24 25 27 28 29 30 30 31 31 32 32 32 32 32 32
34 32 30 29 28 27 26 25 25 25 25 25 25 23 22 21 21 21 21 20 20 20 20 19 20 20 21 22 24 25 27 28 29 30 31 31 31 32 32 32 32 31 31 31
35 33 30 29 28 28 26 25 25 25 26 24 25 24 21 20 21 21 20 20 20 20 20 20 21 21 22 24 25 27 28 29 31 31 32 32 32 32 32 32 31 31 31 32
35 34 32 30 28 28 26 25 26 25 26 25 24 26 21 19 20 21 20 20 20 20 20 21 22 23 24 25 27 28 29 31 32 32 33 33 33 33 33 32 33 33 34 35
35 34 32 31 29 29 27 26 25 26 27 26 22 26 23 18 18 20 20 20 21 21 22 22 23 24 25 26 28 29 31 32 33 33 34 34 35 34 34 34 35 36 37 38
34 33 32 31 29 28 26 26 26 26 26 25 22 24 23 20 20 20 20 21 22 22 23 24 24 26 27 28 29 31 32 33 34 35 35 36 36 36 37 37 38 39 40 41
35 34 32 30 29 28 27 27 26 26 25 26 22 22 20 21 22 22 21 22 23 24 25 26 27 28 29 30 31 32 34 35 36 36 37 37 37 38 39 40 40 41 43 44
33 34 32 30 29 28 27 26 26 26 25 25 24 22 20 20 23 24 23 24 25 26 27 28 29 30 31 32 33 35 36 37 38 38 38 39 39 40 40 41 43 44 46 47
33 34 32 31 30 28 27 26 25 26 25 25 23 23 22 19 23 25 25 26 27 28 29 30 31 32 33 35 37 38 39 39 40 40 40 40 41 42 43 43 45 46 48 50
32 33 31 30 28 27 27 25 25 26 25 25 24 24 23 21 23 25 27 28 28 29 30 32 33 35 36 38 39 40 41 41 41 41 42 42 43 44 45 46 47 49 50 52
30 31 31 29 28 28 26 25 25 25 25 25 25 24 23 24 26 27 28 30 30 31 32 34 36 38 39 40 41 42 43 43 43 43 44 44 45 46 47 48 50 51 53 55
28 29 29 28 27 28 26 25 25 25 26 25 25 25 24 26 28 29 30 30 32 33 35 36 38 40 41 42 43 43 44 44 44 45 45 46 47 48 49 50 52 54 56 58
28 28 27 26 28 26 25 24 25 26 26 26 25 25 26 30 31 31 31 32 34 36 37 39 40 41 43 44 44 44 45 45 46 46 47 47 48 49 51 53 54 56 58 60
28 27 26 27 28 26 25 25 26 27 26 28 26 26 27 32 34 34 35 35 36 38 39 41 42 43 44 45 45 45 46 47 47 48 49 49 50 51 53 55 57 59 61 63
29 29 29 29 28 28 27 26 26 27 27 29 29 28 30 33 35 37 38 39 39 40 41 42 44 45 45 45 46 46 47 48 48 49 50 51 52 54 56 58 60 61 63 66
31 30 30 30 30 30 29 26 28 28 29 31 32 31 33 35 36 38 39 41 42 43 43 44 44 45 45 45 46 47 48 49 50 51 52 53 55 56 58 60 62 64 66 69
31 31 31 31 31 33 28 28 28 30 31 32 33 34 36 37 38 39 40 42 43 44 44 44 44 45 45 46 47 48 49 50 51 52 53 55 57 58 60 62 64 67 70 72
32 32 33 33 33 32 30 29 29 31 32 32 34 36 38 38 39 40 41 42 43 43 44 44 45 45 46 47 47 48 49 50 52 53 55 57 58 60 62 65 67 70 73 75
32 33 34 34 35 35 32 31 31 33 34 32 34 37 38 39 41 41 42 43 43 43 44 45 45 46 47 47 48 49 50 51 53 55 56 58 60 63 66 68 70 73 75 77
32 33 34 35 37 36 34 33 33 35 35 36 37 38 39 40 41 42 42 43 43 44 45 45 46 47 48 48 49 49 51 52 54 56 58 60 63 66 68 71 73 75 77 79
32 34 35 35 37 36 33 35 36 37 38 39 39 39 40 40 41 42 43 44 45 45 46 47 47 48 48 49 50 51 53 55 56 58 60 63 66 68 71 73 75 77 79 81
33 33 34 35 36 36 36 37 38 39 40 40 40 41 41 42 42 43 44 45 46 47 47 47 48 48 49 50 51 53 55 56 58 60 63 65 68 70 73 75 78 79 81 83
33 33 34 34 35 36 37 38 40 40 41 41 42 42 43 43 44 44 45 46 46 47 47 47 48 49 50 51 53 55 56 58 61 63 66 68 71 73 75 77 80 81 83 83
34 33 33 34 35 37 37 39 40 41 42 42 42 43 44 44 45 45 46 46 46 46 47 48 49 50 51 52 54 56 59 61 63 66 68 71 73 76 78 79 81 82 83 83
34 33 33 35 36 37 38 39 40 41 42 42 43 44 44 45 45 46 46 46 47 47 48 49 50 51 52 54 56 59 61 64 66 69 71 74 76 78 80 81 82 81 81 79

GEFSCGP_500_meanwind_084.txt.gz
Wind_Speed
35 34 34 35 35 34 34 33 32 32 31 30 29 28 29 28 27 27 26 26 26 26 25 25 24 24 24 24 24 24 25 25 26 27 28 28 30 31 32 32 32 33 33 34
35 33 33 35 35 34 34 33 33 34 34 32 30 28 29 29 28 28 26 26 26 26 26 25 25 24 24 25 25 25 25 26 27 27 28 29 30 31 32 33 33 34 34 35
33 32 34 35 34 33 32 33 33 34 35 34 32 29 28 29 29 28 27 26 26 26 26 25 25 24 24 25 25 26 26 27 27 28 29 30 31 32 33 34 34 35 35 36
34 32 34 33 33 33 32 33 35 36 36 34 33 30 26 28 28 28 28 27 26 26 26 25 25 25 25 25 26 26 27 28 29 30 30 31 32 33 34 35 35 36 37 38
32 31 33 33 33 33 33 34 36 36 36 34 32 34 26 28 28 29 28 26 26 25 25 25 24 25 25 25 26 27 28 29 30 31 32 33 34 35 36 37 38 38 39 39
32 32 33 33 34 35 34 35 37 37 37 35 32 34 28 26 28 28 27 26 25 25 25 24 24 24 25 26 27 28 29 30 31 33 34 35 36 37 38 39 39 40 40 41
32 33 33 33 34 35 35 35 37 37 37 35 33 33 28 26 27 27 27 26 25 25 24 24 24 25 26 27 28 29 30 32 33 35 36 37 38 40 41 41 41 41 42 42
33 33 33 33 33 35 35 36 36 37 37 35 33 32 27 25 26 26 26 25 24 24 24 24 25 26 27 28 29 31 32 33 35 37 38 40 41 42 42 43 43 44 44 44
32 32 32 32 33 34 34 34 34 37 37 35 33 31 28 26 25 26 25 25 24 24 24 25 26 27 28 29 30 32 33 35 37 38 40 41 43 44 45 45 45 45 46 46
31 31 31 31 32 33 33 33 34 35 36 35 33 30 29 26 25 25 25 25 24 24 25 25 27 28 29 31 32 34 35 37 39 40 42 43 45 46 46 47 47 47 48 48
31 32 30 31 30 31 33 33 34 35 35 34 32 28 26 26 26 25 25 24 24 25 25 26 28 29 31 32 34 35 37 39 41 43 44 46 47 47 48 48 48 49 49 50
30 30 30 30 31 33 34 33 33 34 34 34 32 28 26 27 27 26 25 24 25 26 27 28 29 30 32 33 35 37 39 41 43 45 46 47 48 49 49 49 50 51 51 52
29 30 29 30 31 32 32 31 32 33 34 33 32 27 25 27 28 28 27 27 27 27 28 29 30 31 33 35 38 40 42 44 45 46 47 48 49 50 50 51 52 53 53 54
29 29 28 28 27 29 30 31 32 33 33 31 29 26 26 28 28 28 29 29 29 29 30 31 32 34 36 38 40 42 44 45 47 48 49 49 50 51 52 53 54 55 55 56
28 27 26 27 28 29 29 30 30 31 30 30 27 27 27 29 30 30 30 31 31 32 33 34 35 37 39 40 42 43 45 46 47 48 49 50 52 53 54 55 56 56 57 58
27 26 26 27 27 28 30 29 29 30 30 30 30 28 28 31 31 31 32 33 34 35 36 37 39 40 41 42 43 45 46 47 48 49 50 51 52 54 55 56 57 57 58 58
27 27 27 28 28 30 31 28 29 30 30 31 31 28 29 31 31 32 34 35 37 38 39 40 41 42 44 44 45 46 47 48 49 50 51 52 53 54 55 56 57 58 58 59
29 29 29 29 30 33 28 27 29 30 29 29 29 29 30 31 33 34 36 37 39 40 41 42 43 44 44 45 46 46 47 48 49 51 52 53 54 55 56 57 57 58 59 61
30 30 31 32 33 32 29 28 28 29 30 29 29 30 31 33 35 35 37 38 40 41 42 43 44 44 45 45 46 47 48 49 51 52 52 53 54 55 56 57 58 59 60 62
31 31 33 33 33 33 28 28 29 31 30 28 30 32 34 35 36 36 38 39 41 42 43 44 44 45 45 46 47 48 49 50 51 51 52 53 54 55 56 57 59 61 63 65
29 30 32 32 33 32 27 28 29 31 28 29 32 33 35 36 36 37 39 40 42 43 44 44 44 44 45 46 47 48 49 50 50 50 51 53 54 56 57 59 61 63 66 68
29 30 31 32 33 29 27 29 30 30 30 32 33 34 35 36 37 38 40 41 42 42 42 43 43 44 45 46 47 48 49 49 50 51 52 54 56 57 59 61 64 66 69 71
29 30 31 32 31 30 30 31 31 32 33 33 34 35 36 37 38 39 39 40 40 41 42 43 44 44 45 46 47 48 48 49 50 52 53 55 57 59 62 64 67 69 72 76
30 31 32 32 31 31 31 32 33 33 34 35 36 37 37 38 38 38 39 40 40 41 42 43 44 45 45 46 47 48 50 51 52 53 55 57 59 62 64 67 70 74 77 80
30 31 31 31 31 31 32 33 34 35 36 37 37 38 38 38 38 39 39 40 41 42 43 44 44 45 46 46 48 49 50 51 53 55 57 60 62 65 68 71 74 78 81 84
29 30 30 31 31 33 33 34 35 36 37 37 38 38 38 39 39 39 40 41 42 43 43 44 44 45 46 47 48 50 51 53 55 58 60 63 66 69 72 75 78 80 83 84

GEFSCGP_500_meanwind_090.txt.gz
Wind_Speed
36 36 34 34 36 37 37 36 34 34 36 36 35 32 31 33 31 30 31 32 32 32 31 31 31 31 31 31 31 31 31 31 31 31 31 31 31 31 32 32 33 34 35 35
37 34 33 36 37 37 37 36 35 36 38 38 37 33 31 32 33 32 32 33 33 33 33 32 32 31 32 31 31 31 32 32 32 32 33 33 33 32 33 34 35 36 37 37
36 33 35 36 36 36 35 35 36 37 38 39 38 34 31 32 34 34 33 34 34 34 33 32 32 32 32 32 32 32 32 32 32 33 34 34 34 34 35 36 37 38 39 40
38 35 36 36 35 35 35 35 37 38 39 39 39 37 29 31 33 34 34 34 33 33 33 33 33 33 32 32 32 32 32 33 33 34 34 35 35 36 37 38 39 40 41 41
37 35 36 36 34 35 35 36 37 37 38 38 36 39 32 31 33 35 35 34 33 33 33 33 33 33 32 32 32 33 33 33 34 34 35 36 37 37 38 39 40 41 42 43
38 36 36 35 35 36 36 36 37 38 39 39 35 38 36 31 32 33 34 34 33 33 33 33 33 33 33 33 33 33 33 34 35 35 36 37 38 39 40 41 42 43 44 45
36 35 34 34 34 35 36 36 38 39 39 39 37 37 36 33 32 32 33 33 33 33 33 33 32 32 33 33 33 33 34 35 35 36 37 38 39 40 41 42 43 45 46 47
36 35 34 34 33 34 36 37 38 39 39 38 37 37 34 33 32 33 33 33 33 32 32 32 32 32 32 33 33 33 34 35 36 36 37 39 40 41 42 44 45 46 48 49
35 35 34 34 34 36 37 37 37 39 40 40 38 35 32 30 31 32 32 31 31 31 31 31 31 31 32 32 33 34 34 35 36 38 39 40 41 42 44 45 47 48 49 50
36 37 36 36 37 37 37 36 36 38 40 39 37 34 31 29 29 30 30 31 31 31 31 31 31 31 31 32 33 34 34 36 37 39 40 41 42 44 45 47 48 49 50 51
36 37 36 36 36 36 37 37 37 38 40 39 38 33 30 28 28 28 29 30 30 31 31 31 31 31 32 32 33 34 35 36 38 39 41 42 43 45 47 48 49 50 51 52
35 37 37 35 36 36 36 36 36 38 38 39 39 34 29 29 29 29 30 30 31 30 31 31 31 32 32 33 34 35 36 37 39 40 42 44 45 47 48 49 50 51 51 52
35 37 36 35 34 33 34 34 35 36 38 38 37 33 28 29 30 30 31 31 31 31 31 31 32 32 33 34 35 36 37 39 40 42 43 45 46 48 49 49 50 50 51 52
35 35 33 31 30 31 32 32 33 35 36 35 33 30 27 29 31 32 32 31 31 31 32 33 33 34 34 35 37 38 39 40 42 43 44 46 47 48 48 49 50 51 52 53
34 33 31 29 30 30 31 31 32 33 33 33 30 29 27 30 33 34 33 32 32 33 33 34 34 35 35 37 38 39 40 41 42 44 45 46 47 48 49 50 51 51 52 54
33 32 30 30 30 30 32 31 31 31 31 31 31 29 27 30 32 33 33 34 34 34 35 35 35 36 37 37 39 40 41 42 44 45 46 47 48 48 49 50 51 52 53 54
34 32 31 30 30 32 33 28 29 29 29 30 31 28 29 31 33 34 35 35 35 35 35 35 36 36 37 38 40 41 43 44 45 46 46 47 48 49 50 51 52 52 53 54
35 33 33 32 32 34 28 26 27 28 28 29 30 29 30 32 34 34 35 35 35 35 35 35 36 37 39 40 41 43 44 45 45 46 46 47 48 49 50 51 52 53 54 55
36 35 34 33 33 32 28 25 26 29 29 28 29 30 32 34 34 34 34 35 35 36 36 37 38 39 40 41 42 43 44 45 45 46 47 48 49 49 50 51 53 53 55 56
37 36 35 34 33 32 26 25 27 29 29 26 29 30 31 32 33 33 33 34 35 36 37 38 39 40 41 42 43 44 44 45 45 46 47 48 49 50 51 52 53 54 56 58
37 36 35 33 32 30 26 26 27 29 27 27 29 30 31 31 32 32 33 35 35 36 37 39 40 41 42 43 43 44 44 45 45 46 47 48 49 50 51 53 54 56 58 61
35 35 34 33 34 29 27 28 28 28 28 29 29 30 30 31 32 33 34 35 36 37 38 39 40 41 42 43 43 44 44 44 45 45 47 48 49 51 52 54 56 59 62 64
34 34 33 34 32 30 29 29 29 29 29 30 30 30 31 31 32 33 34 35 36 38 39 40 41 41 42 42 43 43 43 44 45 46 47 48 50 52 54 57 59 62 65 68
35 35 35 34 32 31 31 31 31 31 31 31 30 30 31 32 32 33 34 35 37 38 39 39 40 41 41 42 42 42 43 44 45 46 48 50 52 54 57 59 62 66 69 72
35 35 35 34 32 32 32 32 32 32 32 32 32 32 32 33 33 34 35 36 37 38 38 39 39 40 41 41 42 42 43 45 46 48 50 52 54 57 60 63 66 69 72 75
36 35 34 33 32 33 32 32 33 32 33 33 33 33 33 34 34 35 36 36 37 37 38 38 39 40 40 41 42 43 44 46 48 50 52 55 57 60 63 66 69 71 74 77

GEFSCGP_500_meanwind_096.txt.gz
Wind_Speed
39 39 37 36 37 37 37 37 36 36 38 38 37 34 33 35 35 34 34 34 34 33 33 32 32 31 31 31 31 31 31 31 31 32 32 32 33 33 33 33 33 33 34 34
41 39 36 37 38 38 37 36 36 37 39 40 38 35 33 35 35 35 35 35 35 34 34 33 33 32 32 32 32 32 32 32 32 32 33 33 33 33 33 34 34 34 35 35
40 38 38 39 38 38 37 36 36 38 40 41 40 36 33 35 36 36 36 35 35 35 35 35 33 33 32 32 32 32 33 33 33 33 33 33 33 34 34 34 34 35 36 36
42 40 39 39 39 38 37 36 37 38 39 40 39 38 32 33 35 36 35 35 35 35 35 35 34 34 34 33 33 33 33 33 33 33 33 33 34 34 35 35 35 36 36 37
43 40 38 38 37 37 36 36 37 37 38 39 37 38 32 31 33 34 35 35 35 35 35 35 35 35 34 34 33 33 33 33 33 33 33 33 34 34 35 35 36 36 37 38
44 41 40 38 37 37 36 36 37 37 38 38 35 37 35 31 32 33 35 35 35 35 36 36 36 36 35 34 33 33 33 33 33 33 33 34 34 34 35 36 37 37 38 39
44 41 39 37 37 36 36 35 37 38 38 39 36 36 35 32 32 32 33 34 35 35 36 36 35 35 34 33 33 33 33 33 33 33 33 34 34 35 35 36 37 38 39 40
41 40 38 36 35 35 35 36 36 37 38 38 36 35 32 31 31 32 32 33 33 34 34 35 34 34 33 32 32 32 31 32 32 32 33 34 35 35 35 36 38 39 40 42
39 39 37 36 35 36 37 36 35 38 39 38 37 34 31 30 31 31 32 32 32 33 33 33 32 32 32 31 31 31 31 31 32 32 33 34 34 35 36 37 39 40 41 43
38 39 37 36 37 37 37 36 36 37 38 38 37 33 30 29 29 30 31 31 31 32 31 31 31 31 30 30 31 31 31 31 32 32 32 33 34 35 37 39 40 42 43 45
39 39 38 38 38 36 37 37 37 37 38 37 36 33 29 28 29 29 30 30 30 30 29 29 29 29 30 30 30 30 30 30 31 32 33 34 35 37 39 40 42 44 45 46
38 39 39 38 38 37 38 37 36 37 36 36 36 34 29 28 29 29 29 30 30 29 29 29 29 29 30 29 29 30 30 31 32 33 34 35 36 38 40 42 43 44 45 46
38 41 41 40 39 38 37 35 35 35 36 36 35 32 29 28 29 29 29 29 29 29 29 28 29 29 29 29 29 30 31 32 33 34 35 36 37 39 41 42 43 45 46 46
39 41 41 38 36 34 34 34 34 36 37 35 33 30 29 29 29 29 29 28 28 28 28 28 28 28 29 30 31 32 33 33 34 35 36 37 38 40 41 43 44 45 46 47
40 40 39 37 36 35 34 34 34 35 34 33 30 30 28 28 29 29 28 28 28 28 27 28 28 29 30 31 32 32 33 34 35 36 37 38 39 41 43 44 45 46 46 47
39 39 38 37 36 35 35 34 33 33 32 31 31 29 27 29 29 29 29 28 28 28 28 28 29 30 31 32 32 33 33 34 35 36 38 39 41 42 43 44 45 46 47 48
38 37 37 36 35 37 37 32 32 31 30 30 30 26 27 28 29 28 28 28 27 27 28 28 29 30 31 31 32 33 34 36 36 37 39 40 41 42 43 44 45 46 47 48
40 39 39 38 37 39 32 29 30 29 29 29 29 27 28 28 28 28 28 28 28 28 29 29 29 30 31 32 32 34 35 36 37 38 39 40 41 42 43 44 45 46 47 48
42 41 40 39 39 38 33 28 28 29 28 28 28 27 27 28 27 27 27 27 27 28 29 29 30 30 31 32 33 34 35 37 37 38 39 40 41 42 43 44 45 46 47 48
44 42 41 40 39 37 31 29 29 30 29 27 27 27 27 27 27 25 27 27 27 28 29 29 30 31 32 33 33 35 36 36 37 38 39 40 41 42 43 44 45 47 48 49
43 42 40 38 38 36 32 29 30 30 27 26 27 26 27 26 26 26 27 27 28 28 29 29 30 30 31 33 34 35 36 36 38 38 39 40 41 42 44 45 46 48 49 51
41 40 39 38 38 34 31 31 30 29 28 27 27 26 26 26 26 26 27 27 27 28 28 29 29 30 32 33 34 35 36 37 38 39 40 41 42 43 44 45 47 49 51 53
40 39 37 36 33 31 31 30 30 29 28 27 27 26 26 26 26 26 27 27 28 28 28 29 30 32 33 34 35 36 37 38 38 39 40 41 42 43 44 46 48 51 53 56
37 37 37 36 34 32 31 30 30 30 29 28 27 27 26 26 26 27 27 28 28 29 30 31 32 33 34 35 36 37 37 38 38 39 40 41 42 44 46 49 51 54 57 59
35 36 37 36 33 33 32 31 31 31 29 28 28 27 27 27 27 27 28 28 29 30 31 32 33 34 35 36 36 37 37 38 39 40 41 42 44 46 49 51 54 57 59 63
36 35 35 33 32 33 32 32 32 31 30 29 29 28 28 27 27 28 29 29 30 31 32 33 34 34 35 36 36 37 38 38 39 41 43 45 47 49 52 55 57 60 63 65

GEFSCGP_500_meanwind_102.txt.gz
Wind_Speed
45 44 43 40 40 39 39 39 39 40 40 39 39 37 36 37 37 36 35 35 35 35 35 35 35 35 35 36 36 36 36 36 36 35 35 35 35 35 35 35 35 35 35 36
47 45 41 40 40 40 39 39 39 40 40 39 39 38 37 38 38 37 37 37 37 37 38 37 37 37 36 37 37 37 37 37 37 36 36 36 36 36 36 36 36 36 36 36
46 43 41 41 40 39 39 38 38 39 40 40 40 38 37 37 37 37 37 37 38 38 38 38 37 37 37 37 37 38 37 37 37 37 37 37 37 37 37 36 36 36 36 36
47 45 44 43 41 40 39 38 38 38 39 39 40 40 36 37 37 37 37 37 37 37 37 38 38 37 38 38 38 38 37 37 37 38 38 38 38 37 37 37 37 37 36 37
47 45 44 43 41 40 39 38 38 39 40 40 39 42 37 36 37 37 38 37 37 37 38 39 39 38 37 37 37 38 38 37 38 38 38 38 37 37 37 36 36 36 37 37
47 46 45 43 41 41 39 38 39 40 40 42 38 41 40 36 36 37 37 37 37 37 38 38 38 37 37 37 37 37 38 38 38 38 38 37 37 37 36 36 36 37 37 37
49 49 47 44 43 42 40 39 39 40 40 41 38 39 39 35 34 35 36 36 36 37 37 37 37 37 37 37 37 37 38 37 37 37 37 37 37 37 36 36 37 36 37 38
50 49 46 44 43 41 39 39 38 38 39 39 39 39 36 34 33 33 34 35 35 35 35 35 35 36 36 36 36 37 36 36 36 36 36 36 36 36 36 36 36 36 37 38
48 47 45 43 42 41 40 39 37 38 39 40 40 39 36 33 32 31 32 33 33 34 34 34 34 35 35 35 35 35 35 34 35 35 35 35 35 35 35 35 36 37 37 38
46 46 46 44 43 43 41 39 39 40 40 40 40 37 36 34 31 30 31 32 32 33 33 33 33 34 34 34 33 34 33 33 34 34 34 34 34 34 35 36 36 37 37 39
47 48 47 45 43 42 41 41 41 41 42 41 40 38 36 34 31 30 30 30 31 31 31 31 31 31 31 31 31 32 32 32 32 32 33 33 33 34 35 36 36 37 38 40
46 47 48 45 41 41 42 41 41 42 41 40 40 38 35 34 32 30 30 29 29 29 29 29 29 29 29 29 30 30 31 31 31 32 32 33 33 34 35 36 37 38 39 40
46 48 49 48 46 44 43 42 42 41 40 40 40 38 34 33 32 31 30 29 28 27 27 27 28 28 28 29 29 30 30 31 31 32 33 33 34 35 36 36 37 39 40 41
45 48 49 48 44 41 42 41 41 41 42 40 38 35 34 33 32 31 30 28 27 26 26 27 27 27 28 29 29 29 30 31 31 32 32 33 34 35 36 37 38 40 41 42
47 47 46 45 44 43 41 40 41 42 40 39 36 35 32 32 33 32 30 28 26 26 26 27 27 28 28 28 29 29 30 30 31 32 32 33 34 35 36 37 39 41 42 43
48 47 45 45 45 45 43 41 40 40 39 37 35 33 29 31 33 32 30 28 27 27 27 27 28 28 28 28 29 29 30 30 31 32 33 34 34 35 37 38 40 41 42 44
46 45 45 44 43 44 45 40 38 37 36 36 35 29 29 32 32 31 29 28 28 28 27 27 27 27 28 28 29 29 30 30 31 32 32 33 34 36 37 38 40 41 43 43
43 43 43 44 44 46 41 38 37 36 34 34 33 30 31 31 30 29 28 28 27 27 27 27 26 27 27 28 28 29 30 30 31 32 33 34 35 37 38 39 41 42 42 43
45 44 44 45 46 44 40 37 36 35 33 31 31 30 29 30 29 28 27 27 26 26 26 26 26 27 27 28 28 29 30 31 32 33 34 35 36 37 38 40 41 42 43 44
46 45 45 46 46 45 39 36 34 34 33 29 30 29 29 30 29 26 27 26 26 26 26 26 26 27 27 27 28 29 30 31 33 33 34 35 36 38 39 40 41 42 44 45
48 46 46 45 44 41 38 35 33 34 29 28 29 29 29 29 27 26 27 26 26 26 26 26 27 27 27 28 29 30 31 31 33 34 35 36 37 39 40 40 42 43 45 46
47 46 45 44 42 39 34 32 31 30 30 29 28 28 28 27 27 26 26 26 26 26 27 27 27 27 28 29 29 30 31 32 33 34 35 37 38 39 40 41 43 44 46 48
46 44 43 42 37 33 31 30 29 30 31 30 29 28 28 27 27 26 26 26 26 26 27 27 28 28 29 29 30 30 31 33 34 35 36 37 38 39 41 42 44 45 47 49
44 42 42 41 38 34 31 30 30 30 31 30 29 28 28 27 27 26 26 26 26 27 27 28 29 29 29 29 30 31 32 34 34 35 36 37 39 40 42 43 45 46 49 52
41 39 39 39 37 35 33 31 31 31 31 29 28 28 28 28 27 27 27 27 27 27 28 28 28 29 29 30 31 32 33 34 35 36 37 38 40 41 43 44 46 49 51 54
39 37 36 35 33 33 31 31 32 31 30 29 29 29 28 28 27 27 27 27 28 29 29 29 29 30 31 31 32 33 34 35 36 37 38 40 41 43 44 46 49 51 54 57

GEFSCGP_500_meanwind_108.txt.gz
Wind_Speed
51 52 51 46 45 45 45 45 45 43 43 43 42 41 39 39 37 35 34 33 33 31 31 30 30 30 30 30 31 31 32 32 33 33 34 34 35 35 35 35 36 37 37 37
54 53 47 46 46 47 46 46 44 43 42 43 43 42 40 39 39 37 36 35 34 33 33 32 32 33 33 33 32 33 33 33 33 34 35 35 35 35 35 36 37 38 38 38
52 48 46 47 48 48 47 45 43 42 42 43 44 43 41 40 39 38 37 36 36 35 34 34 34 34 34 33 33 33 34 34 35 35 35 36 36 36 36 37 38 38 38 38
52 50 49 49 48 47 47 44 42 42 42 42 43 43 40 39 39 37 36 36 35 35 35 35 34 34 34 34 34 35 35 35 35 35 36 36 36 37 37 38 38 38 38 38
52 51 50 49 46 45 43 42 43 42 42 43 42 43 39 39 37 35 36 36 36 36 35 35 35 34 34 34 34 35 35 35 35 35 36 37 37 37 37 37 37 37 37 38
51 50 49 47 45 45 44 43 43 43 44 44 41 43 40 36 35 34 35 35 35 35 35 35 35 35 34 34 34 34 35 35 35 35 36 36 37 37 36 36 37 37 37 38
54 53 51 49 48 48 47 46 45 45 46 44 41 43 40 34 34 34 35 35 35 35 35 35 35 34 34 34 34 34 35 34 34 35 35 36 36 36 36 37 37 37 37 37
53 54 53 51 50 47 46 46 45 45 44 42 41 42 38 34 33 34 34 35 35 35 35 35 35 34 34 34 34 34 34 34 34 35 35 35 35 35 36 36 36 36 36 36
52 52 50 49 47 46 45 44 42 43 43 43 42 39 36 33 32 32 32 33 33 34 34 34 34 34 34 33 33 33 33 34 34 34 34 34 35 35 35 35 35 36 36 36
51 51 50 48 48 48 45 43 43 44 43 43 42 39 35 32 31 30 30 30 31 31 32 32 32 32 33 33 33 33 33 33 33 33 33 34 34 34 34 35 35 36 36 36
50 51 51 50 50 48 47 47 46 44 44 43 41 38 32 30 29 29 28 28 28 29 29 29 30 30 31 31 31 31 31 31 32 32 32 32 33 33 33 34 34 35 35 36
49 49 50 50 47 46 46 45 45 45 44 42 40 36 32 30 28 28 27 27 27 27 27 27 28 29 30 30 30 29 29 30 30 31 31 31 32 32 33 33 34 35 35 36
49 50 50 50 51 49 48 47 46 44 43 42 40 36 32 30 29 28 28 27 26 26 26 26 27 28 28 28 28 28 28 29 30 30 31 31 31 32 32 33 33 34 35 36
49 50 50 49 47 46 47 46 45 45 44 41 37 33 31 30 29 29 28 27 26 26 26 26 26 26 26 27 27 28 28 29 29 30 30 30 31 31 32 32 33 33 34 35
51 50 49 48 47 45 45 44 44 44 42 40 35 33 31 30 29 29 29 27 26 26 25 26 25 25 26 27 27 27 28 28 28 29 29 30 30 31 31 31 32 33 34 35
49 49 49 48 48 48 47 46 45 44 42 41 38 34 31 31 31 31 29 27 26 25 25 25 25 26 26 26 27 27 27 28 28 29 29 30 30 30 31 31 32 33 35 36
48 49 49 48 48 49 51 47 45 43 41 40 38 31 30 32 32 30 29 27 26 26 26 26 26 26 26 26 27 27 28 28 28 29 29 29 30 30 31 32 33 34 36 37
46 47 47 48 48 50 45 43 44 42 41 39 36 33 32 32 31 31 29 28 27 26 26 26 26 26 26 26 27 27 28 28 28 29 29 29 29 30 31 33 34 35 36 37
46 45 46 48 48 47 44 42 40 40 39 37 35 33 32 32 33 31 28 28 27 27 26 26 26 26 26 27 27 28 28 28 28 28 29 29 30 31 32 33 34 36 37 38
48 47 46 46 45 44 40 38 37 38 38 34 34 32 32 33 32 26 27 28 27 27 27 27 27 27 27 28 28 28 28 28 28 29 29 30 31 32 33 34 35 36 37 38
48 49 49 47 45 42 39 37 36 36 28 28 30 30 31 32 27 25 27 27 27 27 27 27 28 28 28 28 28 28 28 28 29 29 30 30 31 32 33 34 35 36 37 38
46 47 49 48 47 43 39 37 35 29 27 28 28 29 30 29 28 28 27 27 26 26 27 27 28 28 28 28 28 28 28 28 29 29 30 31 31 32 33 35 35 36 38 39
44 44 44 46 44 39 36 35 32 31 30 29 29 28 28 28 27 27 27 27 26 26 26 27 27 27 27 28 28 28 28 28 29 29 30 31 32 33 34 35 36 37 39 40
43 43 42 43 42 38 33 33 33 32 30 29 29 28 27 27 26 26 26 26 26 26 26 26 27 27 27 27 28 28 28 28 29 30 31 31 33 34 35 36 37 38 40 42
42 41 42 43 39 37 35 32 31 30 29 29 28 28 27 26 26 26 26 26 26 26 26 26 27 27 27 28 28 28 29 29 30 31 32 32 33 34 35 37 38 40 41 43
41 41 42 40 37 36 33 32 31 30 28 27 27 27 26 26 26 27 27 26 26 26 26 26 27 27 27 27 28 28 29 30 31 31 32 33 34 35 36 38 40 41 43 44

GEFSCGP_500_meanwind_114.txt.gz
Wind_Speed
57 59 58 56 55 52 51 50 49 48 48 48 47 45 43 42 41 39 37 36 34 32 31 30 29 29 28 28 28 28 28 29 29 30 30 31 32 32 33 34 35 35 36 36
58 60 55 54 54 54 53 52 51 50 49 50 49 47 46 45 42 40 39 37 36 34 33 32 31 31 30 30 30 30 30 31 31 32 32 33 33 33 34 36 36 37 37 37
58 56 55 55 55 54 54 52 50 49 49 50 50 50 47 46 44 42 41 39 38 36 35 34 33 33 32 31 31 31 31 32 33 33 34 34 34 35 36 37 37 37 37 37
56 55 56 56 55 54 52 49 48 49 50 50 51 52 48 47 45 44 42 41 39 38 37 36 35 34 33 33 33 33 33 33 34 34 34 34 35 36 37 37 37 37 37 38
56 56 56 56 53 52 49 48 48 48 50 52 51 53 50 48 46 44 42 41 40 39 38 37 36 35 34 34 34 34 34 34 34 35 35 35 36 36 37 37 37 37 38 38
55 55 55 54 51 52 50 49 49 49 51 54 52 53 51 47 45 43 41 40 40 39 38 37 37 36 35 35 35 35 35 35 35 35 36 36 36 37 37 37 37 37 38 37
56 56 56 55 54 54 52 51 51 51 53 54 50 52 51 44 42 41 40 40 39 39 39 38 37 37 36 36 36 36 36 36 36 36 36 37 37 37 37 37 37 37 37 37
55 57 56 56 56 55 54 53 52 52 52 51 50 51 48 43 40 40 39 39 38 38 38 38 37 37 36 36 36 36 36 36 36 36 36 36 36 36 36 36 36 36 36 36
51 53 54 55 54 54 55 55 52 51 52 50 50 48 45 41 39 37 37 37 37 37 37 37 37 37 37 36 36 36 36 36 36 36 36 36 35 35 36 36 36 36 36 36
46 50 52 53 55 55 55 54 53 53 52 51 50 47 43 39 36 36 36 36 36 37 37 37 37 37 37 37 36 36 36 35 35 35 35 35 35 35 35 35 35 35 35 36
47 47 49 53 57 56 56 56 56 54 53 50 48 45 40 36 36 36 36 36 36 36 37 37 37 37 36 36 36 36 35 35 35 34 34 34 34 34 34 35 35 35 35 35
49 49 49 50 51 52 55 56 56 55 52 50 46 43 39 35 34 35 35 35 36 36 36 36 36 35 35 35 35 35 34 34 33 33 33 33 33 33 33 34 34 34 34 35
48 50 50 49 52 53 54 55 54 53 52 51 47 42 37 35 33 32 32 34 35 35 35 34 34 35 34 34 34 33 33 33 32 32 32 32 32 32 32 32 32 33 33 33
48 49 51 51 49 51 53 54 53 53 53 50 46 39 37 35 33 32 33 33 34 34 33 33 34 34 34 33 32 32 32 31 31 31 31 31 31 31 31 31 32 32 33 33
49 49 50 50 47 47 50 51 52 52 50 48 42 39 35 35 34 33 34 34 33 33 33 33 33 33 32 32 31 31 30 30 30 30 30 30 30 30 30 31 31 32 32 33
46 49 50 50 50 48 49 50 50 49 49 46 44 41 37 36 36 36 34 33 33 33 32 32 32 32 31 31 30 30 29 29 29 29 29 29 30 30 30 31 31 31 32 33
44 46 50 51 51 51 50 49 48 47 47 46 44 39 39 38 37 35 34 34 34 34 33 32 32 31 30 30 29 29 29 29 29 29 29 29 29 30 30 31 31 32 33 34
43 43 45 48 50 51 48 46 46 46 45 45 43 41 40 38 36 36 36 36 36 34 32 32 32 31 30 29 29 28 28 28 28 28 28 29 29 30 30 31 32 33 33 34
44 43 43 45 48 49 47 46 45 46 45 44 44 43 42 40 39 38 37 36 35 33 33 33 33 31 30 29 29 28 28 28 28 28 28 29 29 30 30 31 32 33 33 34
44 44 44 43 43 46 44 44 45 46 46 44 45 44 43 42 42 36 35 36 36 36 35 34 32 31 30 29 29 28 28 27 28 28 29 29 29 30 31 31 32 32 33 34
42 43 44 44 42 42 43 44 45 46 43 40 42 43 44 43 39 35 36 37 37 36 35 33 32 31 30 29 29 28 28 28 28 29 29 30 30 31 31 31 32 33 33 34
42 42 42 44 44 41 41 44 44 43 42 40 39 41 43 41 39 39 38 37 36 35 34 33 32 31 30 29 29 28 28 28 29 29 30 30 30 30 30 31 32 33 34 34
40 41 41 43 42 39 39 40 41 41 41 40 39 39 40 41 40 38 37 37 36 34 33 32 31 30 30 29 28 28 28 28 28 29 29 30 30 30 31 31 32 33 33 34
39 41 41 41 43 41 39 38 39 39 38 38 38 38 38 39 39 38 36 36 35 34 32 32 31 30 30 29 28 28 28 28 28 28 28 29 30 30 30 31 32 32 33 34
39 40 40 41 42 42 40 37 37 38 37 36 36 36 37 37 36 36 35 34 34 33 32 31 31 30 29 29 28 28 28 28 28 28 28 29 29 30 31 31 32 32 33 34
38 39 39 39 41 41 40 39 37 37 37 37 36 36 35 35 35 34 33 33 33 32 31 30 30 29 29 28 28 28 27 27 27 28 29 29 30 30 31 31 32 33 34 35

GEFSCGP_500_meanwind_120.txt.gz
Wind_Speed
57 59 60 59 59 58 57 57 56 54 54 54 54 53 51 50 49 46 45 44 42 40 39 39 37 36 36 34 33 32 31 30 30 29 29 30 30 30 30 30 30 31 32 33
57 58 57 57 58 58 58 58 57 55 54 55 55 55 53 53 51 49 47 45 43 42 41 40 39 37 36 35 34 33 32 32 31 31 31 32 32 31 31 31 32 33 34 34
56 55 55 57 57 58 58 57 56 55 55 56 57 57 56 54 53 51 49 47 45 44 43 41 40 38 37 36 35 34 34 33 33 33 33 33 33 33 33 33 34 34 35 35
52 52 54 57 59 57 57 55 55 56 56 57 58 59 57 55 55 53 50 48 46 45 44 43 41 40 38 37 36 35 35 34 34 34 34 34 34 34 34 35 35 35 35 35
50 51 52 56 57 57 56 54 55 55 56 57 58 59 58 56 55 53 50 48 47 45 45 44 42 41 39 39 38 36 36 35 35 35 35 35 35 35 36 36 36 36 35 35
47 48 50 53 55 55 55 53 53 54 56 59 58 59 60 56 53 52 51 49 47 46 45 44 43 43 41 40 39 38 37 36 36 36 36 36 36 36 36 36 36 36 36 36
46 47 48 51 55 55 54 53 52 54 57 59 57 59 60 55 51 49 49 49 48 47 46 45 44 43 42 41 40 39 38 37 37 36 36 36 36 36 36 36 36 36 36 36
43 45 46 49 54 55 55 54 54 54 55 55 56 58 58 53 50 47 47 47 47 47 47 46 45 43 42 41 40 39 38 37 37 37 36 36 36 36 36 36 36 36 36 36
39 41 43 46 50 54 55 55 52 52 52 53 55 55 55 52 49 46 45 45 46 46 46 45 45 44 42 41 40 39 39 38 37 37 36 36 36 36 36 35 35 35 35 35
37 39 41 42 47 51 52 51 53 51 51 52 52 52 52 48 46 44 43 44 44 45 45 45 44 43 41 40 40 40 39 38 37 37 36 36 35 35 35 35 35 35 35 35
36 38 39 42 47 49 51 52 52 52 52 51 51 49 46 42 40 40 41 42 43 44 44 44 43 42 41 40 40 39 39 38 37 36 36 35 34 34 34 34 34 34 34 34
37 38 39 40 42 46 48 51 52 52 53 51 49 47 42 39 38 39 40 41 41 42 42 42 41 41 41 40 40 39 38 37 36 35 35 34 34 34 34 34 34 33 33 33
38 38 39 40 42 44 47 49 51 51 52 52 49 47 41 38 37 38 39 39 39 39 40 40 40 40 40 39 39 38 37 36 35 35 34 34 33 33 33 33 33 33 33 32
39 40 40 40 42 43 43 46 49 51 53 53 51 46 43 38 36 36 37 37 38 38 39 39 39 39 39 38 37 36 36 35 34 34 34 33 33 33 33 32 32 32 32 32
38 41 41 41 42 44 42 43 46 49 50 50 48 47 44 40 39 37 36 37 38 38 38 38 38 38 37 37 36 35 34 34 33 33 33 32 32 32 32 31 31 31 31 31
37 38 41 42 44 45 45 42 43 46 48 47 46 47 45 43 41 39 37 37 38 38 38 38 38 37 37 36 35 34 33 33 33 32 32 31 31 31 31 31 30 30 30 30
35 37 38 40 43 45 47 43 41 42 46 47 47 45 46 45 42 40 38 37 37 38 39 39 38 37 36 36 35 34 33 32 32 32 31 31 30 30 30 30 30 29 30 30
33 35 37 38 41 43 43 43 42 44 45 46 46 46 46 46 43 42 41 40 40 40 40 39 39 37 36 35 34 34 33 32 31 31 30 30 29 29 29 29 29 29 29 30
32 34 35 36 38 40 41 41 40 42 45 46 47 46 46 46 46 45 44 43 42 41 41 39 38 37 36 35 34 33 32 31 30 30 29 29 29 28 28 28 28 28 29 30
33 34 34 35 37 39 38 38 38 41 43 44 46 46 47 48 47 45 44 43 41 41 41 40 39 38 37 36 34 33 31 30 29 29 29 28 28 28 28 28 28 29 30 30
34 35 34 34 36 38 37 37 38 41 40 41 43 45 47 47 44 41 42 43 42 41 41 40 39 38 37 36 34 33 31 30 29 29 29 28 28 28 28 28 29 29 30 30
34 36 35 35 37 37 37 38 39 39 39 40 42 44 45 44 43 43 42 43 43 41 41 40 39 37 36 35 34 33 32 31 30 29 29 28 28 28 28 28 29 29 30 31
34 35 35 36 36 35 37 39 40 39 39 39 41 43 43 43 43 43 43 43 42 41 40 38 37 36 36 35 34 33 32 31 30 29 29 29 29 28 28 29 29 30 30 31
34 36 37 37 35 35 37 39 41 40 40 40 40 42 43 42 42 42 42 42 41 41 39 37 36 36 35 35 34 33 32 31 30 29 29 28 28 28 28 29 29 30 31 31
33 36 37 37 36 35 37 37 40 41 41 41 39 41 42 42 41 41 41 42 41 40 38 37 36 35 34 33 33 32 31 31 30 29 29 28 28 28 29 29 29 30 30 31
31 35 36 35 35 37 37 37 39 41 42 42 40 40 41 41 41 40 39 40 39 39 39 38 36 35 34 33 32 32 31 31 30 29 29 29 28 29 29 29 30 30 30 31

GEFSCGP_500_meanwind_126.txt.gz
Wind_Speed
46 49 49 49 51 51 50 53 55 53 52 54 56 55 53 53 53 52 52 50 48 46 44 44 43 42 41 40 39 38 37 36 34 33 31 30 29 28 27 27 27 27 27 27
44 48 46 47 49 51 50 52 53 54 53 55 56 56 55 55 54 53 52 51 49 48 46 45 44 43 42 41 40 38 38 37 35 34 32 31 30 30 29 28 28 28 28 29
40 43 45 47 48 49 50 50 50 52 53 54 56 58 57 56 55 54 53 52 51 50 48 46 45 44 43 42 40 39 38 38 36 35 33 32 31 31 30 29 29 29 30 30
36 39 44 47 47 47 49 48 49 50 52 53 55 58 58 55 56 56 54 53 52 51 49 47 46 45 44 42 42 41 39 38 38 36 35 33 32 31 31 31 31 31 31 31
32 35 42 46 44 45 46 47 48 49 51 53 54 57 59 56 57 57 55 53 52 51 50 49 47 46 45 43 42 41 40 39 38 37 36 35 33 33 33 32 32 32 32 32
29 33 39 42 42 42 43 45 46 47 49 54 54 55 58 56 55 54 54 53 52 51 51 50 48 47 45 44 43 42 41 40 39 38 37 36 35 34 34 33 33 33 33 34
27 31 37 41 43 42 42 44 45 48 50 52 51 55 57 53 52 52 53 53 52 51 51 50 49 47 45 44 43 43 42 41 40 39 38 36 36 36 35 34 34 34 34 34
27 29 35 40 42 42 44 44 45 45 47 49 50 55 55 51 50 50 51 51 52 52 50 50 50 48 47 46 45 43 42 41 40 39 38 37 36 36 35 35 36 36 35 35
26 26 30 36 39 41 43 44 42 42 43 45 49 52 53 51 50 49 49 50 50 50 50 49 49 49 48 47 46 45 43 42 41 40 39 38 37 36 36 36 36 36 35 35
26 27 27 32 36 39 40 40 42 42 42 42 44 48 50 48 48 48 48 48 48 49 49 49 49 49 48 47 47 45 44 42 42 41 40 39 37 37 37 37 36 35 34 34
26 25 25 28 35 37 39 41 42 43 42 41 39 42 44 45 45 46 46 46 46 47 48 49 49 49 49 47 47 45 44 43 42 41 40 39 39 38 37 37 36 35 34 34
25 25 25 26 30 34 37 40 41 43 44 42 37 35 38 42 43 43 44 45 46 47 47 48 49 48 48 48 47 46 45 44 43 42 41 40 39 38 38 36 36 35 34 34
26 26 26 26 29 33 36 39 40 42 44 45 41 35 34 37 39 40 41 44 45 46 47 47 48 47 46 47 47 46 45 44 43 42 42 40 40 39 37 36 35 34 34 34
27 28 27 28 29 32 35 38 40 41 45 46 43 37 35 35 36 37 38 41 44 45 46 46 46 45 45 45 46 46 45 44 43 41 40 40 39 38 37 36 34 34 34 34
28 29 28 29 30 32 35 37 39 40 42 45 43 41 37 36 34 35 36 39 42 43 44 45 45 45 45 44 44 45 44 43 42 41 40 39 38 37 36 34 34 34 33 32
29 29 30 30 32 34 35 36 37 40 40 43 43 41 38 37 36 34 34 36 39 42 44 44 45 45 44 43 42 41 41 41 40 40 39 37 36 35 35 34 34 33 32 31
28 29 30 30 33 35 36 35 35 37 39 42 42 38 38 37 37 35 34 36 38 40 43 43 43 43 42 41 40 39 39 39 39 38 37 36 35 35 34 33 32 32 31 30
26 28 29 29 31 35 33 33 34 36 37 39 41 38 39 38 37 36 35 35 38 40 42 42 42 42 42 41 40 40 39 38 37 36 35 34 34 33 32 31 31 30 30 29
25 26 27 29 30 31 32 33 34 36 38 38 40 40 41 40 38 36 36 37 38 39 41 42 42 42 42 41 41 40 39 38 37 35 34 33 32 31 31 30 30 29 29 29
25 26 27 29 30 30 28 30 32 35 37 39 41 41 42 43 41 37 37 38 39 40 41 42 42 41 41 40 39 38 38 37 36 34 33 32 32 31 30 30 29 29 28 28
25 26 27 28 31 30 28 28 31 34 35 38 40 41 41 43 43 40 39 39 39 40 43 42 42 41 40 39 38 38 37 36 35 34 32 32 31 31 30 29 28 28 27 27
26 27 27 28 30 29 28 29 31 32 33 37 39 41 42 44 43 42 41 40 40 41 43 43 42 41 40 39 38 37 37 36 35 33 32 31 31 30 29 28 27 27 27 27
27 28 28 28 28 27 29 31 32 34 34 36 38 39 41 42 44 44 44 43 42 41 42 42 41 40 40 39 38 37 37 36 34 33 32 31 30 29 28 27 27 26 26 27
27 29 30 31 30 29 28 30 32 35 37 37 38 38 40 41 43 45 45 44 43 42 42 42 41 40 39 39 38 37 36 34 34 32 31 30 29 29 28 27 26 26 27 27
27 30 32 31 30 31 30 31 33 35 38 39 39 39 39 40 41 44 45 44 43 42 42 42 41 40 39 38 37 36 35 34 34 32 31 30 29 28 27 27 27 27 27 26
24 28 31 32 31 32 31 32 34 35 37 39 40 40 40 40 41 43 44 44 44 43 43 43 42 41 39 39 38 36 35 34 33 32 30 29 28 28 27 27 27 26 26 27

GEFSCGP_500_meanwind_132.txt.gz
Wind_Speed
28 30 34 36 37 39 43 45 46 46 49 51 53 53 53 54 55 54 54 54 53 51 49 48 48 47 46 44 42 41 39 39 38 37 36 35 33 32 32 31 30 28 27 27
25 26 29 34 36 39 42 43 43 44 47 50 52 53 53 55 56 55 54 54 53 52 52 50 48 48 47 45 43 42 40 39 38 37 36 35 34 33 32 32 31 29 28 28
22 23 27 31 35 38 40 41 40 42 45 48 50 53 54 54 56 56 55 54 54 53 52 51 49 49 48 46 44 42 41 40 39 38 37 36 35 34 33 32 31 30 29 29
20 21 24 28 31 35 35 37 39 41 44 47 49 51 53 53 55 56 55 54 53 53 53 52 50 49 48 46 45 43 41 40 40 39 38 36 35 34 33 32 31 31 30 30
19 21 23 25 27 31 33 33 37 39 41 44 46 50 50 51 53 55 54 53 53 52 52 52 51 49 48 47 46 44 42 41 41 40 39 37 35 35 34 33 32 31 31 30
19 20 22 23 25 29 31 32 34 37 40 44 43 46 49 49 50 51 52 52 52 52 51 51 51 50 49 49 47 45 43 42 41 40 39 37 36 35 35 34 33 32 31 31
18 19 22 23 25 27 29 31 33 35 39 41 40 44 45 43 44 47 51 52 52 52 52 51 51 50 50 49 48 46 44 42 41 40 39 38 37 36 35 34 34 33 32 32
17 17 19 22 23 26 30 31 32 33 36 37 38 41 39 40 42 44 48 51 52 53 52 51 51 50 49 49 48 46 44 43 41 40 39 38 37 36 35 35 34 33 33 32
17 16 18 20 22 24 27 31 31 33 33 34 36 36 35 38 40 42 45 50 51 52 52 51 50 50 49 48 47 46 44 43 42 40 39 38 37 36 35 35 34 34 33 33
18 18 19 20 21 23 25 27 30 32 32 33 34 35 31 32 37 40 43 47 48 50 50 50 50 50 49 48 47 46 45 44 42 41 40 39 37 36 36 35 35 34 33 33
19 19 18 21 22 23 24 27 30 31 33 34 34 34 31 29 32 37 40 44 47 49 49 49 50 50 49 49 48 46 46 44 43 42 41 39 38 37 37 36 34 33 33 34
19 20 19 21 23 24 25 27 30 32 34 35 35 33 32 30 31 33 38 42 44 47 49 48 48 49 49 48 48 47 45 44 43 42 41 40 39 38 37 36 35 34 34 34
20 21 21 21 23 25 26 28 30 33 35 36 35 32 30 31 31 31 35 40 43 45 46 48 48 49 49 49 47 46 45 44 43 43 42 41 40 39 37 36 36 36 35 35
22 22 22 22 22 26 29 30 31 33 36 36 35 31 30 31 31 31 33 37 41 43 44 45 47 48 49 49 48 47 46 45 44 44 43 42 40 39 38 37 37 36 35 35
22 22 23 22 22 24 28 31 32 34 35 35 33 32 31 31 31 32 32 35 39 41 43 44 45 46 47 49 49 48 47 47 46 45 44 43 41 40 40 39 38 37 35 35
22 22 22 23 23 24 25 28 31 34 34 33 33 32 31 32 32 32 34 35 38 40 41 43 44 44 44 46 48 47 46 45 46 46 44 43 42 41 40 39 38 38 37 36
23 23 23 23 24 25 24 25 28 33 34 34 34 32 34 34 33 34 34 36 38 40 41 42 44 45 44 45 46 46 46 45 45 44 44 44 42 41 40 39 39 39 38 37
22 22 23 23 24 25 23 24 26 31 34 35 35 34 35 34 35 36 36 37 39 40 41 42 44 45 46 46 46 46 46 45 45 44 43 43 42 41 40 40 40 39 38 37
23 22 23 23 24 24 24 25 26 29 32 35 36 35 36 36 37 38 37 38 39 40 41 42 44 45 46 47 47 47 46 46 45 44 44 43 42 41 40 39 38 38 38 37
24 24 24 24 24 23 21 24 26 28 31 33 36 36 37 37 38 39 39 39 39 40 42 43 45 45 46 46 47 47 47 46 45 44 43 43 42 41 39 38 37 36 36 36
24 25 25 26 25 23 21 23 26 28 29 31 33 36 38 38 39 39 40 40 40 40 41 43 45 46 46 46 47 49 48 47 45 44 43 42 41 40 38 37 37 36 35 33
24 24 25 26 27 24 21 24 27 27 29 31 32 35 37 38 39 39 41 42 41 41 41 42 44 45 46 46 47 47 48 47 46 44 42 41 40 39 38 37 37 35 33 31
25 25 26 26 25 24 24 26 27 29 29 31 32 34 36 36 37 39 41 42 42 42 43 42 43 45 45 45 46 46 45 45 44 43 41 40 39 38 37 36 34 32 31 30
25 27 28 28 25 25 26 27 28 30 31 32 32 33 36 36 37 38 40 42 43 44 44 43 43 45 45 45 45 46 45 44 43 42 41 39 38 37 35 33 32 30 29 29
26 28 29 29 27 27 28 29 29 30 32 33 34 33 34 36 37 38 40 41 42 43 43 43 43 44 44 44 45 46 45 44 43 42 41 39 37 35 34 32 31 29 29 29
26 28 29 29 28 30 30 30 30 31 33 34 34 34 34 35 37 39 40 41 42 42 41 41 42 42 44 44 45 45 45 43 42 41 40 38 36 34 33 32 31 30 30 29

GEFSCGP_500_meanwind_138.txt.gz
Wind_Speed
31 29 27 25 26 27 30 34 37 37 38 42 44 45 46 48 51 52 53 53 55 56 55 56 56 55 54 53 51 50 48 46 46 45 43 42 40 39 39 37 36 35 34 33
30 27 25 24 25 27 27 31 33 34 37 41 44 44 43 46 48 50 51 52 54 55 56 55 55 55 55 54 52 50 48 47 46 45 44 43 41 40 39 38 37 36 35 34
28 26 24 23 24 26 25 26 29 31 34 37 41 42 41 43 47 49 50 51 53 54 55 55 55 56 55 54 53 51 49 48 47 46 45 44 42 41 39 38 37 36 35 34
27 24 23 22 23 26 25 24 26 28 31 32 37 41 40 40 43 46 48 49 50 53 53 54 55 56 55 54 53 52 50 49 48 47 45 44 42 40 39 38 37 36 35 35
26 24 22 22 23 24 23 24 25 25 27 29 32 38 38 37 40 43 46 47 48 51 52 54 54 54 54 54 54 53 52 50 49 48 46 44 43 41 40 38 37 36 36 35
25 23 22 20 20 22 21 22 24 25 26 27 27 32 34 35 36 39 42 45 46 49 51 52 54 54 55 55 55 55 53 51 49 48 46 45 43 42 40 39 38 37 36 35
25 22 20 19 19 20 20 20 22 24 25 26 25 29 31 31 33 35 39 43 45 48 50 52 53 54 56 56 55 55 54 52 50 49 47 46 44 42 41 40 39 37 36 35
27 22 21 20 20 20 20 20 21 23 24 24 24 25 27 29 31 33 36 40 44 47 50 51 52 53 54 55 55 55 55 52 51 50 48 46 45 43 42 41 39 38 37 36
29 23 20 20 20 21 21 21 21 23 24 25 23 22 23 27 29 31 35 39 42 45 48 50 51 52 53 54 54 53 54 52 51 51 49 47 45 44 42 41 40 39 37 37
28 25 20 19 19 20 21 21 22 23 24 25 24 22 22 24 27 29 32 36 39 43 46 48 50 50 53 54 53 53 54 53 51 50 50 48 46 44 43 42 41 39 38 38
28 26 22 20 19 20 21 22 22 23 25 25 25 23 22 23 26 28 30 33 37 41 44 47 49 50 52 54 55 54 53 54 52 51 50 48 47 46 44 43 41 40 39 38
27 26 22 20 20 21 22 23 24 25 26 27 27 24 23 24 26 27 28 31 34 38 42 45 47 49 52 53 54 54 53 53 52 52 51 49 48 47 45 43 42 41 40 39
27 26 24 21 21 22 23 24 25 27 27 27 28 25 25 26 26 27 28 29 33 36 41 44 46 47 50 52 52 53 53 53 52 52 51 50 48 47 45 44 43 41 40 40
29 27 25 24 23 24 24 25 26 27 28 28 27 26 26 27 28 28 29 31 32 35 39 43 45 47 49 50 51 53 53 53 52 52 51 50 48 46 45 44 43 42 41 40
29 28 27 25 24 24 24 26 27 28 28 29 27 27 27 29 30 30 30 32 33 35 38 41 44 46 48 50 51 52 53 53 52 51 50 49 48 47 45 45 44 43 41 41
29 28 27 25 25 26 25 26 27 28 29 29 29 27 28 30 31 32 33 33 34 35 37 41 43 44 47 49 50 51 52 53 52 52 51 49 49 48 47 46 45 44 43 42
28 28 27 25 25 26 26 24 25 27 28 29 30 28 29 31 31 31 33 34 35 36 37 40 43 44 45 47 48 50 51 52 52 51 51 50 49 49 48 48 47 45 44 43
28 27 28 27 26 26 24 25 26 28 28 29 30 29 30 30 32 33 34 34 36 37 38 40 42 44 45 46 47 49 50 51 52 51 51 49 48 49 48 48 47 46 45 43
28 27 28 27 27 25 24 24 26 27 27 28 29 29 29 29 32 33 34 35 36 38 38 40 42 44 46 46 47 48 49 50 50 51 50 50 49 49 48 47 46 46 45 44
28 28 28 28 28 27 24 25 26 27 27 27 29 28 29 29 31 32 34 36 36 37 39 40 41 43 45 46 47 49 49 49 49 50 50 49 50 49 48 47 46 45 44 43
29 29 29 29 29 28 25 25 26 27 26 27 29 29 29 28 30 32 35 36 37 38 39 40 41 43 44 45 46 48 49 50 50 50 50 51 50 49 48 47 46 44 44 43
31 31 31 31 31 29 27 27 27 27 27 27 28 29 29 29 29 31 34 36 37 38 40 40 41 43 44 44 46 46 48 49 50 51 50 50 50 49 48 47 46 44 43 41
32 31 32 32 31 30 29 28 28 28 29 29 29 30 29 29 30 31 33 36 38 39 40 41 41 42 43 44 45 46 48 49 49 50 51 50 49 48 47 46 45 43 42 40
32 32 33 33 30 30 30 29 28 29 30 30 30 30 29 30 30 31 32 34 37 39 40 41 41 43 43 44 45 46 48 49 49 49 49 49 49 48 46 45 44 43 41 40
32 33 33 33 31 31 30 28 28 29 30 30 30 30 30 30 30 31 31 32 35 37 39 40 40 42 43 45 45 45 46 47 47 48 48 49 48 48 47 45 44 42 40 39
31 33 34 33 32 32 29 28 29 30 29 30 30 30 31 31 30 31 32 32 32 35 37 39 40 40 43 45 46 45 45 46 46 46 47 47 47 46 45 44 43 41 39 39

GEFSCGP_500_meanwind_144.txt.gz
Wind_Speed
37 35 31 29 28 28 29 29 29 28 28 32 33 33 34 35 38 38 39 41 44 48 50 51 54 57 59 59 59 59 58 58 57 55 53 52 50 49 48 47 46 45 43 41
35 32 30 28 28 28 29 29 29 28 26 28 29 29 30 32 33 34 36 38 42 45 47 49 52 54 57 59 59 59 58 58 57 56 54 52 51 50 49 48 46 45 44 42
35 32 30 28 28 29 28 27 26 26 25 25 26 25 26 29 31 32 35 36 39 43 45 48 51 53 55 57 58 59 58 57 57 56 54 52 51 51 50 48 47 46 45 44
34 33 31 29 27 28 26 26 26 24 23 22 21 22 21 26 29 31 33 34 36 41 43 46 49 52 53 56 57 58 58 57 57 57 55 52 51 51 50 49 48 48 47 45
34 32 31 29 27 26 24 24 23 21 20 18 17 19 18 23 25 27 30 33 35 37 41 44 47 51 52 54 56 58 58 57 56 56 55 53 51 51 51 50 49 48 47 45
33 31 31 30 28 25 23 23 21 19 16 15 13 15 16 20 23 25 28 29 32 37 39 41 45 49 51 52 55 57 58 57 56 56 55 54 51 51 51 49 48 47 47 45
34 32 31 30 28 25 23 22 20 17 15 14 13 14 13 16 21 24 26 27 30 35 37 39 42 46 49 51 54 56 58 57 57 56 55 55 52 51 51 49 48 47 46 45
36 33 31 29 28 26 22 20 18 17 15 14 13 13 13 14 18 22 24 25 28 32 35 38 40 44 48 50 53 55 56 56 57 57 55 54 52 50 50 50 48 47 46 45
36 33 31 29 28 25 22 20 19 18 17 16 14 13 13 14 17 21 23 25 27 31 33 36 39 42 47 49 51 54 55 55 56 57 56 56 52 50 49 49 49 47 46 45
36 33 31 29 27 24 22 20 19 18 18 18 16 15 14 14 17 20 23 25 26 29 33 36 39 40 44 47 50 53 55 56 55 56 57 56 54 51 50 49 49 48 46 46
36 34 32 29 26 24 21 19 19 19 19 20 19 17 17 16 18 20 23 24 27 29 31 35 38 40 44 46 49 53 54 54 56 56 56 56 53 52 50 50 49 49 47 46
36 33 32 30 27 24 21 20 19 19 20 21 22 20 18 19 20 21 23 24 26 29 29 32 36 40 43 46 49 52 53 54 55 56 57 58 54 52 52 50 49 49 48 47
37 34 33 31 29 25 22 21 21 21 21 21 22 21 20 21 22 23 24 25 26 28 31 31 35 39 42 45 47 50 52 53 54 55 56 57 55 53 52 51 49 48 48 47
37 35 33 32 29 27 24 22 22 22 23 23 22 21 20 21 23 25 26 27 28 28 31 32 33 37 41 45 46 48 51 52 53 54 54 55 54 54 52 51 50 49 49 48
38 36 33 31 29 27 24 23 23 24 24 25 23 22 19 22 24 26 28 29 29 29 31 32 34 36 40 45 46 47 49 50 52 54 54 55 54 53 53 52 50 50 49 48
38 36 34 31 28 26 25 23 24 25 26 26 26 23 21 22 25 26 28 30 31 31 32 33 34 36 39 43 45 46 48 48 51 52 53 54 54 53 52 51 50 50 49 49
38 35 33 31 29 27 24 23 24 25 26 27 26 24 23 23 25 27 28 29 31 32 33 34 36 36 37 41 43 46 48 48 49 50 52 53 54 54 53 51 50 49 49 49
38 36 35 33 30 27 25 24 24 25 25 26 26 25 24 24 25 26 28 29 30 31 33 34 36 38 39 40 42 44 47 48 49 50 51 51 52 53 53 52 51 50 49 48
38 36 36 34 32 29 27 26 26 26 26 26 26 26 25 25 25 26 27 29 30 31 32 34 35 37 39 41 42 44 45 47 49 49 50 50 52 53 52 52 51 50 49 48
38 37 36 34 33 31 29 28 27 27 27 26 26 26 26 26 26 26 28 29 29 30 31 33 35 36 38 41 43 44 44 45 47 48 49 50 52 52 52 52 52 51 51 49
38 37 36 34 34 32 30 29 28 28 27 26 26 26 26 25 25 26 27 28 28 29 30 33 35 35 38 40 43 43 43 44 45 47 49 49 50 51 52 51 50 50 50 49
39 38 36 35 34 33 32 31 30 29 28 27 27 27 27 26 26 26 26 27 28 29 30 32 35 36 37 40 42 43 42 44 45 46 48 49 50 49 49 49 49 48 47 48
39 38 37 35 34 34 33 32 31 30 29 28 28 28 27 27 27 27 27 28 28 30 31 32 34 36 37 39 42 43 43 44 44 45 46 47 47 48 49 48 47 47 47 47
39 38 37 36 33 33 33 33 32 30 29 29 28 28 28 27 27 28 27 29 30 31 31 31 33 34 35 37 40 42 43 45 44 45 46 47 47 47 47 47 46 46 45 44
38 39 38 36 34 34 33 33 31 29 29 29 28 28 28 28 26 27 27 28 29 29 30 31 33 33 34 36 39 40 42 43 44 45 46 46 48 47 47 47 45 44 43 42
38 39 39 36 35 34 33 32 30 30 29 29 28 28 29 29 28 27 28 28 28 29 30 31 32 33 34 36 38 40 40 42 43 44 44 45 46 47 47 46 45 44 44 43

GEFSCGP_500_meanwind_150.txt.gz
Wind_Speed
34 34 33 35 34 33 34 34 34 31 29 32 33 33 31 32 34 36 37 37 39 39 40 41 42 45 46 48 50 53 54 55 56 57 59 59 59 57 55 54 53 50 49 48
35 34 34 35 34 33 33 33 33 30 29 31 31 31 29 30 31 32 33 34 35 35 36 38 40 41 43 45 47 50 53 53 55 57 58 59 58 58 56 54 53 51 49 48
35 35 35 35 34 33 33 33 33 31 28 26 27 27 25 26 28 28 30 32 32 33 34 34 36 38 41 43 44 48 51 52 54 56 57 59 58 57 56 54 53 52 49 48
35 36 36 35 35 34 32 32 32 31 28 27 27 29 24 22 23 24 25 28 27 28 31 33 35 35 38 41 42 46 50 52 53 55 57 58 59 57 55 53 53 52 51 49
34 35 35 35 34 32 32 32 31 30 28 29 25 27 24 21 21 20 22 24 25 26 28 31 33 33 36 39 40 44 47 50 53 54 56 57 58 56 54 54 54 52 51 50
34 35 35 34 33 33 32 31 31 29 28 28 25 25 24 21 20 19 20 23 24 25 26 29 31 33 34 38 39 42 45 48 51 53 55 56 56 57 55 54 53 51 51 49
35 35 35 34 34 33 32 31 31 30 29 27 24 23 23 22 21 20 20 21 23 22 25 28 31 31 33 36 38 41 45 47 50 52 54 55 55 56 54 54 53 52 49 48
36 36 36 37 36 34 33 31 31 30 29 26 22 22 22 22 20 19 19 20 21 21 23 26 28 30 32 34 37 40 43 46 49 52 53 54 53 55 54 53 52 51 49 47
37 37 37 36 35 33 32 31 30 30 29 28 26 24 23 21 20 20 20 20 21 22 23 25 27 30 31 32 34 38 41 43 47 50 53 54 53 54 53 53 52 50 48 46
38 38 38 37 35 33 32 30 29 29 29 29 27 26 23 21 21 21 21 22 22 22 23 24 25 27 30 32 34 36 39 42 45 48 50 52 52 52 52 52 51 50 47 46
39 39 39 39 37 35 33 31 30 30 29 29 28 26 25 22 22 22 22 23 23 23 24 25 26 27 29 31 33 35 39 41 43 47 49 50 51 52 51 51 51 51 49 46
39 40 39 39 38 36 34 32 31 30 29 28 29 28 25 24 23 23 23 24 24 24 25 25 26 27 28 31 34 35 38 40 42 45 48 50 50 52 51 51 51 51 49 47
40 41 41 40 40 38 34 33 32 31 30 28 29 28 26 25 24 24 24 24 24 25 26 26 26 28 29 31 34 35 37 39 42 43 47 50 50 50 50 51 51 52 50 48
40 41 41 41 40 38 35 33 32 31 31 30 29 29 26 26 24 25 25 25 25 25 26 27 27 29 31 32 34 35 37 39 41 43 45 48 50 51 51 51 52 52 51 49
41 41 42 41 40 39 37 34 32 32 32 33 31 30 28 26 26 26 26 25 25 26 26 27 28 29 32 33 34 36 37 39 41 42 43 46 48 50 50 50 51 52 51 49
42 42 43 42 40 40 38 35 33 32 33 33 33 31 29 29 27 26 26 26 26 26 26 27 28 29 31 33 35 37 37 39 40 42 44 45 47 49 49 49 49 49 50 49
43 44 44 43 41 41 38 36 34 34 32 33 33 32 31 29 28 28 28 28 28 27 27 27 27 28 30 33 35 36 37 38 39 41 43 45 47 48 49 49 49 48 48 48
43 44 46 46 44 42 39 37 36 35 33 33 33 32 32 32 30 28 29 29 29 28 28 28 28 29 30 32 34 35 36 37 38 39 41 42 44 46 47 49 50 49 48 48
44 45 46 46 45 43 40 38 37 37 35 34 34 33 32 32 30 28 29 30 30 29 29 28 28 28 29 32 33 34 36 37 37 38 40 41 41 43 45 46 48 47 47 47
45 45 46 46 46 44 41 40 39 38 36 34 34 32 32 31 31 29 29 30 30 29 29 29 28 28 28 31 32 33 35 36 37 38 39 39 39 41 42 43 45 46 46 46
46 46 46 46 46 45 42 40 40 39 37 36 34 33 32 32 32 31 30 30 30 28 29 29 29 29 29 30 32 33 33 35 37 38 38 39 39 40 41 41 43 44 45 45
47 47 46 46 46 44 43 41 40 39 38 36 34 34 33 32 32 32 31 29 29 29 29 30 30 30 32 33 33 32 34 35 36 38 38 39 40 40 40 41 41 42 43 44
47 47 47 47 45 43 43 42 41 40 38 36 35 35 34 33 32 32 30 29 29 29 29 29 30 31 31 33 33 32 34 34 36 37 37 39 40 40 41 40 40 40 41 42
48 47 48 47 44 43 44 43 41 40 38 36 36 35 34 33 32 31 30 29 29 28 28 27 28 29 30 31 32 33 34 35 35 36 37 38 39 40 40 41 41 40 40 41
47 48 48 47 44 44 43 42 40 39 37 36 35 34 34 32 31 30 29 29 28 28 26 26 26 26 27 28 30 32 34 36 36 37 37 38 39 40 41 41 41 40 40 40
45 47 48 45 44 44 43 41 39 38 37 36 35 33 32 31 30 30 29 28 27 27 26 26 26 26 27 28 29 30 32 35 36 36 37 37 38 38 39 40 40 40 41 40

GEFSCGP_500_meanwind_156.txt.gz
Wind_Speed
27 27 27 27 28 29 29 28 28 29 29 27 26 25 26 26 27 28 30 32 34 36 38 38 39 41 43 46 47 48 50 50 51 52 54 56 57 57 58 58 58 56 55 54
26 26 26 28 29 30 31 29 29 28 29 27 25 25 25 25 25 26 28 30 32 34 35 36 36 38 41 42 44 46 48 49 49 50 51 53 55 56 57 57 57 57 57 56
27 27 27 28 29 30 30 30 29 29 28 27 27 25 23 23 24 25 26 28 30 31 33 35 34 34 36 38 41 42 44 45 44 47 50 52 53 55 56 56 56 56 57 57
29 29 29 29 29 31 30 30 30 28 29 27 28 28 22 23 23 24 24 25 26 27 29 31 33 32 33 35 38 40 42 41 42 44 48 51 52 53 54 55 55 54 56 57
29 29 29 30 31 32 32 32 31 29 28 28 27 27 24 25 24 24 24 24 24 25 26 28 31 30 30 33 36 39 40 41 41 43 45 47 49 51 52 53 54 54 54 56
29 30 31 31 32 32 32 32 32 30 29 28 27 28 28 27 26 25 25 24 23 23 24 26 28 29 29 32 34 36 37 39 40 41 44 44 45 49 52 54 53 53 54 54
28 29 30 31 31 32 33 33 33 32 31 29 29 29 29 28 26 26 26 26 23 23 23 25 26 27 27 29 31 33 35 36 39 40 41 43 44 47 50 52 52 52 53 53
29 29 30 31 32 33 33 34 33 33 32 31 29 28 27 27 26 26 26 26 24 24 23 24 25 26 26 28 30 31 32 34 36 39 40 40 42 45 47 49 49 49 50 51
30 30 30 31 32 33 33 33 32 32 34 33 31 28 26 26 26 26 25 25 24 24 24 24 25 25 26 27 28 28 30 32 34 36 38 39 41 44 46 47 48 48 48 48
31 31 30 31 32 33 33 33 33 33 34 35 33 30 28 27 27 27 26 25 24 24 24 25 24 24 25 25 26 27 29 30 31 33 34 36 39 42 44 47 48 48 47 47
32 32 31 31 32 32 32 33 34 34 34 35 34 30 29 29 29 29 27 25 25 24 23 23 22 22 24 24 26 26 28 30 31 34 35 35 38 42 44 46 48 47 46 46
33 32 32 31 32 33 34 34 34 34 34 35 36 32 30 29 29 29 28 25 24 23 22 22 23 22 23 24 25 28 28 29 30 32 34 35 37 40 43 46 47 48 46 45
34 34 33 33 33 34 35 35 35 35 36 35 36 34 31 30 29 28 28 26 24 23 22 22 22 22 23 24 25 27 29 30 31 32 33 35 36 38 41 45 47 47 45 44
35 34 34 34 34 34 35 35 35 35 36 36 35 34 30 30 29 28 27 26 24 24 24 23 23 23 24 24 25 26 28 28 29 31 32 34 36 37 39 43 45 44 43 43
35 35 35 34 34 34 35 35 35 35 36 37 35 34 32 31 30 29 28 27 26 25 24 23 22 22 23 25 26 28 28 29 29 31 32 33 35 37 39 43 45 45 42 42
36 36 36 35 35 36 36 35 35 35 36 36 36 34 33 31 31 30 29 29 28 26 25 24 23 24 25 26 26 27 29 30 30 31 32 33 34 36 37 40 44 45 44 43
37 37 38 37 37 38 37 36 36 36 36 36 36 35 33 31 30 30 30 29 28 27 26 24 24 24 25 26 27 27 27 29 30 31 33 33 34 35 35 38 41 42 42 43
38 38 39 39 39 39 38 37 37 37 36 36 36 35 34 33 31 31 30 29 28 28 27 27 26 26 27 27 27 27 28 29 30 31 32 33 34 35 35 36 40 39 39 40
38 39 40 40 40 41 38 38 38 38 36 36 36 35 34 33 32 31 30 30 29 29 28 27 26 26 26 27 28 28 28 28 29 30 31 33 34 35 35 36 36 39 39 37
39 39 40 41 42 42 40 39 39 39 38 37 36 35 35 33 32 30 30 30 30 29 29 28 27 26 26 26 27 27 28 28 29 30 31 32 33 34 35 35 36 37 37 36
40 40 41 42 43 43 41 40 40 40 39 37 36 36 36 34 33 32 31 31 31 31 29 29 28 26 26 26 27 26 27 27 28 29 30 31 31 32 34 34 35 36 37 37
41 42 42 42 43 42 41 41 41 41 40 38 37 37 36 35 33 32 32 31 32 31 30 29 29 27 26 26 26 26 26 26 27 29 29 30 31 32 33 33 34 35 36 38
42 42 43 44 43 42 42 42 42 41 40 39 38 38 37 36 34 33 33 32 32 31 30 29 29 28 26 25 25 26 25 26 26 27 28 29 30 31 32 32 32 34 36 37
43 43 44 44 43 42 42 42 42 42 41 39 38 38 37 36 35 34 33 33 32 31 29 29 29 27 26 26 26 25 25 26 26 26 27 28 28 30 31 31 31 32 35 37
43 43 44 43 42 43 42 42 42 41 40 39 38 38 37 37 36 34 33 32 32 30 29 28 27 26 26 26 26 26 25 26 27 27 28 28 28 29 30 31 32 31 33 35
41 42 43 43 43 44 42 41 41 40 39 39 39 38 38 37 36 34 33 32 31 30 28 28 27 26 25 25 26 27 27 27 27 27 28 29 29 29 30 32 32 32 33 35

GEFSCGP_500_meanwind_162.txt.gz
Wind_Speed
23 23 24 25 25 26 27 28 28 28 28 28 28 29 30 30 30 30 30 31 32 32 33 35 37 38 40 42 44 46 48 51 53 54 54 55 55 55 56 56 55 56 58 58
24 24 24 25 26 27 28 28 28 27 28 28 27 28 28 28 27 28 29 31 30 30 31 34 34 35 37 40 42 42 44 47 49 52 52 53 53 54 55 56 55 55 56 58
24 25 25 25 26 28 28 28 27 27 27 28 28 26 25 26 27 27 28 29 30 30 31 32 32 33 35 38 40 40 41 43 45 47 49 50 51 53 54 55 54 55 53 54
24 25 26 26 27 27 27 27 26 27 29 29 30 29 25 26 26 26 28 29 29 30 31 32 31 31 33 35 36 37 39 39 42 45 47 47 48 50 51 53 53 54 53 51
25 26 26 27 27 27 27 27 27 28 30 31 30 29 27 26 26 25 27 28 29 30 31 30 30 29 30 32 33 35 38 38 38 41 44 45 45 46 48 50 51 53 53 52
25 26 27 27 28 28 27 28 29 29 31 31 30 29 27 26 25 25 26 27 28 29 29 29 29 29 30 31 31 33 34 36 37 39 41 42 43 44 45 47 49 51 52 52
26 27 27 28 27 28 29 30 31 32 32 31 30 29 27 27 27 27 27 28 29 28 28 28 29 29 29 30 31 32 32 34 36 37 40 40 41 41 43 45 46 48 50 50
27 27 28 29 29 30 30 31 31 32 32 31 30 29 28 28 28 28 28 28 28 28 28 29 29 29 29 29 30 32 33 33 34 36 38 39 40 41 41 42 44 46 47 49
28 28 28 29 29 30 30 30 31 32 32 32 31 29 28 28 28 28 28 27 28 29 29 29 28 29 28 28 30 33 34 33 33 35 36 37 38 39 40 41 42 44 45 47
29 29 29 29 29 30 30 32 33 32 33 33 32 31 29 29 29 29 28 28 28 30 30 29 29 29 28 29 31 32 32 32 32 33 34 34 34 36 38 39 40 41 43 44
29 30 29 30 30 30 31 31 32 32 33 34 34 33 31 31 31 31 30 29 30 30 31 31 30 30 29 29 30 30 29 30 30 31 30 31 32 34 36 38 39 40 42 43
30 30 30 30 31 31 31 32 32 32 33 34 35 34 32 32 32 33 32 31 31 31 31 31 30 30 29 29 29 29 28 29 30 31 30 29 31 34 34 35 37 39 41 42
31 32 32 31 31 32 32 33 33 33 34 34 35 34 32 33 33 34 33 32 32 32 32 31 30 30 29 29 29 27 27 28 29 30 31 31 31 32 33 34 36 38 39 40
33 32 32 32 32 33 33 33 33 34 35 35 35 34 32 33 34 34 33 33 33 33 33 32 31 29 28 28 28 27 28 27 27 28 30 31 30 31 33 34 34 35 36 36
34 33 33 33 33 34 34 34 34 34 35 35 35 34 34 35 35 34 34 34 33 33 33 32 31 29 28 28 26 25 26 26 26 26 27 28 29 30 32 33 32 33 34 35
34 35 34 34 34 35 35 34 34 35 35 35 35 34 34 36 37 36 35 35 34 34 34 32 31 31 29 27 26 25 25 25 25 25 26 26 27 29 30 31 31 32 33 34
35 36 36 36 35 36 36 34 34 34 34 35 35 35 35 36 37 37 37 36 35 35 34 34 33 31 29 27 26 25 25 26 26 26 26 26 27 28 29 30 29 30 31 32
36 37 37 38 37 38 36 35 35 35 35 35 36 36 36 37 38 38 38 37 37 36 35 35 33 31 29 27 26 26 25 25 25 25 24 25 26 27 28 28 29 30 30 31
36 37 38 38 39 39 36 37 37 37 36 36 36 36 37 38 38 38 38 38 37 37 36 35 32 31 30 28 27 26 26 25 25 25 24 24 25 26 26 26 27 28 29 30
37 37 38 39 40 40 38 38 38 39 38 37 37 38 39 40 39 38 38 38 37 37 36 34 32 31 29 28 28 27 26 25 25 25 24 24 24 24 24 25 25 26 27 28
38 38 38 39 40 40 39 39 39 39 39 39 39 40 40 41 41 40 39 38 38 37 36 34 32 31 30 29 28 28 26 26 25 25 24 23 23 23 24 24 24 25 26 27
39 39 39 39 40 39 39 40 40 40 40 40 40 41 41 41 41 41 40 39 38 37 36 34 32 31 30 29 29 27 26 25 25 24 23 23 23 23 24 24 24 25 25 26
40 39 40 40 40 40 40 40 41 41 41 41 41 41 41 41 40 40 40 39 38 37 35 34 33 31 30 29 28 27 26 25 25 24 22 22 23 23 23 24 24 24 25 25
41 40 41 41 40 41 41 42 42 42 43 42 42 42 41 41 41 40 40 38 37 36 35 34 33 31 30 29 28 27 25 25 25 25 24 24 23 23 23 24 25 25 25 25
42 41 41 41 41 42 42 42 43 43 44 44 43 42 42 41 41 40 39 38 37 36 34 33 32 31 29 28 28 27 27 26 26 26 25 25 24 24 24 25 26 26 27 27
41 41 42 42 42 43 43 43 43 44 44 44 44 43 42 41 41 40 38 38 37 36 35 34 32 30 28 27 27 27 27 27 27 26 25 25 25 25 25 25 26 26 27 27

GEFSCGP_500_meanwind_168.txt.gz
Wind_Speed
16 16 17 17 19 20 22 23 23 23 24 24 25 26 27 28 29 29 30 30 31 32 32 33 33 35 35 36 36 37 38 41 44 46 48 50 52 53 55 56 57 58 58 58
16 17 18 18 19 20 22 23 23 23 24 25 25 25 26 27 28 29 29 28 29 30 30 31 31 31 32 34 35 37 39 40 43 45 47 49 49 50 52 53 55 57 57 57
17 17 18 19 20 21 22 23 23 23 23 24 25 25 26 26 28 28 28 27 27 28 28 28 30 30 31 32 34 37 38 39 41 42 44 46 47 49 50 52 52 53 53 54
18 18 19 20 21 21 22 22 23 24 24 24 25 25 24 25 26 27 26 25 25 26 27 28 29 29 30 31 33 35 37 37 38 39 42 44 45 46 48 49 49 50 52 53
18 19 19 20 21 22 22 23 23 24 25 25 24 25 25 25 25 25 25 25 25 26 27 28 28 29 30 31 31 32 35 36 37 38 39 42 42 44 45 46 47 48 49 50
19 20 20 21 22 23 23 23 24 24 25 25 24 25 25 25 25 25 24 24 25 26 26 27 27 28 28 29 31 32 33 35 37 38 38 40 42 43 44 45 46 47 47 47
21 22 22 22 22 23 23 24 25 26 26 26 25 25 25 25 25 24 24 24 25 26 26 26 25 26 27 29 30 32 32 33 35 37 37 39 40 42 42 44 45 46 46 46
23 22 23 23 23 23 23 24 25 27 28 27 26 25 24 25 25 25 25 25 25 26 26 26 26 27 27 29 30 31 31 31 32 33 35 37 40 41 42 43 45 46 46 45
24 24 24 24 24 24 24 24 26 27 27 27 26 25 24 24 25 25 25 24 25 26 26 26 26 27 29 30 30 29 29 29 30 31 33 34 35 38 42 43 43 44 45 45
26 26 25 25 25 25 25 25 26 27 28 28 27 26 26 25 25 25 25 25 25 25 26 26 26 27 27 27 28 28 28 28 29 30 32 33 34 35 37 39 41 43 43 43
27 27 26 26 25 25 25 26 27 27 28 28 29 27 27 27 27 26 26 26 27 26 27 26 26 27 28 28 29 29 29 28 28 29 30 31 32 33 34 35 37 38 40 41
28 28 27 26 26 26 26 27 27 27 28 27 28 28 27 27 27 27 27 27 27 27 27 26 26 27 28 29 28 28 29 28 27 27 28 29 30 30 31 32 34 36 37 39
29 29 28 28 27 27 27 27 27 28 28 28 28 27 27 27 27 27 27 27 27 27 27 27 27 28 28 28 27 28 28 28 27 26 26 27 28 30 31 32 33 34 35 36
31 30 29 29 28 28 28 28 28 29 29 29 28 27 26 27 27 27 28 27 26 26 27 27 28 28 27 27 28 27 27 27 26 25 25 25 27 28 29 30 31 32 34 34
31 31 30 29 29 29 29 29 29 29 29 30 28 28 27 27 28 28 28 28 27 27 27 27 28 28 27 28 28 28 28 26 25 25 24 25 26 26 27 28 28 29 31 31
33 32 31 30 30 30 30 29 29 29 29 29 29 27 27 28 28 28 28 28 28 28 28 28 28 28 28 29 29 28 29 28 27 26 25 25 25 24 25 26 27 28 28 29
34 34 33 32 31 32 32 29 29 29 29 29 29 27 28 28 29 29 29 29 29 29 30 30 29 29 29 30 30 30 29 29 28 26 25 24 23 23 24 26 27 28 28 29
35 34 34 34 33 34 32 31 30 30 29 29 29 28 29 29 29 29 30 30 30 30 30 30 30 30 30 31 31 31 30 28 28 26 25 24 24 23 24 25 26 27 28 28
35 34 35 35 35 35 33 31 30 30 30 29 29 30 30 30 29 29 30 31 31 31 31 32 31 31 31 32 32 31 30 29 28 26 25 25 24 24 24 25 25 24 25 25
35 35 35 35 36 36 33 32 31 32 31 30 30 31 31 30 30 30 31 31 32 33 32 33 32 32 33 33 32 31 30 28 28 27 26 26 25 24 23 24 24 24 24 24
36 35 35 35 36 36 33 33 33 33 32 32 31 31 31 31 31 31 32 33 33 33 34 34 33 33 33 33 32 32 30 29 28 27 27 26 26 24 23 23 23 22 22 22
37 37 36 36 36 34 33 33 32 33 33 33 33 32 32 32 32 33 34 34 34 34 35 35 34 33 33 33 32 32 30 28 27 27 27 25 24 23 23 22 21 21 22 22
38 37 36 37 36 35 34 33 33 34 33 33 33 33 33 33 33 34 35 35 35 36 36 36 35 34 34 33 33 32 31 29 28 27 26 25 24 23 23 22 21 21 22 22
38 37 37 37 35 35 34 34 35 35 35 35 34 34 34 35 35 35 36 36 37 37 37 36 36 35 34 33 32 31 30 29 28 27 26 25 24 23 23 22 21 21 21 21
38 38 37 36 35 35 35 35 36 36 35 35 35 35 35 36 36 36 36 37 37 37 37 37 36 35 34 32 32 31 30 29 28 27 26 25 24 24 23 23 22 22 22 22
37 36 36 36 35 36 36 36 37 37 36 35 36 36 36 37 37 37 37 37 37 37 37 37 36 34 33 32 31 31 30 29 28 26 25 24 24 24 23 22 22 21 22 22

GEFSCGP_500_meanwind_174.txt.gz
Wind_Speed
20 19 19 19 19 20 21 22 23 24 24 25 26 27 28 29 30 32 32 32 33 33 33 33 34 35 36 37 37 39 40 42 43 43 44 45 46 47 48 49 50 50 50 52
20 20 20 20 20 21 22 23 23 24 24 26 27 27 28 29 30 31 31 31 32 31 32 32 34 34 35 36 36 38 38 38 40 41 42 42 43 45 47 48 48 49 49 51
21 21 21 21 21 22 22 23 23 24 25 26 28 27 27 28 29 29 29 30 31 30 30 32 33 33 33 34 35 35 36 36 37 39 39 40 41 42 45 46 47 47 48 49
22 22 21 21 21 22 22 23 24 25 26 26 27 28 26 27 28 28 28 29 29 29 30 32 32 31 31 33 34 34 34 34 35 37 39 39 40 41 43 45 45 46 46 47
23 23 22 22 22 23 23 23 24 25 26 26 26 29 27 27 27 28 28 28 28 29 30 30 30 30 31 32 31 31 32 33 34 35 36 38 39 41 42 43 44 45 46 46
24 24 23 23 23 23 24 24 25 26 26 26 26 28 28 26 27 28 28 28 28 28 29 29 30 30 30 29 28 29 30 31 32 33 34 36 37 39 41 43 43 43 44 45
25 25 24 23 23 23 24 25 26 27 27 26 26 28 28 27 28 28 28 28 27 28 29 29 29 29 28 27 27 28 29 29 31 32 32 33 35 37 38 39 41 41 42 44
27 26 25 25 24 24 24 25 26 28 28 28 27 28 27 27 28 29 28 27 27 27 28 29 29 28 26 26 26 26 27 27 29 30 30 31 33 34 35 38 39 40 41 42
29 28 27 26 26 26 25 25 26 28 29 29 29 28 27 27 27 28 28 27 26 27 28 28 27 26 26 26 26 26 26 27 28 29 30 31 32 34 34 35 36 38 38 39
31 30 28 28 28 27 27 27 27 28 30 31 30 29 28 27 27 28 27 27 26 27 27 27 25 25 25 26 26 26 27 28 29 29 29 30 32 33 33 33 33 35 36 38
32 32 30 29 28 28 28 28 28 29 30 31 32 31 29 28 28 28 26 25 25 26 26 26 25 25 25 26 27 27 28 29 29 28 29 30 32 33 32 31 32 33 34 36
32 33 32 31 30 29 29 29 29 30 30 31 32 31 29 29 28 27 25 25 25 26 26 25 25 26 26 27 26 27 28 29 29 29 30 30 32 31 30 30 31 32 32 33
34 34 34 33 32 31 30 29 30 30 32 32 32 30 29 29 28 27 26 25 26 25 25 26 27 26 27 26 26 26 27 28 28 29 30 30 30 29 28 28 28 29 30 31
36 36 35 34 33 32 31 30 30 31 32 32 31 29 28 28 28 27 26 25 26 26 27 27 27 27 27 27 27 27 27 28 29 30 32 31 30 29 28 27 27 26 26 27
37 36 35 34 34 34 33 32 31 31 31 31 30 29 28 27 27 27 26 26 26 27 28 29 28 28 27 26 27 28 28 29 31 31 32 31 30 29 28 27 26 25 25 26
38 38 37 35 34 34 34 32 32 31 31 31 30 29 27 27 27 27 26 27 27 28 29 29 28 28 27 27 27 28 29 30 31 31 31 30 29 28 27 26 25 25 26 27
39 38 38 36 35 36 35 32 32 32 31 31 30 29 28 28 28 28 28 28 28 29 29 28 28 28 27 28 28 29 30 30 31 31 30 29 28 28 27 26 25 25 26 26
39 38 39 38 37 38 35 33 32 32 31 30 30 29 29 29 29 30 30 29 28 29 29 28 28 27 28 28 28 29 29 30 30 30 29 29 28 27 26 25 25 25 26 26
39 39 39 39 39 38 35 33 33 32 31 30 30 30 30 30 30 30 30 29 29 30 29 28 28 28 28 29 29 30 30 30 31 31 30 30 29 27 24 24 24 25 25 26
39 39 39 39 39 39 35 33 33 33 32 30 30 30 30 30 30 30 30 30 30 30 30 29 29 28 28 28 29 31 31 31 31 31 31 29 28 26 24 24 24 25 25 25
39 38 38 37 38 38 35 34 34 34 32 31 31 30 30 31 30 31 31 30 30 29 29 29 29 28 28 29 31 31 31 31 31 31 30 29 27 26 25 25 25 26 26 25
38 38 37 37 38 36 33 34 34 33 33 32 32 31 31 31 31 31 31 30 30 30 30 29 29 28 29 30 30 31 31 31 31 31 30 29 28 27 26 26 26 26 26 25
38 38 38 38 37 36 35 34 34 33 33 33 32 32 31 31 31 31 31 31 30 30 30 30 30 30 30 31 31 31 32 32 31 30 30 29 28 27 27 27 27 27 26 25
39 37 38 38 37 36 35 35 34 34 33 33 33 33 33 32 32 31 31 31 31 31 31 31 31 31 31 32 32 32 33 32 31 31 30 29 28 27 28 29 28 28 27 25
38 38 38 38 36 37 36 35 34 34 34 34 33 33 33 32 32 32 32 32 32 31 32 32 32 32 33 33 33 33 33 33 32 31 31 30 29 29 29 29 28 27 26 25
38 37 38 37 35 35 34 34 33 33 33 33 33 33 33 33 33 32 33 33 33 33 33 33 33 33 34 34 34 34 34 34 34 33 32 31 30 30 30 29 28 27 26 25

GEFSCGP_500_meanwind_180.txt.gz
Wind_Speed
25 24 23 23 24 24 24 24 23 23 24 25 25 25 24 25 26 27 28 28 28 29 30 30 31 32 33 33 34 34 35 36 37 38 39 40 41 42 44 46 47 49 50 50
26 25 25 25 26 26 25 25 24 24 25 25 25 25 25 25 26 27 27 27 27 28 30 30 31 32 32 32 33 33 34 35 37 38 39 39 40 42 44 44 45 46 47 48
27 26 26 26 26 26 26 26 25 25 26 26 26 25 24 25 25 26 26 26 27 28 30 30 31 32 32 32 33 33 34 35 37 38 39 40 41 41 42 42 42 43 45 46
29 27 27 27 27 27 26 26 26 26 26 26 26 26 23 24 24 25 25 25 27 28 30 30 30 30 31 32 32 32 33 34 36 37 38 39 40 40 40 40 40 42 44 45
29 28 28 27 27 27 27 26 26 26 26 26 25 27 23 23 23 24 25 26 27 28 29 29 29 29 30 30 31 31 32 33 34 35 36 37 38 38 39 39 39 40 42 44
30 29 28 28 27 27 27 27 27 27 27 27 25 26 24 23 23 24 25 26 26 28 28 28 28 28 29 29 30 30 31 32 32 33 34 35 36 36 37 37 37 38 40 42
31 30 29 29 28 28 27 27 27 27 27 26 25 26 25 23 23 24 25 26 27 28 27 27 27 27 27 27 29 29 30 31 31 32 33 33 33 34 35 36 35 37 38 39
32 31 30 29 29 28 27 27 27 28 27 26 25 25 24 23 23 25 26 27 27 27 27 27 27 26 25 26 27 28 29 30 30 31 31 32 31 32 33 33 34 35 36 37
33 33 31 30 29 29 28 27 27 28 28 27 26 25 24 24 24 25 27 27 27 27 27 26 25 25 25 25 27 28 29 29 30 30 31 30 30 30 31 32 33 34 34 35
33 33 32 31 31 30 29 28 28 28 29 28 28 26 25 24 24 26 26 27 27 26 26 25 24 24 25 25 26 28 29 28 28 28 28 28 27 28 28 29 30 31 32 33
33 33 32 32 31 30 29 29 29 29 30 30 29 27 25 25 25 26 26 27 27 26 25 24 23 23 24 26 26 27 28 27 27 27 27 26 26 26 27 27 28 30 32 32
34 34 33 32 31 31 30 30 29 30 30 30 30 28 26 26 26 26 26 26 26 26 24 23 22 23 24 25 26 26 26 26 27 27 26 25 25 25 25 25 26 27 29 30
35 35 34 33 33 32 31 30 30 30 30 30 30 28 26 26 26 26 26 26 26 25 23 22 22 23 23 24 25 25 25 25 26 25 25 24 24 24 24 25 26 26 27 28
37 37 36 34 33 31 30 30 30 30 30 30 29 28 26 26 26 25 25 25 24 23 22 22 22 22 22 23 24 23 23 24 24 24 24 24 24 24 25 25 26 26 26 26
38 38 36 35 34 34 32 30 30 31 30 30 28 27 26 26 26 25 25 24 23 22 21 22 22 22 22 22 22 22 22 22 21 22 22 23 23 24 25 25 25 26 25 24
38 38 37 36 35 35 34 33 32 31 31 30 29 27 26 26 27 26 25 24 23 22 22 22 22 21 22 21 21 21 21 21 22 22 23 22 24 24 25 25 25 24 24 23
39 38 37 36 35 36 35 32 32 32 30 29 29 26 26 27 27 26 25 24 23 22 22 22 21 21 21 20 21 22 22 22 22 23 24 23 24 25 25 25 25 24 22 22
39 38 37 37 36 37 34 32 32 32 31 30 30 28 27 27 27 27 26 25 24 24 24 23 23 23 22 23 23 23 22 22 22 23 24 24 25 25 25 24 24 23 22 21
41 39 39 38 37 37 34 33 32 32 31 29 29 28 28 28 28 27 26 26 25 25 25 26 25 24 24 23 23 23 23 22 22 23 23 23 24 24 25 25 25 24 22 22
39 39 40 40 39 37 33 32 33 33 32 29 29 29 28 29 28 26 26 26 26 26 26 25 24 24 23 23 23 23 23 24 24 23 23 23 24 24 25 26 25 24 24 24
37 38 39 39 38 37 34 33 32 33 31 30 29 29 29 29 28 27 26 26 26 26 25 25 25 25 24 24 24 24 25 25 24 24 24 24 25 25 26 26 25 26 26 25
35 36 37 37 37 35 33 32 32 31 31 31 30 30 29 29 28 28 27 27 27 26 26 26 26 25 25 25 25 25 25 25 25 25 25 26 26 27 28 27 27 27 27 27
35 35 35 35 35 34 34 33 32 31 30 30 29 30 30 30 29 29 28 28 28 27 27 27 26 25 25 25 25 25 26 26 26 27 27 27 28 29 30 29 29 29 28 27
36 35 35 35 34 34 34 33 32 31 31 30 30 30 30 29 29 29 29 29 28 28 27 26 26 26 25 25 25 26 27 27 27 27 28 29 30 31 31 30 30 30 30 30
35 35 35 35 34 34 33 33 33 32 31 30 30 30 30 30 30 30 30 30 29 29 27 26 25 25 25 25 26 27 28 28 29 29 30 31 31 32 31 31 31 32 32 32
33 34 34 34 33 33 32 32 32 31 31 31 31 31 31 31 31 31 31 31 30 29 28 27 27 27 27 26 27 28 29 30 30 31 32 32 33 32 32 32 33 33 34 35

GEFSCGP_500_meanwind_186.txt.gz
Wind_Speed
32 31 29 28 29 30 30 29 28 28 29 29 28 27 26 27 27 27 27 28 28 28 29 29 30 31 32 33 34 35 35 35 36 36 37 37 38 39 40 41 42 43 43 44
33 31 29 31 31 31 31 30 29 29 30 30 29 28 27 27 27 27 27 28 28 28 29 30 31 32 33 33 34 34 35 35 36 36 36 36 37 39 40 41 42 43 44 44
34 32 32 32 31 31 31 31 30 30 30 31 30 29 27 28 28 27 27 28 28 29 29 30 31 32 33 33 33 34 35 35 36 36 36 37 38 39 40 41 42 43 43 44
35 34 33 32 32 32 31 31 31 31 31 31 31 31 27 28 28 27 27 27 28 29 30 30 31 31 32 33 34 34 35 35 35 36 36 37 38 38 39 40 41 41 41 42
35 34 34 33 32 32 32 31 32 32 33 32 31 32 28 27 27 27 27 28 28 29 30 30 30 31 32 32 33 34 34 34 34 36 36 37 37 38 38 39 40 40 41 41
36 35 35 34 33 33 32 32 32 33 34 34 31 32 29 26 26 26 27 28 28 29 29 30 30 30 30 31 32 33 33 34 34 35 36 36 37 37 37 38 39 39 39 40
37 36 35 35 34 33 33 33 33 34 35 34 31 32 30 27 26 27 27 28 28 29 29 29 29 29 29 30 31 32 32 33 33 34 35 35 35 36 37 37 36 36 36 37
37 37 36 35 34 33 33 33 33 34 34 32 31 31 29 28 27 27 27 27 28 28 28 29 29 29 29 30 31 31 30 31 32 34 34 33 34 34 35 35 34 33 34 34
37 37 36 35 35 35 34 34 33 33 34 33 33 31 29 28 27 26 26 27 27 28 28 28 29 29 30 30 30 31 31 31 32 32 32 32 33 33 33 33 33 32 32 33
38 38 37 36 36 36 35 34 33 34 34 34 33 31 29 27 26 26 26 26 27 28 28 28 29 30 30 31 31 31 31 31 31 31 31 32 32 31 31 31 31 31 31 31
37 38 38 38 37 36 35 35 34 34 35 34 34 31 29 28 27 26 26 26 27 27 27 28 29 30 31 31 31 30 30 30 30 30 30 30 30 29 29 29 29 30 30 29
37 38 38 37 37 37 37 35 34 34 34 34 34 32 29 28 27 26 26 26 27 27 27 28 29 29 29 29 29 28 29 29 29 28 28 28 27 27 27 28 28 28 28 28
38 39 38 38 37 37 37 36 35 35 35 35 34 32 29 29 28 27 27 26 27 27 27 27 27 27 28 28 27 27 27 27 27 27 26 26 25 26 26 27 27 27 26 27
40 41 40 39 37 35 35 35 35 35 35 35 34 32 29 28 28 28 27 27 27 27 27 27 27 27 27 27 26 26 26 26 26 26 24 24 24 25 25 25 25 25 25 26
41 41 41 39 38 37 36 35 35 35 35 36 34 33 30 28 28 28 28 27 28 27 27 26 26 26 26 26 25 25 25 25 25 25 24 23 23 24 24 24 24 24 24 24
40 41 41 40 39 39 38 36 35 34 34 34 34 32 30 29 29 28 28 28 27 26 25 25 25 25 25 25 24 24 24 24 24 24 23 22 23 23 23 24 24 24 24 23
38 38 39 40 40 40 40 37 35 34 32 32 32 30 30 29 29 28 28 28 27 26 25 25 26 25 24 23 23 23 23 24 24 24 23 22 23 24 24 24 24 24 24 24
36 37 38 39 39 40 38 36 35 35 34 32 32 31 31 29 28 28 28 28 27 26 26 26 25 25 24 23 23 23 23 23 23 22 22 23 23 24 25 25 25 24 24 25
35 36 37 37 38 38 38 36 34 34 34 33 32 31 31 30 29 28 27 27 26 26 26 26 25 25 24 23 23 23 23 23 23 23 23 23 24 25 25 25 25 24 25 25
34 35 36 35 36 37 36 36 35 34 34 33 32 31 30 30 29 27 28 28 28 27 27 26 25 24 24 24 24 24 23 22 23 23 24 24 25 26 25 25 25 25 26 26
33 33 35 35 34 34 34 34 34 34 33 32 31 31 31 30 29 29 29 29 28 27 27 27 26 25 25 26 25 24 23 23 24 25 25 25 26 26 26 25 25 26 27 27
32 33 34 35 34 33 32 33 34 34 32 31 31 31 30 30 30 29 29 29 28 27 27 27 27 27 27 25 25 24 24 25 25 25 26 26 26 26 26 27 27 28 28 28
31 32 32 33 33 32 32 32 34 34 33 32 31 31 30 30 30 29 29 29 29 28 28 27 28 27 26 25 25 25 25 26 26 26 26 26 26 26 27 28 28 28 28 29
31 32 33 34 33 32 33 32 33 33 33 33 32 31 30 30 29 29 29 29 28 28 28 27 27 27 26 26 25 26 26 26 27 28 28 27 27 27 28 29 29 30 30 30
29 31 33 33 32 33 33 33 32 32 32 32 31 30 30 30 29 29 28 28 28 28 28 28 28 27 27 26 27 27 26 27 27 28 27 27 28 28 29 30 31 31 31 30
28 30 31 32 32 33 33 33 33 32 31 32 31 30 30 30 29 29 28 28 28 28 29 28 28 28 27 27 27 27 27 27 28 28 28 28 29 30 31 31 31 31 31 30

GEFSCGP_500_meanwind_192.txt.gz
Wind_Speed
37 37 36 35 35 34 34 33 32 32 32 32 32 31 30 31 31 30 30 30 30 29 29 29 29 30 30 30 30 30 30 31 32 33 34 34 35 36 36 36 37 38 38 38
38 37 36 36 36 36 35 34 33 33 33 33 33 32 31 31 31 31 31 30 30 30 29 29 30 29 29 29 29 30 30 31 32 33 33 34 34 35 35 36 37 38 38 39
38 38 37 37 37 37 36 34 33 34 34 34 34 33 32 31 31 31 30 30 30 29 29 29 29 29 29 29 29 30 30 30 31 31 32 33 33 34 35 36 37 37 38 38
39 39 38 38 37 37 36 35 35 35 35 35 35 34 32 32 31 30 29 29 29 29 29 29 29 29 29 29 29 30 30 30 30 30 31 32 33 33 34 35 36 37 37 37
40 39 39 39 37 37 36 36 36 36 36 36 35 36 32 31 30 29 28 29 29 29 29 29 29 29 29 29 29 30 30 29 30 30 31 32 33 33 34 35 35 36 36 37
39 40 40 39 38 38 37 37 37 37 37 38 35 35 33 30 29 28 28 28 29 29 29 29 30 30 30 30 30 30 30 30 30 31 32 32 32 33 34 35 35 35 35 36
38 39 40 40 39 38 37 37 37 37 38 38 35 35 33 30 29 28 29 29 29 29 29 29 29 30 30 30 30 30 30 30 31 31 31 32 32 33 34 34 34 35 36 36
39 39 40 40 39 38 37 37 37 37 37 36 36 35 33 30 28 28 28 29 29 29 29 29 29 30 29 29 29 30 30 30 31 31 32 32 33 33 33 34 34 35 36 37
39 39 39 39 38 38 38 38 36 37 37 36 36 35 32 30 28 28 28 28 29 29 29 29 30 30 30 30 29 29 30 30 31 31 32 33 33 33 34 34 35 35 35 36
38 39 38 38 39 38 37 36 36 36 36 36 36 35 32 30 28 28 27 28 28 29 29 29 29 30 30 30 30 30 31 31 31 32 33 33 34 34 34 35 35 35 34 35
37 39 39 39 39 38 38 36 36 36 36 35 35 34 31 29 28 27 27 27 28 28 28 28 29 29 29 30 30 31 31 32 32 33 33 34 35 35 35 36 35 35 35 35
35 37 38 38 38 37 37 37 36 35 35 35 35 34 31 29 28 28 27 26 26 27 27 28 28 28 29 29 30 31 31 32 33 33 33 34 35 35 35 35 35 34 34 33
33 35 36 37 37 37 37 37 37 36 36 35 34 34 31 30 28 27 27 26 26 26 27 27 27 27 28 28 29 30 31 32 32 32 33 34 34 34 34 34 33 32 31 31
35 34 35 35 36 36 36 36 36 37 36 35 34 32 30 29 29 28 27 26 26 26 26 27 26 26 27 27 28 28 29 30 31 32 33 33 34 34 33 32 31 30 29 29
34 35 35 35 35 35 36 37 37 36 36 35 34 32 30 29 29 28 27 26 27 27 27 26 26 26 26 27 27 27 28 29 30 30 31 31 32 31 30 29 28 28 28 27
32 33 34 34 35 35 35 35 36 36 36 35 35 33 31 30 29 28 28 27 27 27 27 26 26 26 27 27 27 27 27 28 28 29 30 30 30 28 27 27 27 27 26 26
30 31 32 32 32 33 34 34 33 34 34 35 35 33 31 30 30 29 29 28 28 27 27 26 26 26 27 26 26 27 27 27 28 28 28 28 27 26 26 26 26 26 26 26
29 30 31 30 31 32 31 31 32 32 33 34 34 32 32 31 30 30 30 30 30 28 27 27 26 27 27 26 26 27 27 27 27 27 27 26 25 25 25 25 26 25 25 26
28 29 29 30 31 31 30 30 30 31 31 32 32 32 32 31 30 30 30 30 29 29 28 28 27 27 27 27 26 26 26 26 26 26 25 24 24 24 25 25 25 25 25 25
28 28 29 29 30 30 29 29 29 30 30 30 31 31 31 31 30 29 29 29 28 28 28 27 27 26 26 27 26 26 25 25 25 24 24 24 24 23 24 24 24 24 24 24
26 28 28 28 29 30 29 28 29 29 29 29 30 30 30 30 30 30 29 29 28 27 27 27 27 26 26 26 26 25 25 24 24 24 24 24 24 23 23 23 23 23 23 24
25 25 26 28 29 29 29 29 29 28 28 28 28 29 29 29 29 30 30 28 28 27 26 27 26 26 25 25 25 24 24 24 24 24 23 23 22 22 21 21 22 22 22 22
24 25 25 25 26 26 27 28 28 27 27 26 27 27 28 28 28 29 29 28 27 26 25 25 25 25 25 24 23 23 22 22 22 21 21 21 21 20 20 21 21 22 22 22
23 24 25 25 24 25 26 27 28 28 27 26 26 27 27 28 28 28 28 27 27 25 24 25 25 25 25 24 23 22 22 22 22 21 21 21 21 21 20 21 21 20 21 21
23 24 25 24 24 25 25 26 27 27 27 26 26 26 26 26 27 27 27 26 26 25 25 24 24 24 24 23 23 22 21 21 21 21 20 20 20 20 20 21 21 20 21 21
24 24 25 24 25 25 25 25 26 27 28 27 26 26 26 26 25 26 26 25 25 24 23 23 23 23 23 22 22 21 21 20 20 20 19 19 20 20 20 21 21 21 22 21

GEFSCGP_500_meanwind_198.txt.gz
Wind_Speed
39 39 40 38 38 38 38 38 38 38 37 38 38 37 35 35 35 34 33 33 33 33 32 32 32 32 32 32 32 32 32 32 32 33 33 33 34 34 34 34 35 35 35 36
40 39 38 39 38 39 39 38 38 39 37 38 38 37 36 35 34 34 33 33 33 33 33 32 32 32 32 32 32 32 32 32 32 33 33 34 34 34 35 35 35 36 36 36
39 38 38 39 40 40 39 38 38 38 37 38 38 38 36 34 34 34 33 33 33 33 32 32 32 32 32 32 32 32 32 32 32 32 33 34 34 35 35 35 35 35 36 36
39 39 39 40 40 40 40 39 38 38 38 38 38 39 37 35 34 34 33 32 32 32 33 33 32 32 32 32 32 32 31 32 32 32 33 33 34 34 34 34 34 35 36 36
38 38 39 40 39 39 39 39 39 39 39 39 39 40 38 35 34 33 32 32 32 33 33 33 32 32 32 32 32 32 32 32 32 32 33 33 33 34 34 34 34 35 36 36
37 38 39 39 39 39 39 39 39 39 40 41 38 39 38 35 34 33 33 33 33 33 33 33 33 33 33 32 32 32 32 32 32 33 33 33 33 34 34 34 35 36 36 36
37 38 38 39 40 40 40 40 39 40 41 41 38 39 38 35 34 33 33 33 33 33 33 33 33 33 33 33 33 33 33 33 33 33 33 33 34 34 34 35 35 36 36 36
37 37 37 38 39 40 40 39 40 40 40 40 39 39 37 35 35 33 33 33 33 33 33 33 33 33 33 33 33 33 33 33 33 33 33 34 34 34 35 35 35 36 36 36
35 35 35 37 37 38 39 39 38 38 39 39 39 38 37 36 35 33 33 33 32 32 33 33 33 33 33 33 33 33 33 33 33 34 34 34 35 35 35 35 35 36 37 37
33 34 34 36 37 38 38 37 37 37 37 37 37 36 35 34 34 33 33 32 32 32 32 32 33 32 33 33 33 33 34 34 34 34 34 35 35 35 35 35 36 37 37 37
30 32 34 36 37 37 37 38 38 37 37 36 35 35 33 33 34 34 33 32 32 31 31 32 32 32 32 33 33 33 33 33 33 34 35 35 35 35 35 35 36 36 37 37
29 30 31 33 34 35 36 37 38 37 36 35 35 34 33 32 32 33 33 32 32 31 31 31 31 31 32 32 32 32 32 32 33 34 34 34 34 34 35 35 36 36 36 36
30 30 29 30 33 36 37 36 37 38 37 36 35 34 32 32 32 32 32 32 32 31 31 30 31 31 31 31 32 32 32 32 33 33 33 33 33 33 34 34 35 35 35 35
30 31 31 30 30 33 35 36 38 38 39 38 37 35 33 32 31 30 30 31 31 31 31 31 31 31 30 31 31 31 32 32 32 32 32 32 31 32 32 33 33 34 34 34
29 31 31 31 30 32 33 34 36 37 37 38 37 36 36 34 32 30 30 30 30 29 29 30 30 30 30 30 30 30 30 30 31 30 30 29 30 30 31 31 32 32 32 32
28 29 29 30 29 30 33 33 33 34 35 36 36 36 36 36 36 34 32 31 30 29 29 29 30 29 29 29 29 29 29 29 29 29 29 29 29 29 29 30 30 30 30 30
26 27 28 27 28 29 30 31 32 32 32 33 35 35 36 36 35 35 35 34 31 30 29 29 28 28 29 28 28 28 28 28 28 29 29 29 28 28 29 29 29 29 29 28
24 25 26 26 27 28 27 28 30 30 31 32 33 33 35 35 35 35 35 35 33 32 30 29 29 28 28 28 28 28 28 28 28 28 28 28 28 28 28 28 28 28 27 27
24 25 26 25 26 27 27 27 28 30 30 31 32 32 32 33 34 34 34 34 33 33 31 30 29 28 28 28 28 28 28 28 28 28 27 27 27 27 28 28 27 27 27 27
24 25 26 26 26 26 26 27 28 29 29 29 30 31 31 31 32 32 32 33 33 32 31 31 30 29 28 28 28 28 28 28 28 28 27 27 26 26 26 26 26 26 26 27
22 23 24 24 25 25 25 26 27 29 29 29 29 29 30 30 30 31 31 32 32 31 31 31 30 30 29 28 28 27 27 27 27 27 26 26 26 25 25 25 25 25 25 25
20 21 22 23 24 24 24 25 26 27 27 28 29 29 29 28 28 29 30 30 31 31 30 30 30 30 30 29 28 27 26 26 26 26 25 25 25 24 24 24 24 24 24 24
20 21 22 24 23 23 23 24 25 25 26 26 27 28 28 27 28 28 28 29 29 30 29 29 29 30 30 29 29 28 26 26 26 25 25 25 25 24 24 23 23 23 24 24
20 21 23 23 23 24 23 23 24 25 25 25 25 26 28 28 27 27 27 27 28 28 28 28 28 28 29 29 29 28 26 26 25 25 24 24 24 24 24 24 24 23 23 22
21 22 23 24 24 24 24 24 23 24 25 25 25 26 26 28 27 27 26 26 27 27 27 26 26 27 27 28 28 27 27 26 25 24 24 24 24 24 24 23 23 22 21 20
21 21 23 24 24 24 23 23 23 23 24 25 26 25 26 26 27 27 26 26 26 26 26 25 25 25 26 26 26 26 26 25 25 24 23 23 23 22 22 21 21 20 20 19

GEFSCGP_500_meanwind_204.txt.gz
Wind_Speed
38 38 38 38 38 39 39 39 39 38 38 39 39 39 38 38 38 38 37 36 35 33 32 32 32 32 31 31 30 30 31 31 31 31 31 32 32 32 33 33 33 34 35 35
37 37 37 38 40 40 39 39 39 38 38 39 39 39 39 38 38 37 37 36 35 34 33 32 32 31 31 30 30 30 30 31 31 31 31 31 32 32 32 33 33 34 35 35
35 35 37 39 41 41 40 39 39 39 39 39 39 39 39 38 38 37 37 36 35 34 33 33 32 31 31 31 30 30 30 31 31 31 31 31 32 32 32 32 33 34 35 35
34 35 36 38 39 40 40 39 39 39 39 39 39 40 39 38 38 37 36 35 35 34 34 33 32 32 31 31 31 31 31 31 31 31 31 31 31 31 32 32 33 33 34 35
33 34 36 37 37 38 39 38 39 39 40 40 39 40 38 38 37 36 36 35 35 35 34 34 33 32 32 32 32 31 31 31 31 31 31 31 31 31 31 32 32 33 34 34
30 33 34 35 35 37 38 39 39 39 40 41 39 40 39 37 36 36 36 35 35 34 34 34 33 33 32 32 32 32 31 31 31 31 31 31 32 31 31 32 32 33 34 34
29 31 32 33 34 35 37 38 39 40 41 41 39 40 39 37 36 35 35 35 35 34 34 33 33 33 33 32 32 32 32 32 32 32 32 32 32 32 32 32 33 33 34 34
28 29 30 32 33 33 35 36 37 39 41 39 38 39 37 36 36 35 34 34 34 34 34 33 33 32 32 32 33 33 33 33 32 32 32 33 33 33 33 33 33 34 34 34
27 27 28 30 32 32 33 35 36 36 38 39 38 37 36 36 35 35 34 34 34 34 33 33 33 32 32 32 32 33 33 33 33 32 32 33 33 33 34 34 34 34 34 34
26 27 27 28 30 33 32 33 35 36 37 38 38 37 36 35 34 34 34 34 34 33 33 33 33 33 32 32 32 33 33 33 33 33 33 33 33 33 34 34 33 33 34 33
25 26 27 28 30 31 32 32 34 35 36 36 36 36 35 35 34 33 33 33 33 33 33 33 33 33 33 33 33 33 32 33 33 33 33 33 33 33 33 33 33 33 33 33
23 25 26 27 29 31 32 31 32 33 35 35 34 34 33 34 33 33 32 32 32 33 32 32 32 32 32 32 32 32 32 32 32 33 33 33 33 33 33 33 33 33 33 33
22 24 25 26 28 30 31 31 31 32 34 35 34 33 32 32 33 32 32 32 32 32 32 32 32 32 31 31 32 32 32 32 32 33 33 32 33 33 33 33 33 33 33 33
23 23 24 25 26 27 29 30 31 32 34 35 34 32 31 31 32 32 32 32 32 31 32 32 32 31 31 31 31 31 31 32 32 32 32 32 32 33 32 33 33 32 31 30
24 24 24 24 25 27 27 28 30 31 32 33 33 32 31 30 31 32 32 32 32 32 32 32 32 32 31 31 30 30 31 31 31 32 31 31 31 31 31 31 31 30 29 29
24 25 24 24 24 26 27 28 30 30 31 32 32 32 31 30 30 31 31 32 33 33 33 33 32 32 31 31 30 30 30 30 31 31 31 31 31 30 30 30 30 29 29 29
23 25 24 23 24 25 26 26 28 29 29 30 30 30 30 30 30 31 31 32 33 33 34 33 32 32 31 31 30 30 30 30 30 30 30 30 30 29 29 28 28 27 28 28
21 23 24 24 24 25 25 25 26 28 28 29 29 29 29 29 30 31 31 32 33 34 33 33 32 31 31 31 31 30 30 30 30 29 29 28 28 28 27 27 27 27 26 27
20 21 22 22 24 24 23 24 25 27 28 29 29 29 29 29 30 31 31 31 32 33 33 33 33 32 31 30 30 30 30 30 29 29 28 27 27 26 26 26 26 26 26 26
19 20 21 22 23 22 21 23 24 25 27 28 28 29 29 29 29 29 30 30 30 31 32 32 32 32 31 31 30 29 29 29 28 28 28 27 26 25 25 25 25 25 25 25
18 20 21 21 22 22 21 23 23 24 25 26 27 28 29 29 29 28 29 29 29 30 31 32 32 32 32 31 30 30 29 28 28 28 28 27 26 26 25 25 25 25 25 25
17 19 20 21 22 21 21 22 24 23 24 25 25 26 27 28 29 29 29 28 28 29 30 31 31 32 32 32 31 30 29 28 28 28 27 26 26 26 25 25 25 25 25 25
18 19 20 20 20 20 21 22 23 23 24 25 25 25 25 26 27 28 29 29 28 28 29 29 30 31 31 31 31 30 29 29 29 28 27 26 26 25 25 24 25 25 25 24
18 19 20 21 21 21 21 22 22 23 24 24 25 26 26 25 26 27 27 28 29 29 29 29 29 29 30 30 30 30 30 29 29 28 27 26 25 25 24 24 24 25 24 23
18 19 20 21 22 22 22 22 22 22 23 24 25 26 26 26 26 26 27 27 28 28 28 28 29 29 28 28 29 30 30 30 29 28 27 26 25 25 24 24 24 24 24 23
19 20 20 21 21 22 22 22 22 23 23 23 24 25 25 26 26 26 26 28 28 28 28 28 27 28 27 27 27 28 28 28 28 28 27 26 25 25 24 24 23 23 22 22

GEFSCGP_500_meanwind_210.txt.gz
Wind_Speed
34 36 38 39 40 40 40 41 40 40 41 42 42 42 41 41 41 40 40 40 39 38 38 37 36 35 35 35 34 34 33 33 33 33 32 32 32 32 32 32 32 32 32 33
33 36 35 37 38 39 40 40 40 39 40 41 41 42 42 41 40 40 40 40 40 39 38 38 37 36 35 34 34 34 33 33 33 32 32 32 32 32 32 32 32 32 33 33
33 33 34 36 38 38 39 39 40 40 39 40 41 41 41 41 41 40 40 40 40 40 39 38 38 37 36 35 34 33 33 33 33 32 32 32 31 31 31 31 31 32 33 33
30 32 33 35 37 37 37 37 38 40 40 41 42 42 41 41 41 40 40 40 40 40 40 39 38 37 36 35 34 33 33 33 33 32 32 31 31 31 31 31 32 32 33 33
28 30 31 33 34 35 35 35 36 38 39 41 42 42 40 40 40 40 39 39 40 40 40 39 38 37 36 35 34 34 33 33 32 32 32 32 31 32 32 32 32 33 33 33
27 29 29 30 32 33 34 34 36 36 38 41 40 41 40 39 39 39 39 39 38 39 39 39 38 37 37 36 35 34 33 33 33 32 32 32 32 32 32 32 33 33 33 33
25 27 28 30 31 32 33 34 34 36 38 39 39 40 40 38 38 38 38 38 38 38 39 38 38 37 36 36 35 34 34 33 33 33 32 32 32 32 32 33 33 33 33 34
24 26 27 29 30 31 32 33 33 34 36 36 37 38 38 37 37 37 37 37 38 38 38 39 38 38 37 36 35 35 34 34 34 33 33 33 33 33 33 33 33 33 33 34
22 24 26 27 27 29 30 32 32 33 34 35 36 36 35 34 34 35 35 36 37 37 38 39 38 38 37 36 36 35 35 35 34 34 34 34 33 33 33 33 33 33 34 34
21 23 25 26 28 29 29 31 32 32 33 34 35 35 34 33 32 33 34 35 36 37 37 38 38 38 38 37 36 36 36 35 35 35 35 34 34 33 33 33 33 34 34 34
20 21 23 25 27 28 28 30 32 31 31 33 34 34 33 32 32 33 33 33 35 36 36 37 38 38 37 37 36 36 36 36 35 35 35 34 34 34 33 33 33 33 33 33
21 21 22 22 23 25 27 29 30 30 30 31 32 32 31 31 32 32 32 32 33 35 35 36 37 37 37 37 36 36 36 36 35 35 35 35 34 34 34 34 33 33 33 33
21 22 23 24 24 23 25 28 29 29 29 30 31 30 30 30 31 32 32 33 33 33 34 35 36 36 36 36 36 36 36 36 36 35 35 35 34 34 34 34 34 33 33 33
21 22 23 24 24 24 24 25 28 29 29 29 29 28 29 29 29 30 31 32 33 33 33 34 34 35 36 36 35 35 36 36 36 36 35 35 35 35 34 34 34 33 34 34
22 22 22 23 24 24 24 24 26 28 28 29 27 27 27 27 28 28 29 30 31 32 33 33 34 34 35 34 35 35 35 35 35 35 35 35 35 35 34 34 34 34 34 34
21 22 22 22 24 24 24 25 25 27 28 28 28 27 26 27 27 28 28 29 30 32 33 33 34 34 34 34 34 34 35 35 35 35 35 35 35 34 34 34 34 34 34 34
20 21 22 22 23 24 25 24 25 26 27 28 28 27 27 27 28 29 29 29 29 30 31 32 34 34 33 33 34 34 34 34 34 34 34 34 35 34 33 34 34 34 34 34
20 20 21 23 24 24 23 25 25 26 27 28 27 27 28 28 28 28 29 29 28 29 30 32 33 34 34 34 34 34 34 34 34 34 34 34 34 34 33 33 33 33 33 32
19 21 21 22 23 23 23 24 24 26 26 27 27 27 28 28 28 28 28 29 29 29 29 30 32 33 34 34 34 34 34 34 34 34 33 33 33 33 32 32 32 31 31 30
19 20 21 22 22 22 22 23 24 25 25 27 28 28 28 28 29 28 29 29 29 29 29 30 31 32 34 34 35 34 34 34 34 34 33 32 32 32 32 31 30 30 29 29
18 19 21 22 23 22 22 23 23 24 24 26 27 28 29 29 29 29 29 30 30 30 30 30 30 31 32 34 34 34 34 33 33 33 33 33 32 31 30 30 29 29 28 28
18 19 20 21 22 22 22 22 23 23 23 24 26 27 28 29 30 30 30 30 30 30 31 31 30 31 31 32 33 33 33 33 33 33 33 32 32 31 30 30 29 28 28 27
19 20 20 21 21 21 22 22 23 23 24 24 25 26 27 27 28 30 30 30 30 31 31 32 32 31 31 31 32 32 33 34 34 34 33 32 32 31 30 30 29 28 27 27
19 20 21 21 21 21 22 22 23 24 25 25 25 26 27 27 27 28 29 29 29 30 31 32 32 32 31 31 31 31 32 33 33 33 33 32 32 31 30 30 29 28 27 26
21 21 21 21 21 22 22 22 23 24 25 25 25 26 26 26 26 27 27 28 29 29 31 31 31 31 31 31 31 31 31 32 32 32 32 32 31 30 29 29 28 28 27 26
22 22 22 22 22 22 22 22 22 23 23 24 24 24 24 25 25 25 26 27 28 28 29 30 30 31 31 30 30 31 31 31 31 30 30 30 30 30 29 28 27 27 26 26

GEFSCGP_500_meanwind_216.txt.gz
Wind_Speed
26 28 30 31 33 34 36 38 39 41 40 41 42 43 44 44 44 44 43 42 41 41 41 40 39 38 38 38 37 37 37 36 36 35 35 35 34 34 33 33 33 32 32 33
25 27 28 29 30 32 34 36 38 39 40 41 42 42 43 43 44 43 43 43 42 41 41 40 39 39 38 38 38 37 37 36 36 35 35 35 35 34 34 34 33 33 33 33
25 25 27 28 29 30 31 34 35 37 38 40 41 42 42 42 43 43 43 42 42 42 41 40 39 39 39 38 38 37 37 36 36 35 35 35 35 35 34 34 34 34 34 34
23 25 26 27 28 28 29 31 33 34 36 38 40 41 41 41 41 41 41 41 42 42 41 40 40 39 39 39 38 37 37 37 36 36 35 35 34 34 34 34 34 34 33 33
21 24 25 26 27 27 29 29 30 31 33 36 37 39 40 39 39 39 39 39 40 41 41 41 41 41 40 39 38 38 37 37 37 36 35 35 35 34 34 33 33 33 33 33
20 22 23 24 26 27 27 28 29 30 32 34 35 36 37 38 37 37 37 37 38 40 40 41 41 41 41 40 39 39 38 37 37 36 35 35 35 34 34 34 33 32 33 33
18 20 22 24 26 26 27 27 27 29 30 32 32 33 34 35 36 36 37 37 38 38 39 40 40 40 40 40 40 39 39 38 37 36 36 35 35 34 33 33 33 32 33 33
16 18 20 22 25 25 26 27 28 29 30 30 31 32 32 33 34 35 35 36 37 37 37 38 39 40 40 40 40 39 38 38 37 37 36 36 35 34 33 33 33 32 33 33
17 17 18 20 22 24 25 25 27 27 28 29 30 30 31 31 32 34 34 35 36 36 37 37 37 38 38 38 39 39 38 38 37 37 36 36 35 35 34 34 33 33 33 33
16 16 17 18 19 22 24 24 25 26 26 27 28 28 29 29 29 30 32 34 35 35 36 37 37 37 37 37 38 38 38 37 37 37 36 36 35 35 35 34 34 33 33 33
15 16 17 19 19 20 22 24 24 24 25 26 27 27 27 27 27 28 29 31 33 34 35 36 36 37 37 37 37 38 38 37 37 37 36 36 35 35 35 34 34 33 33 32
14 16 17 18 18 20 22 23 23 24 25 25 26 27 26 26 26 26 28 29 30 32 34 35 36 36 37 37 38 38 38 38 38 37 37 36 36 35 35 35 34 34 33 32
14 15 17 19 19 20 21 23 23 25 25 25 26 27 27 27 27 26 26 28 29 30 31 33 35 36 36 37 37 38 38 38 38 37 37 37 36 36 36 36 35 34 34 33
15 15 16 18 19 19 20 21 22 24 25 24 24 25 26 27 27 27 27 27 28 29 29 31 33 34 35 36 36 37 38 38 38 37 37 37 37 36 36 36 36 35 34 34
15 15 15 17 19 20 19 20 22 23 23 24 23 24 24 26 27 27 28 28 28 29 29 30 31 32 34 35 35 36 37 37 37 37 37 37 37 36 36 36 36 35 35 34
15 14 14 15 18 19 20 21 21 22 22 22 23 23 24 25 27 27 27 27 27 28 29 30 30 30 31 33 34 35 35 36 36 37 36 36 36 36 36 35 35 35 34 34
15 16 15 15 16 18 20 21 22 22 22 22 23 23 25 26 27 27 28 27 27 28 29 29 29 30 30 31 32 33 34 35 36 36 36 36 35 36 36 35 35 34 34 34
14 16 17 17 17 18 18 20 22 23 23 24 24 24 25 26 27 27 28 28 28 28 28 29 29 30 30 30 31 32 33 34 34 34 35 35 35 35 35 35 35 35 34 35
14 16 17 18 18 18 19 20 21 23 23 24 24 25 25 26 27 28 29 30 30 30 30 30 30 30 30 31 31 31 32 33 33 33 34 34 34 35 35 35 35 35 35 35
15 16 18 19 19 19 19 20 21 22 24 24 25 25 26 26 27 28 29 30 31 31 31 31 31 31 31 31 31 31 31 32 33 33 33 33 34 34 34 34 34 35 34 34
16 16 18 19 19 20 20 20 21 22 23 24 25 26 26 26 27 28 29 29 30 31 31 31 31 32 32 32 32 31 31 31 32 32 32 32 33 33 33 33 33 33 33 33
17 17 18 19 20 20 20 20 22 22 22 23 24 25 26 26 26 27 28 29 29 30 30 30 30 31 31 31 32 32 32 31 31 31 32 33 33 33 32 32 32 32 32 31
17 18 19 20 20 21 21 21 21 22 23 24 24 25 26 26 26 26 27 28 28 29 30 30 30 30 31 31 31 31 31 31 31 32 32 33 33 33 32 32 32 32 31 31
17 18 19 19 20 21 21 22 22 23 23 23 24 24 25 26 26 26 26 28 28 28 29 30 30 31 31 31 31 31 31 31 31 31 32 33 33 33 33 32 31 31 30 30
19 19 19 19 19 20 20 21 22 22 23 23 24 24 25 25 25 25 26 27 28 28 29 30 30 30 31 31 31 31 31 32 31 31 31 32 32 33 33 32 31 30 30 29
20 20 20 19 19 20 20 21 22 23 23 24 24 24 24 25 25 25 25 26 27 28 28 29 29 30 30 30 30 31 31 32 32 32 31 31 32 32 32 31 31 30 29 28

GEFSCGP_500_meanwind_222.txt.gz
Wind_Speed
22 24 25 25 27 29 30 31 33 33 34 36 37 38 39 41 42 43 44 43 43 44 45 45 44 43 42 41 40 40 39 38 38 37 37 36 34 33 33 33 32 31 31 31
19 22 22 24 26 27 28 30 31 32 33 35 36 37 39 40 40 41 42 43 43 44 45 44 43 43 42 41 40 40 40 39 39 38 38 37 36 35 34 34 33 32 32 32
18 19 20 23 26 28 28 29 30 30 31 33 34 35 37 39 40 40 41 43 44 44 44 44 43 43 42 41 41 40 40 39 39 39 38 38 37 36 35 34 34 34 34 33
16 17 19 21 24 26 27 28 28 29 30 31 32 33 35 36 39 40 40 41 43 43 42 42 43 42 42 42 41 41 40 40 39 39 39 38 37 37 36 35 35 35 35 34
15 17 18 20 22 24 26 26 27 28 29 30 31 33 33 35 36 37 38 39 40 42 42 41 42 43 42 42 42 41 41 40 40 40 39 39 38 37 36 36 35 35 35 35
15 15 17 18 20 22 24 25 25 26 27 29 29 32 33 33 34 34 36 37 38 39 40 41 42 42 43 42 41 41 41 41 40 40 40 39 39 38 37 36 36 35 35 35
14 14 15 17 17 19 22 24 23 24 26 28 28 30 31 31 32 33 34 35 36 37 38 39 40 40 41 41 41 41 41 41 41 40 40 40 39 39 38 37 37 36 35 35
13 13 14 14 17 18 20 22 23 24 26 28 29 30 29 30 31 32 33 34 35 36 37 37 38 39 39 40 41 41 41 41 41 41 41 40 40 39 38 37 37 37 36 35
12 12 13 14 15 18 19 20 22 23 24 25 27 28 28 28 30 31 32 33 33 35 36 35 36 38 38 39 40 40 40 41 41 41 41 40 40 40 39 38 37 37 37 36
11 12 13 14 15 17 18 19 21 23 24 25 25 26 28 28 29 29 30 31 32 34 34 35 35 36 37 38 39 40 40 40 40 40 40 40 40 40 39 38 38 37 37 36
13 13 13 15 16 16 17 19 21 23 23 24 24 25 26 27 28 29 29 30 31 33 34 34 35 35 36 37 38 39 40 40 40 40 40 39 40 39 39 39 38 37 37 37
14 15 16 16 15 16 17 18 20 21 22 23 24 25 24 25 27 29 29 29 30 32 33 33 34 34 35 36 37 38 39 40 40 39 39 39 39 40 39 39 38 38 38 37
14 16 17 17 17 17 17 19 20 21 22 22 22 23 24 25 26 28 28 29 30 30 32 32 33 34 34 35 35 36 37 39 39 39 39 39 39 39 39 39 38 38 37 37
15 15 17 18 18 18 18 18 21 22 22 22 22 23 24 25 26 27 28 29 30 30 31 32 32 33 34 34 34 35 36 37 38 39 40 40 39 38 38 38 38 38 37 36
15 15 16 17 18 19 18 18 20 22 22 23 23 24 24 25 26 26 27 28 29 30 31 31 32 32 33 34 34 34 35 36 37 38 39 39 39 38 38 38 38 38 37 37
17 17 18 18 19 19 20 20 20 21 22 23 23 24 24 25 25 26 26 27 29 30 31 31 31 31 32 33 34 34 35 35 36 37 37 38 38 38 37 37 37 37 36 36
19 19 18 18 18 20 20 21 22 22 22 23 23 24 24 24 25 25 26 27 28 29 30 31 31 31 31 32 33 34 34 35 35 36 36 36 37 37 38 37 37 36 36 36
20 20 20 19 19 19 19 21 23 23 23 23 23 23 24 24 24 25 25 26 27 28 30 31 31 32 31 31 31 33 34 34 35 34 35 36 36 36 37 37 36 36 35 35
18 20 21 21 21 20 19 20 23 23 23 24 24 24 24 23 24 25 26 27 27 28 29 31 32 32 32 32 31 31 32 33 33 34 34 35 35 36 36 36 36 36 35 35
18 18 20 21 21 20 20 21 23 24 24 24 25 25 25 24 25 25 26 27 28 29 29 31 32 32 32 32 32 32 32 33 33 34 34 34 34 35 36 36 36 36 36 36
19 18 19 20 21 20 20 21 22 24 25 25 25 26 26 26 26 26 27 27 27 29 29 30 31 31 32 32 33 33 33 33 33 33 33 34 34 34 35 36 36 36 36 35
20 20 20 20 21 21 21 22 22 23 24 25 25 26 26 27 27 27 27 28 28 29 29 29 30 31 31 31 32 32 33 33 32 32 33 33 33 33 34 34 35 35 34 34
22 22 22 22 21 22 22 22 22 23 24 24 25 26 26 27 27 27 27 28 28 29 29 30 30 30 31 31 31 32 32 32 32 33 33 32 32 32 33 34 34 35 34 34
23 23 23 23 22 23 23 23 23 23 24 24 25 25 26 27 27 27 27 27 28 29 29 29 30 31 31 31 31 32 32 33 33 33 33 33 32 31 31 33 33 34 34 34
23 23 23 24 23 23 24 24 24 24 24 25 25 26 27 27 28 28 28 28 28 28 29 29 29 30 31 31 31 32 32 32 32 32 32 32 32 32 32 32 33 34 34 34
24 24 24 24 24 24 24 25 25 25 25 26 27 27 28 28 29 29 29 29 29 28 29 29 29 29 30 30 30 31 31 31 31 31 31 32 32 32 32 31 31 32 32 33

GEFSCGP_500_meanwind_228.txt.gz
Wind_Speed
14 16 17 17 17 18 19 22 24 25 27 29 31 32 32 34 36 36 36 37 40 42 42 42 43 44 44 43 41 40 41 41 41 40 38 38 37 36 35 34 33 33 33 32
13 15 16 15 16 17 19 21 23 24 25 28 30 31 32 33 34 35 35 36 37 40 41 41 42 43 44 43 43 42 41 41 41 40 39 38 38 37 36 35 34 34 33 32
13 14 15 15 15 15 17 19 21 23 24 26 28 30 31 32 33 34 34 34 36 37 39 41 41 42 43 43 43 43 42 41 41 41 40 39 38 38 37 37 36 34 34 33
12 13 13 15 16 14 14 17 20 22 24 26 26 28 30 31 33 34 34 34 35 36 38 39 40 41 41 42 43 43 43 42 41 41 41 41 40 39 38 37 37 36 35 34
11 11 12 14 15 14 14 15 18 20 23 25 26 27 28 30 32 33 34 34 34 35 37 38 38 39 40 41 42 42 42 42 42 41 41 41 41 40 39 38 38 37 36 36
9 11 12 13 15 15 14 15 17 19 21 23 24 27 28 29 29 30 32 32 33 34 35 36 38 38 39 40 41 41 42 42 43 42 41 41 41 40 40 39 39 39 38 37
8 10 12 13 14 14 15 15 15 17 19 21 23 25 26 27 27 29 30 31 31 33 34 36 37 38 38 39 40 40 41 42 42 42 41 41 41 41 40 40 40 40 39 38
8 8 10 11 13 12 13 15 16 17 19 21 22 25 25 25 27 28 29 30 31 32 33 35 36 37 38 38 38 39 40 40 41 42 42 41 41 41 41 41 40 40 39 39
10 9 10 10 12 13 13 14 15 17 18 20 21 23 24 24 26 27 28 29 30 31 32 33 34 36 37 38 37 38 39 39 40 41 42 41 41 41 41 41 40 40 39 39
11 11 10 11 13 14 14 14 15 16 18 19 20 21 22 23 23 25 27 28 29 30 32 33 33 34 36 37 37 37 38 38 39 40 41 42 41 41 41 41 41 40 40 40
12 11 10 12 14 15 14 14 15 16 18 20 20 20 21 21 22 24 25 27 28 29 31 33 34 34 35 35 36 36 37 37 38 39 39 40 41 41 41 41 41 40 40 40
13 12 12 13 14 15 15 16 16 18 19 19 21 20 20 21 21 22 24 26 28 29 29 32 34 35 35 35 35 35 36 36 37 38 39 39 39 40 41 40 41 41 40 40
13 13 14 14 15 15 15 16 17 18 19 20 20 19 20 21 22 22 23 24 26 28 30 30 32 34 35 35 35 35 35 36 37 38 38 39 39 39 40 40 41 41 41 40
13 14 14 15 15 16 16 16 17 18 18 20 20 20 20 21 21 21 22 23 25 27 29 31 32 34 35 35 35 36 35 35 36 37 38 39 40 39 39 39 40 40 40 40
15 15 14 15 16 17 17 17 19 19 19 19 19 20 20 22 21 21 22 23 24 26 28 29 31 34 35 35 36 36 35 35 35 36 37 39 39 40 40 39 39 39 39 39
16 16 16 16 16 17 18 18 19 19 19 20 21 21 22 22 22 22 22 23 24 25 27 28 29 31 33 34 35 36 36 35 36 36 37 38 39 39 39 40 39 39 39 39
18 18 18 18 18 18 18 19 18 19 20 21 22 21 22 22 22 22 22 23 23 24 26 27 28 29 31 33 34 35 35 35 36 36 37 37 38 38 38 39 39 39 39 39
18 18 18 18 18 19 18 19 19 19 19 21 21 22 22 23 23 23 23 23 23 24 26 27 28 29 30 32 33 34 35 35 36 36 36 37 37 38 38 38 38 39 39 39
19 18 18 18 20 20 19 20 20 20 20 20 21 22 23 23 23 24 24 24 24 24 26 28 29 29 30 31 33 34 35 35 35 36 36 36 36 37 37 38 38 38 38 39
20 19 19 19 19 20 20 20 20 21 21 22 22 22 22 23 24 24 25 25 24 25 26 27 28 29 30 30 32 33 34 34 35 35 35 35 36 37 37 37 37 37 38 38
21 20 20 20 20 20 20 20 21 21 21 21 22 23 23 23 24 24 25 25 25 25 25 26 27 28 29 29 30 31 33 33 34 34 35 34 35 35 36 36 37 37 37 38
22 22 22 21 22 21 21 20 21 21 21 22 22 22 23 23 24 24 25 25 25 25 25 26 27 27 28 28 29 29 31 31 32 33 34 34 33 33 34 35 35 36 36 36
22 22 22 22 22 22 21 21 22 22 22 23 23 23 24 24 24 25 25 26 26 26 26 26 27 27 27 28 28 28 29 29 30 31 32 32 32 32 33 33 33 34 35 35
22 23 23 23 22 22 22 22 22 23 23 23 23 24 25 25 26 26 26 26 27 27 27 27 27 27 28 28 28 28 29 29 29 30 30 31 31 32 32 32 32 33 33 33
23 23 23 22 22 23 23 23 23 23 23 23 24 24 25 26 27 27 27 26 27 27 27 27 27 27 27 28 28 29 29 29 29 30 31 31 31 32 32 33 33 33 33 33
23 24 24 23 22 23 23 24 24 24 24 24 25 25 25 26 27 27 28 28 28 28 27 28 28 28 28 28 28 29 29 29 30 30 30 31 32 32 33 33 33 33 33 33

GEFSCGP_500_meanwind_234.txt.gz
Wind_Speed
11 12 13 15 16 17 18 19 20 21 22 25 26 27 27 28 29 29 31 32 33 34 36 37 38 38 38 39 42 42 42 41 41 41 41 40 40 40 38 38 36 35 34 34
12 12 13 14 14 15 16 17 18 19 21 23 25 27 27 27 27 29 30 30 32 33 35 37 37 38 37 37 39 41 42 42 41 41 42 41 40 40 40 39 38 36 35 35
13 12 12 14 14 14 14 15 17 19 20 21 23 25 26 27 28 28 28 30 31 33 35 36 37 37 38 37 38 39 41 41 42 42 42 42 41 41 41 40 39 38 37 36
11 11 12 13 13 13 13 14 16 18 19 20 23 25 26 26 28 28 28 29 30 31 33 34 36 37 38 38 38 39 39 40 41 42 42 43 42 41 41 41 40 39 39 37
12 12 12 12 13 13 13 13 15 16 17 20 21 24 24 26 27 28 28 28 30 30 31 32 33 36 37 38 39 39 40 40 41 41 42 43 42 42 42 41 41 39 39 38
12 12 11 10 12 13 13 13 13 14 16 18 20 23 23 24 26 27 28 28 30 30 31 32 32 34 36 37 39 39 39 40 40 41 42 43 43 42 42 42 41 39 38 39
12 11 10 9 11 12 12 14 15 16 17 18 19 21 21 22 24 25 27 28 29 30 31 31 32 32 34 36 38 38 39 39 40 41 42 42 43 44 43 41 41 41 39 39
11 11 10 10 11 12 12 13 15 16 18 18 19 20 20 21 23 24 26 27 28 29 31 31 32 32 33 35 37 38 38 38 39 40 41 42 43 44 44 42 41 41 40 40
12 12 12 11 11 12 13 13 15 17 18 19 20 20 20 21 22 23 24 26 27 29 30 31 31 33 34 35 36 37 38 38 38 40 41 41 41 43 43 43 41 41 41 40
15 14 13 12 12 12 13 13 15 17 19 20 21 20 21 22 23 24 25 26 28 29 30 30 31 32 33 34 36 37 37 38 38 40 41 41 41 42 42 43 42 41 41 41
16 16 15 14 14 14 14 15 15 17 18 20 21 20 21 22 23 25 25 27 28 29 30 31 31 31 32 33 35 36 37 38 39 39 40 40 40 41 42 42 42 42 41 41
17 17 17 17 17 16 16 16 17 18 18 20 21 20 20 22 23 25 26 27 28 29 29 30 31 32 33 34 35 36 37 38 38 39 39 40 40 41 41 41 42 42 41 41
18 18 18 18 19 18 19 19 18 18 19 20 21 20 20 22 23 24 25 27 28 29 29 29 30 31 32 33 35 36 37 38 38 39 39 40 40 40 41 41 42 43 42 41
19 19 19 19 19 20 21 21 20 21 21 21 20 20 20 21 22 23 25 26 27 28 29 30 31 31 32 33 34 35 37 37 38 38 39 39 40 40 40 41 42 42 42 42
19 19 19 19 20 21 22 22 22 22 22 22 22 22 22 22 22 23 24 25 26 28 29 30 31 31 32 32 33 34 36 36 37 37 38 39 40 40 40 40 41 41 41 41
20 20 20 20 21 22 22 22 22 21 21 22 22 22 23 23 24 25 25 25 26 28 29 29 30 31 32 33 33 34 35 37 37 37 38 38 39 39 40 39 40 40 40 41
22 22 22 22 22 23 22 21 22 21 20 21 22 22 23 24 24 25 26 26 26 28 29 30 30 31 31 32 33 34 35 36 37 38 38 38 38 39 39 40 40 40 40 41
23 23 24 24 24 25 22 22 21 21 20 20 21 23 24 25 25 25 25 26 27 28 29 29 31 31 31 31 32 33 34 35 37 38 38 38 39 39 39 39 40 40 40 41
23 24 25 25 25 25 24 23 22 22 21 20 21 21 22 23 24 25 26 27 28 28 28 29 29 30 31 31 32 33 34 35 37 37 37 38 39 39 40 39 39 40 40 40
24 24 25 25 25 25 24 24 24 24 22 21 21 21 22 22 23 23 25 26 28 28 28 29 29 29 30 31 31 32 34 35 36 36 36 37 38 39 39 39 39 39 39 39
25 26 26 26 26 25 23 24 25 25 23 22 22 21 21 22 22 23 24 25 26 27 28 28 29 29 29 30 31 31 32 33 35 35 34 34 36 37 37 38 38 37 38 38
25 26 26 26 26 24 24 24 25 26 25 24 23 23 23 23 23 23 24 26 26 27 28 28 29 29 29 29 30 30 31 32 34 35 36 35 34 35 36 36 35 36 37 38
26 25 26 26 24 24 24 25 26 27 26 25 25 24 24 25 25 25 25 26 27 28 29 29 30 30 30 30 30 30 31 32 33 34 35 36 35 34 35 35 35 35 36 37
25 25 26 25 24 25 25 25 26 26 26 26 25 24 25 25 26 26 27 27 28 28 29 30 30 30 30 30 31 31 31 32 33 33 34 34 35 35 35 35 35 35 36 36
26 26 25 25 25 26 26 26 26 26 26 25 25 25 25 26 26 27 27 27 28 28 28 29 29 29 30 31 31 31 31 32 32 32 33 33 33 34 34 34 34 34 34 35
25 26 26 26 26 26 26 26 26 26 25 25 25 25 25 26 27 27 27 27 28 28 28 28 29 29 30 30 30 30 31 31 31 31 31 32 32 33 33 33 33 34 34 35